<?xml version='1.0' encoding='UTF-8'?><gpx version="1.1" creator="JPX - https://github.com/jenetics/jpx" xmlns="http://www.topografix.com/GPX/1/1"><trk><trkseg><trkpt lat="44.6980064" lon="8.8805152"><ele>228.99999999999997</ele><time>2026-04-06T13:05:15.78Z</time></trkpt><trkpt lat="44.6980763" lon="8.8805781"><ele>229.0</ele><time>2026-04-06T13:05:18.779Z</time></trkpt><trkpt lat="44.6981372" lon="8.8806381"><ele>229.0</ele><time>2026-04-06T13:05:21.781Z</time></trkpt><trkpt lat="44.6982023" lon="8.8807082"><ele>229.0</ele><time>2026-04-06T13:05:24.78Z</time></trkpt><trkpt lat="44.6982591" lon="8.880781"><ele>228.99999999999997</ele><time>2026-04-06T13:05:27.781Z</time></trkpt><trkpt lat="44.6983073" lon="8.8808754"><ele>229.0</ele><time>2026-04-06T13:05:31.78Z</time></trkpt><trkpt lat="44.6983646" lon="8.8809575"><ele>228.2</ele><time>2026-04-06T13:05:34.78Z</time></trkpt><trkpt lat="44.6984377" lon="8.8810413"><ele>227.39999999999998</ele><time>2026-04-06T13:05:37.78Z</time></trkpt><trkpt lat="44.6985046" lon="8.8811163"><ele>226.6</ele><time>2026-04-06T13:05:40.781Z</time></trkpt><trkpt lat="44.698581" lon="8.8811902"><ele>225.8</ele><time>2026-04-06T13:05:43.779Z</time></trkpt><trkpt lat="44.6986594" lon="8.8812546"><ele>225.0</ele><time>2026-04-06T13:05:46.779Z</time></trkpt><trkpt lat="44.6987341" lon="8.8813246"><ele>225.0</ele><time>2026-04-06T13:05:49.779Z</time></trkpt><trkpt lat="44.6987878" lon="8.8813758"><ele>225.0</ele><time>2026-04-06T13:05:51.781Z</time></trkpt><trkpt lat="44.6988601" lon="8.8814501"><ele>225.0</ele><time>2026-04-06T13:05:54.779Z</time></trkpt><trkpt lat="44.6989166" lon="8.8815333"><ele>225.0</ele><time>2026-04-06T13:05:57.781Z</time></trkpt><trkpt lat="44.6989476" lon="8.8816323"><ele>225.0</ele><time>2026-04-06T13:06:00.78Z</time></trkpt><trkpt lat="44.6989668" lon="8.8817319"><ele>225.0</ele><time>2026-04-06T13:06:02.781Z</time></trkpt><trkpt lat="44.6989948" lon="8.8818677"><ele>223.4</ele><time>2026-04-06T13:06:04.779Z</time></trkpt><trkpt lat="44.6990318" lon="8.8819888"><ele>221.8</ele><time>2026-04-06T13:06:06.781Z</time></trkpt><trkpt lat="44.6990611" lon="8.8821217"><ele>220.2</ele><time>2026-04-06T13:06:08.78Z</time></trkpt><trkpt lat="44.6990821" lon="8.8822397"><ele>218.6</ele><time>2026-04-06T13:06:10.779Z</time></trkpt><trkpt lat="44.6990958" lon="8.8823556"><ele>217.0</ele><time>2026-04-06T13:06:12.781Z</time></trkpt><trkpt lat="44.6990998" lon="8.8824815"><ele>216.2</ele><time>2026-04-06T13:06:14.78Z</time></trkpt><trkpt lat="44.6990835" lon="8.8826312"><ele>215.39999999999998</ele><time>2026-04-06T13:06:16.78Z</time></trkpt><trkpt lat="44.6990511" lon="8.8827668"><ele>214.60000000000002</ele><time>2026-04-06T13:06:18.779Z</time></trkpt><trkpt lat="44.6989726" lon="8.8828467"><ele>213.8</ele><time>2026-04-06T13:06:20.78Z</time></trkpt><trkpt lat="44.6988818" lon="8.8828348"><ele>213.0</ele><time>2026-04-06T13:06:22.78Z</time></trkpt><trkpt lat="44.6987916" lon="8.8828052"><ele>213.0</ele><time>2026-04-06T13:06:24.78Z</time></trkpt><trkpt lat="44.6987068" lon="8.8827863"><ele>213.0</ele><time>2026-04-06T13:06:26.78Z</time></trkpt><trkpt lat="44.6986215" lon="8.8827569"><ele>213.0</ele><time>2026-04-06T13:06:28.781Z</time></trkpt><trkpt lat="44.698539" lon="8.8827021"><ele>213.0</ele><time>2026-04-06T13:06:30.78Z</time></trkpt><trkpt lat="44.6984604" lon="8.8826427"><ele>213.0</ele><time>2026-04-06T13:06:32.78Z</time></trkpt><trkpt lat="44.6983861" lon="8.8826127"><ele>213.0</ele><time>2026-04-06T13:06:34.781Z</time></trkpt><trkpt lat="44.6983164" lon="8.8826345"><ele>213.33333333333334</ele><time>2026-04-06T13:06:36.78Z</time></trkpt><trkpt lat="44.6982441" lon="8.8826283"><ele>213.66666666666669</ele><time>2026-04-06T13:06:38.78Z</time></trkpt><trkpt lat="44.6981753" lon="8.8825817"><ele>214.0</ele><time>2026-04-06T13:06:40.781Z</time></trkpt><trkpt lat="44.6981004" lon="8.8825387"><ele>214.33333333333334</ele><time>2026-04-06T13:06:42.779Z</time></trkpt><trkpt lat="44.6980206" lon="8.8825123"><ele>214.66666666666669</ele><time>2026-04-06T13:06:44.78Z</time></trkpt><trkpt lat="44.6979438" lon="8.8824825"><ele>215.0</ele><time>2026-04-06T13:06:46.781Z</time></trkpt><trkpt lat="44.6978702" lon="8.8824451"><ele>215.00000000000003</ele><time>2026-04-06T13:06:48.779Z</time></trkpt><trkpt lat="44.6977967" lon="8.8824009"><ele>215.0</ele><time>2026-04-06T13:06:50.78Z</time></trkpt><trkpt lat="44.6977262" lon="8.882372"><ele>215.0</ele><time>2026-04-06T13:06:52.78Z</time></trkpt><trkpt lat="44.6976543" lon="8.8823504"><ele>215.0</ele><time>2026-04-06T13:06:54.78Z</time></trkpt><trkpt lat="44.6975818" lon="8.8823068"><ele>215.00000000000003</ele><time>2026-04-06T13:06:56.778Z</time></trkpt><trkpt lat="44.6975101" lon="8.8822805"><ele>215.0</ele><time>2026-04-06T13:06:58.78Z</time></trkpt><trkpt lat="44.6974332" lon="8.8822469"><ele>214.83333333333334</ele><time>2026-04-06T13:07:00.78Z</time></trkpt><trkpt lat="44.6973579" lon="8.8822198"><ele>214.66666666666669</ele><time>2026-04-06T13:07:02.781Z</time></trkpt><trkpt lat="44.6972845" lon="8.8821917"><ele>214.5</ele><time>2026-04-06T13:07:04.78Z</time></trkpt><trkpt lat="44.6972125" lon="8.8821463"><ele>214.33333333333331</ele><time>2026-04-06T13:07:06.779Z</time></trkpt><trkpt lat="44.6971345" lon="8.8821038"><ele>214.16666666666666</ele><time>2026-04-06T13:07:08.779Z</time></trkpt><trkpt lat="44.6970545" lon="8.8820701"><ele>214.0</ele><time>2026-04-06T13:07:10.778Z</time></trkpt><trkpt lat="44.6969763" lon="8.8820454"><ele>214.66666666666666</ele><time>2026-04-06T13:07:12.78Z</time></trkpt><trkpt lat="44.6968934" lon="8.8820355"><ele>215.33333333333331</ele><time>2026-04-06T13:07:14.781Z</time></trkpt><trkpt lat="44.6968128" lon="8.8820626"><ele>216.0</ele><time>2026-04-06T13:07:16.781Z</time></trkpt><trkpt lat="44.6967466" lon="8.882138"><ele>216.66666666666669</ele><time>2026-04-06T13:07:18.779Z</time></trkpt><trkpt lat="44.6967135" lon="8.8822525"><ele>217.33333333333334</ele><time>2026-04-06T13:07:20.779Z</time></trkpt><trkpt lat="44.6966887" lon="8.8823681"><ele>218.0</ele><time>2026-04-06T13:07:22.78Z</time></trkpt><trkpt lat="44.6966621" lon="8.8824793"><ele>218.00000000000003</ele><time>2026-04-06T13:07:24.779Z</time></trkpt><trkpt lat="44.6966361" lon="8.8825921"><ele>218.0</ele><time>2026-04-06T13:07:26.781Z</time></trkpt><trkpt lat="44.6966187" lon="8.882705"><ele>218.0</ele><time>2026-04-06T13:07:28.78Z</time></trkpt><trkpt lat="44.6965969" lon="8.8828186"><ele>218.0</ele><time>2026-04-06T13:07:30.78Z</time></trkpt><trkpt lat="44.6965734" lon="8.8829371"><ele>218.00000000000003</ele><time>2026-04-06T13:07:32.778Z</time></trkpt><trkpt lat="44.6965407" lon="8.883042"><ele>218.0</ele><time>2026-04-06T13:07:34.779Z</time></trkpt><trkpt lat="44.6965047" lon="8.8831364"><ele>218.0</ele><time>2026-04-06T13:07:36.779Z</time></trkpt><trkpt lat="44.6964708" lon="8.883237"><ele>218.0</ele><time>2026-04-06T13:07:39.779Z</time></trkpt><trkpt lat="44.6964813" lon="8.8833618"><ele>218.0</ele><time>2026-04-06T13:07:47.778Z</time></trkpt><trkpt lat="44.6965605" lon="8.8834404"><ele>218.0</ele><time>2026-04-06T13:07:49.779Z</time></trkpt><trkpt lat="44.6966426" lon="8.883498"><ele>218.0</ele><time>2026-04-06T13:07:51.778Z</time></trkpt><trkpt lat="44.6967364" lon="8.8835562"><ele>218.0</ele><time>2026-04-06T13:07:53.781Z</time></trkpt><trkpt lat="44.696839" lon="8.8836226"><ele>218.0</ele><time>2026-04-06T13:07:55.781Z</time></trkpt><trkpt lat="44.6969499" lon="8.883692"><ele>218.0</ele><time>2026-04-06T13:07:57.78Z</time></trkpt><trkpt lat="44.6970092" lon="8.8837224"><ele>218.0</ele><time>2026-04-06T13:07:58.78Z</time></trkpt><trkpt lat="44.6971172" lon="8.8837902"><ele>218.0</ele><time>2026-04-06T13:08:00.779Z</time></trkpt><trkpt lat="44.69722" lon="8.8838507"><ele>217.4</ele><time>2026-04-06T13:08:02.781Z</time></trkpt><trkpt lat="44.6973131" lon="8.8839138"><ele>216.8</ele><time>2026-04-06T13:08:04.78Z</time></trkpt><trkpt lat="44.6974086" lon="8.8839744"><ele>216.2</ele><time>2026-04-06T13:08:06.78Z</time></trkpt><trkpt lat="44.6975111" lon="8.8840352"><ele>215.6</ele><time>2026-04-06T13:08:08.779Z</time></trkpt><trkpt lat="44.6976161" lon="8.8840921"><ele>215.0</ele><time>2026-04-06T13:08:10.779Z</time></trkpt><trkpt lat="44.6977163" lon="8.8841496"><ele>215.2</ele><time>2026-04-06T13:08:12.78Z</time></trkpt><trkpt lat="44.6978222" lon="8.8842159"><ele>215.4</ele><time>2026-04-06T13:08:14.779Z</time></trkpt><trkpt lat="44.697924" lon="8.8842749"><ele>215.60000000000002</ele><time>2026-04-06T13:08:16.781Z</time></trkpt><trkpt lat="44.6980199" lon="8.8843315"><ele>215.8</ele><time>2026-04-06T13:08:18.781Z</time></trkpt><trkpt lat="44.6981253" lon="8.8843873"><ele>216.0</ele><time>2026-04-06T13:08:20.78Z</time></trkpt><trkpt lat="44.6982289" lon="8.884446"><ele>216.0</ele><time>2026-04-06T13:08:22.779Z</time></trkpt><trkpt lat="44.698331" lon="8.8845101"><ele>216.0</ele><time>2026-04-06T13:08:24.778Z</time></trkpt><trkpt lat="44.6984369" lon="8.8845812"><ele>216.0</ele><time>2026-04-06T13:08:26.78Z</time></trkpt><trkpt lat="44.6985436" lon="8.8846299"><ele>216.0</ele><time>2026-04-06T13:08:28.778Z</time></trkpt><trkpt lat="44.69865" lon="8.8846939"><ele>215.4</ele><time>2026-04-06T13:08:30.78Z</time></trkpt><trkpt lat="44.6987545" lon="8.8847572"><ele>214.8</ele><time>2026-04-06T13:08:32.78Z</time></trkpt><trkpt lat="44.6988537" lon="8.8848066"><ele>214.20000000000002</ele><time>2026-04-06T13:08:34.778Z</time></trkpt><trkpt lat="44.6989535" lon="8.8848618"><ele>213.60000000000002</ele><time>2026-04-06T13:08:36.781Z</time></trkpt><trkpt lat="44.6990482" lon="8.884914"><ele>213.0</ele><time>2026-04-06T13:08:38.779Z</time></trkpt><trkpt lat="44.6991479" lon="8.884972"><ele>213.0</ele><time>2026-04-06T13:08:40.779Z</time></trkpt><trkpt lat="44.6992499" lon="8.8850371"><ele>213.0</ele><time>2026-04-06T13:08:42.779Z</time></trkpt><trkpt lat="44.6993498" lon="8.8851045"><ele>213.0</ele><time>2026-04-06T13:08:44.779Z</time></trkpt><trkpt lat="44.6994532" lon="8.8851668"><ele>213.0</ele><time>2026-04-06T13:08:46.781Z</time></trkpt><trkpt lat="44.6995589" lon="8.8852177"><ele>213.0</ele><time>2026-04-06T13:08:48.779Z</time></trkpt><trkpt lat="44.6996615" lon="8.8852765"><ele>213.2</ele><time>2026-04-06T13:08:50.778Z</time></trkpt><trkpt lat="44.6997616" lon="8.8853348"><ele>213.4</ele><time>2026-04-06T13:08:52.78Z</time></trkpt><trkpt lat="44.699858" lon="8.8853859"><ele>213.59999999999997</ele><time>2026-04-06T13:08:54.778Z</time></trkpt><trkpt lat="44.6999572" lon="8.8854505"><ele>213.79999999999998</ele><time>2026-04-06T13:08:56.779Z</time></trkpt><trkpt lat="44.7000574" lon="8.8855083"><ele>214.0</ele><time>2026-04-06T13:08:58.78Z</time></trkpt><trkpt lat="44.7001613" lon="8.8855643"><ele>214.0</ele><time>2026-04-06T13:09:00.779Z</time></trkpt><trkpt lat="44.7002618" lon="8.8856141"><ele>213.99999999999997</ele><time>2026-04-06T13:09:02.78Z</time></trkpt><trkpt lat="44.7003603" lon="8.8856736"><ele>213.99999999999997</ele><time>2026-04-06T13:09:04.778Z</time></trkpt><trkpt lat="44.7004627" lon="8.8857267"><ele>214.0</ele><time>2026-04-06T13:09:06.779Z</time></trkpt><trkpt lat="44.700563" lon="8.8857858"><ele>214.0</ele><time>2026-04-06T13:09:08.779Z</time></trkpt><trkpt lat="44.7006611" lon="8.8858463"><ele>214.0</ele><time>2026-04-06T13:09:10.781Z</time></trkpt><trkpt lat="44.7007588" lon="8.8858978"><ele>213.99999999999997</ele><time>2026-04-06T13:09:12.779Z</time></trkpt><trkpt lat="44.70086" lon="8.8859597"><ele>213.99999999999997</ele><time>2026-04-06T13:09:14.78Z</time></trkpt><trkpt lat="44.7009578" lon="8.8860196"><ele>214.0</ele><time>2026-04-06T13:09:16.781Z</time></trkpt><trkpt lat="44.7010571" lon="8.8860758"><ele>214.0</ele><time>2026-04-06T13:09:18.78Z</time></trkpt><trkpt lat="44.7011551" lon="8.886132"><ele>213.2</ele><time>2026-04-06T13:09:20.781Z</time></trkpt><trkpt lat="44.7012542" lon="8.8861903"><ele>212.39999999999998</ele><time>2026-04-06T13:09:22.78Z</time></trkpt><trkpt lat="44.7013467" lon="8.8862476"><ele>211.6</ele><time>2026-04-06T13:09:24.779Z</time></trkpt><trkpt lat="44.701441" lon="8.8863039"><ele>210.8</ele><time>2026-04-06T13:09:26.78Z</time></trkpt><trkpt lat="44.7015371" lon="8.886363"><ele>210.0</ele><time>2026-04-06T13:09:28.779Z</time></trkpt><trkpt lat="44.7016361" lon="8.8864192"><ele>210.0</ele><time>2026-04-06T13:09:30.778Z</time></trkpt><trkpt lat="44.7017317" lon="8.8864796"><ele>210.0</ele><time>2026-04-06T13:09:32.778Z</time></trkpt><trkpt lat="44.7018234" lon="8.8865358"><ele>210.0</ele><time>2026-04-06T13:09:34.781Z</time></trkpt><trkpt lat="44.701915" lon="8.8865934"><ele>210.0</ele><time>2026-04-06T13:09:36.779Z</time></trkpt><trkpt lat="44.7020093" lon="8.886649"><ele>210.0</ele><time>2026-04-06T13:09:38.781Z</time></trkpt><trkpt lat="44.7021026" lon="8.8866896"><ele>212.0</ele><time>2026-04-06T13:09:40.781Z</time></trkpt><trkpt lat="44.7021861" lon="8.8867423"><ele>214.0</ele><time>2026-04-06T13:09:42.781Z</time></trkpt><trkpt lat="44.7022722" lon="8.8867928"><ele>216.0</ele><time>2026-04-06T13:09:44.779Z</time></trkpt><trkpt lat="44.7023728" lon="8.886847"><ele>218.0</ele><time>2026-04-06T13:09:46.779Z</time></trkpt><trkpt lat="44.7024701" lon="8.8869"><ele>220.0</ele><time>2026-04-06T13:09:48.778Z</time></trkpt><trkpt lat="44.7025595" lon="8.8869512"><ele>220.8</ele><time>2026-04-06T13:09:50.781Z</time></trkpt><trkpt lat="44.7026501" lon="8.8870065"><ele>221.6</ele><time>2026-04-06T13:09:52.78Z</time></trkpt><trkpt lat="44.7027508" lon="8.8870569"><ele>222.39999999999998</ele><time>2026-04-06T13:09:54.781Z</time></trkpt><trkpt lat="44.7028286" lon="8.8871097"><ele>223.2</ele><time>2026-04-06T13:09:56.78Z</time></trkpt><trkpt lat="44.7029551" lon="8.8871894"><ele>224.0</ele><time>2026-04-06T13:09:59.779Z</time></trkpt><trkpt lat="44.7030432" lon="8.8872569"><ele>226.2</ele><time>2026-04-06T13:10:01.78Z</time></trkpt><trkpt lat="44.7031288" lon="8.8873113"><ele>228.39999999999998</ele><time>2026-04-06T13:10:03.78Z</time></trkpt><trkpt lat="44.7032174" lon="8.8873642"><ele>230.6</ele><time>2026-04-06T13:10:05.778Z</time></trkpt><trkpt lat="44.703296" lon="8.8874135"><ele>232.8</ele><time>2026-04-06T13:10:07.78Z</time></trkpt><trkpt lat="44.7033773" lon="8.8874714"><ele>235.0</ele><time>2026-04-06T13:10:09.779Z</time></trkpt><trkpt lat="44.7034554" lon="8.8875338"><ele>235.0</ele><time>2026-04-06T13:10:11.78Z</time></trkpt><trkpt lat="44.7035236" lon="8.8875916"><ele>234.99999999999997</ele><time>2026-04-06T13:10:13.779Z</time></trkpt><trkpt lat="44.7035844" lon="8.8876448"><ele>235.0</ele><time>2026-04-06T13:10:15.779Z</time></trkpt><trkpt lat="44.7036389" lon="8.8876942"><ele>235.0</ele><time>2026-04-06T13:10:17.778Z</time></trkpt><trkpt lat="44.7037075" lon="8.8877499"><ele>234.99999999999997</ele><time>2026-04-06T13:10:20.779Z</time></trkpt><trkpt lat="44.7037706" lon="8.8877943"><ele>235.0</ele><time>2026-04-06T13:10:40.78Z</time></trkpt><trkpt lat="44.7038265" lon="8.8877515"><ele>235.0</ele><time>2026-04-06T13:10:43.78Z</time></trkpt><trkpt lat="44.7038876" lon="8.8876906"><ele>235.8</ele><time>2026-04-06T13:10:45.78Z</time></trkpt><trkpt lat="44.7039639" lon="8.8876146"><ele>236.6</ele><time>2026-04-06T13:10:47.779Z</time></trkpt><trkpt lat="44.7040544" lon="8.8875384"><ele>237.39999999999998</ele><time>2026-04-06T13:10:49.779Z</time></trkpt><trkpt lat="44.7041395" lon="8.8874664"><ele>238.2</ele><time>2026-04-06T13:10:51.778Z</time></trkpt><trkpt lat="44.7042196" lon="8.8874044"><ele>239.0</ele><time>2026-04-06T13:10:53.778Z</time></trkpt><trkpt lat="44.7042962" lon="8.8873377"><ele>239.00000000000003</ele><time>2026-04-06T13:10:55.78Z</time></trkpt><trkpt lat="44.7043728" lon="8.8872726"><ele>239.0</ele><time>2026-04-06T13:10:57.78Z</time></trkpt><trkpt lat="44.7044486" lon="8.8872092"><ele>239.0</ele><time>2026-04-06T13:10:59.778Z</time></trkpt><trkpt lat="44.704523" lon="8.8871487"><ele>239.0</ele><time>2026-04-06T13:11:01.78Z</time></trkpt><trkpt lat="44.7045954" lon="8.8870861"><ele>239.00000000000003</ele><time>2026-04-06T13:11:03.779Z</time></trkpt><trkpt lat="44.7046681" lon="8.8870258"><ele>239.0</ele><time>2026-04-06T13:11:05.78Z</time></trkpt><trkpt lat="44.7047414" lon="8.8869684"><ele>239.00000000000003</ele><time>2026-04-06T13:11:07.779Z</time></trkpt><trkpt lat="44.7048191" lon="8.8869214"><ele>239.0</ele><time>2026-04-06T13:11:09.779Z</time></trkpt><trkpt lat="44.7048943" lon="8.8868777"><ele>239.0</ele><time>2026-04-06T13:11:11.78Z</time></trkpt><trkpt lat="44.7049714" lon="8.8868338"><ele>239.0</ele><time>2026-04-06T13:11:13.779Z</time></trkpt><trkpt lat="44.7050513" lon="8.8867946"><ele>239.00000000000003</ele><time>2026-04-06T13:11:15.779Z</time></trkpt><trkpt lat="44.7051315" lon="8.8867598"><ele>239.0</ele><time>2026-04-06T13:11:17.78Z</time></trkpt><trkpt lat="44.7052062" lon="8.8867272"><ele>239.2</ele><time>2026-04-06T13:11:19.78Z</time></trkpt><trkpt lat="44.7052803" lon="8.8866996"><ele>239.39999999999998</ele><time>2026-04-06T13:11:21.781Z</time></trkpt><trkpt lat="44.7053661" lon="8.8866712"><ele>239.6</ele><time>2026-04-06T13:11:23.779Z</time></trkpt><trkpt lat="44.7054603" lon="8.8866401"><ele>239.8</ele><time>2026-04-06T13:11:25.778Z</time></trkpt><trkpt lat="44.7055566" lon="8.8866094"><ele>240.0</ele><time>2026-04-06T13:11:27.779Z</time></trkpt><trkpt lat="44.7056495" lon="8.8865799"><ele>240.0</ele><time>2026-04-06T13:11:29.78Z</time></trkpt><trkpt lat="44.7057526" lon="8.8865543"><ele>240.0</ele><time>2026-04-06T13:11:31.779Z</time></trkpt><trkpt lat="44.7058543" lon="8.8865203"><ele>240.0</ele><time>2026-04-06T13:11:33.778Z</time></trkpt><trkpt lat="44.70595" lon="8.8864827"><ele>240.0</ele><time>2026-04-06T13:11:35.778Z</time></trkpt><trkpt lat="44.7060551" lon="8.8864445"><ele>240.0</ele><time>2026-04-06T13:11:37.781Z</time></trkpt><trkpt lat="44.7061561" lon="8.8864179"><ele>240.0</ele><time>2026-04-06T13:11:39.779Z</time></trkpt><trkpt lat="44.7062593" lon="8.886395"><ele>240.0</ele><time>2026-04-06T13:11:41.779Z</time></trkpt><trkpt lat="44.7063643" lon="8.8863765"><ele>240.0</ele><time>2026-04-06T13:11:43.779Z</time></trkpt><trkpt lat="44.7064717" lon="8.8863675"><ele>240.0</ele><time>2026-04-06T13:11:45.779Z</time></trkpt><trkpt lat="44.7065752" lon="8.88637"><ele>240.0</ele><time>2026-04-06T13:11:47.779Z</time></trkpt><trkpt lat="44.7066769" lon="8.8863786"><ele>240.0</ele><time>2026-04-06T13:11:49.779Z</time></trkpt><trkpt lat="44.706777" lon="8.8863909"><ele>240.0</ele><time>2026-04-06T13:11:51.78Z</time></trkpt><trkpt lat="44.7068748" lon="8.886394"><ele>240.0</ele><time>2026-04-06T13:11:53.779Z</time></trkpt><trkpt lat="44.7069741" lon="8.8863871"><ele>240.0</ele><time>2026-04-06T13:11:55.779Z</time></trkpt><trkpt lat="44.7070727" lon="8.8863607"><ele>240.0</ele><time>2026-04-06T13:11:57.78Z</time></trkpt><trkpt lat="44.7071726" lon="8.8863114"><ele>240.0</ele><time>2026-04-06T13:11:59.779Z</time></trkpt><trkpt lat="44.7072807" lon="8.8862848"><ele>240.0</ele><time>2026-04-06T13:12:01.78Z</time></trkpt><trkpt lat="44.7073899" lon="8.8862487"><ele>240.0</ele><time>2026-04-06T13:12:03.78Z</time></trkpt><trkpt lat="44.7074901" lon="8.8862062"><ele>240.0</ele><time>2026-04-06T13:12:05.779Z</time></trkpt><trkpt lat="44.7075849" lon="8.8861647"><ele>240.0</ele><time>2026-04-06T13:12:07.778Z</time></trkpt><trkpt lat="44.7076823" lon="8.8861251"><ele>239.8</ele><time>2026-04-06T13:12:09.78Z</time></trkpt><trkpt lat="44.7077856" lon="8.8860772"><ele>239.6</ele><time>2026-04-06T13:12:11.78Z</time></trkpt><trkpt lat="44.7078932" lon="8.886034"><ele>239.39999999999998</ele><time>2026-04-06T13:12:13.78Z</time></trkpt><trkpt lat="44.7080009" lon="8.8859869"><ele>239.2</ele><time>2026-04-06T13:12:15.78Z</time></trkpt><trkpt lat="44.7081105" lon="8.8859431"><ele>239.0</ele><time>2026-04-06T13:12:17.78Z</time></trkpt><trkpt lat="44.7082176" lon="8.8858963"><ele>239.0</ele><time>2026-04-06T13:12:19.779Z</time></trkpt><trkpt lat="44.7083295" lon="8.8858594"><ele>239.0</ele><time>2026-04-06T13:12:21.778Z</time></trkpt><trkpt lat="44.7084431" lon="8.8858316"><ele>239.0</ele><time>2026-04-06T13:12:23.779Z</time></trkpt><trkpt lat="44.7085539" lon="8.885799"><ele>239.0</ele><time>2026-04-06T13:12:25.779Z</time></trkpt><trkpt lat="44.7086584" lon="8.8857537"><ele>236.6</ele><time>2026-04-06T13:12:27.78Z</time></trkpt><trkpt lat="44.7087638" lon="8.8856794"><ele>234.2</ele><time>2026-04-06T13:12:29.779Z</time></trkpt><trkpt lat="44.7088524" lon="8.885569"><ele>231.79999999999998</ele><time>2026-04-06T13:12:31.779Z</time></trkpt><trkpt lat="44.7088926" lon="8.8854975"><ele>229.39999999999998</ele><time>2026-04-06T13:12:32.778Z</time></trkpt><trkpt lat="44.7089279" lon="8.8854215"><ele>227.0</ele><time>2026-04-06T13:12:33.78Z</time></trkpt><trkpt lat="44.7089917" lon="8.8852786"><ele>227.0</ele><time>2026-04-06T13:12:35.779Z</time></trkpt><trkpt lat="44.7090525" lon="8.8851303"><ele>227.0</ele><time>2026-04-06T13:12:37.779Z</time></trkpt><trkpt lat="44.709112" lon="8.8849883"><ele>227.0</ele><time>2026-04-06T13:12:39.779Z</time></trkpt><trkpt lat="44.7091726" lon="8.8848418"><ele>227.0</ele><time>2026-04-06T13:12:41.779Z</time></trkpt><trkpt lat="44.7092312" lon="8.8846925"><ele>228.00000000000003</ele><time>2026-04-06T13:12:43.779Z</time></trkpt><trkpt lat="44.7092808" lon="8.8845355"><ele>229.0</ele><time>2026-04-06T13:12:45.778Z</time></trkpt><trkpt lat="44.7093059" lon="8.8844476"><ele>230.0</ele><time>2026-04-06T13:12:46.779Z</time></trkpt><trkpt lat="44.7093258" lon="8.8843614"><ele>231.0</ele><time>2026-04-06T13:12:47.78Z</time></trkpt><trkpt lat="44.7093452" lon="8.8842695"><ele>232.00000000000003</ele><time>2026-04-06T13:12:48.78Z</time></trkpt><trkpt lat="44.7093618" lon="8.88417"><ele>233.0</ele><time>2026-04-06T13:12:49.779Z</time></trkpt><trkpt lat="44.7093833" lon="8.8840704"><ele>233.50000000000003</ele><time>2026-04-06T13:12:50.779Z</time></trkpt><trkpt lat="44.7094026" lon="8.8839638"><ele>234.0</ele><time>2026-04-06T13:12:51.779Z</time></trkpt><trkpt lat="44.7094205" lon="8.8838538"><ele>234.5</ele><time>2026-04-06T13:12:52.779Z</time></trkpt><trkpt lat="44.7094418" lon="8.883741"><ele>235.0</ele><time>2026-04-06T13:12:53.78Z</time></trkpt><trkpt lat="44.7094612" lon="8.8836281"><ele>235.50000000000003</ele><time>2026-04-06T13:12:54.779Z</time></trkpt><trkpt lat="44.709484" lon="8.8835067"><ele>236.0</ele><time>2026-04-06T13:12:55.78Z</time></trkpt><trkpt lat="44.7095085" lon="8.8833858"><ele>233.8</ele><time>2026-04-06T13:12:56.779Z</time></trkpt><trkpt lat="44.7095339" lon="8.8832602"><ele>231.60000000000002</ele><time>2026-04-06T13:12:57.78Z</time></trkpt><trkpt lat="44.7095583" lon="8.8831311"><ele>229.4</ele><time>2026-04-06T13:12:58.779Z</time></trkpt><trkpt lat="44.7095857" lon="8.8829997"><ele>227.2</ele><time>2026-04-06T13:12:59.778Z</time></trkpt><trkpt lat="44.7096144" lon="8.8828672"><ele>225.0</ele><time>2026-04-06T13:13:00.78Z</time></trkpt><trkpt lat="44.7096406" lon="8.8827338"><ele>225.0</ele><time>2026-04-06T13:13:01.779Z</time></trkpt><trkpt lat="44.7096699" lon="8.8825982"><ele>225.0</ele><time>2026-04-06T13:13:02.779Z</time></trkpt><trkpt lat="44.7096937" lon="8.882458"><ele>225.0</ele><time>2026-04-06T13:13:03.779Z</time></trkpt><trkpt lat="44.7097206" lon="8.8823167"><ele>225.0</ele><time>2026-04-06T13:13:04.779Z</time></trkpt><trkpt lat="44.7097491" lon="8.882174"><ele>225.0</ele><time>2026-04-06T13:13:05.778Z</time></trkpt><trkpt lat="44.709778" lon="8.8820276"><ele>225.0</ele><time>2026-04-06T13:13:06.778Z</time></trkpt><trkpt lat="44.7098061" lon="8.8818837"><ele>225.0</ele><time>2026-04-06T13:13:07.779Z</time></trkpt><trkpt lat="44.7098338" lon="8.8817324"><ele>225.0</ele><time>2026-04-06T13:13:08.78Z</time></trkpt><trkpt lat="44.7098584" lon="8.8815833"><ele>225.0</ele><time>2026-04-06T13:13:09.778Z</time></trkpt><trkpt lat="44.7098604" lon="8.8814306"><ele>225.0</ele><time>2026-04-06T13:13:10.779Z</time></trkpt><trkpt lat="44.7098395" lon="8.8812882"><ele>224.6</ele><time>2026-04-06T13:13:11.779Z</time></trkpt><trkpt lat="44.7097989" lon="8.8811474"><ele>224.2</ele><time>2026-04-06T13:13:12.778Z</time></trkpt><trkpt lat="44.7097421" lon="8.8810125"><ele>223.8</ele><time>2026-04-06T13:13:13.779Z</time></trkpt><trkpt lat="44.7096813" lon="8.8808818"><ele>223.4</ele><time>2026-04-06T13:13:14.779Z</time></trkpt><trkpt lat="44.7096231" lon="8.8807503"><ele>223.0</ele><time>2026-04-06T13:13:15.78Z</time></trkpt><trkpt lat="44.7095632" lon="8.8806157"><ele>223.60000000000002</ele><time>2026-04-06T13:13:16.779Z</time></trkpt><trkpt lat="44.7095048" lon="8.8804879"><ele>224.20000000000002</ele><time>2026-04-06T13:13:17.778Z</time></trkpt><trkpt lat="44.7094449" lon="8.8803549"><ele>224.8</ele><time>2026-04-06T13:13:18.78Z</time></trkpt><trkpt lat="44.7093879" lon="8.8802255"><ele>225.4</ele><time>2026-04-06T13:13:19.779Z</time></trkpt><trkpt lat="44.7093331" lon="8.8800984"><ele>226.0</ele><time>2026-04-06T13:13:20.778Z</time></trkpt><trkpt lat="44.7092733" lon="8.8799726"><ele>224.0</ele><time>2026-04-06T13:13:21.78Z</time></trkpt><trkpt lat="44.7092196" lon="8.8798499"><ele>222.00000000000003</ele><time>2026-04-06T13:13:22.779Z</time></trkpt><trkpt lat="44.7091677" lon="8.8797282"><ele>220.00000000000003</ele><time>2026-04-06T13:13:23.778Z</time></trkpt><trkpt lat="44.7091164" lon="8.879613"><ele>218.0</ele><time>2026-04-06T13:13:24.778Z</time></trkpt><trkpt lat="44.7090683" lon="8.8795015"><ele>216.0</ele><time>2026-04-06T13:13:25.779Z</time></trkpt><trkpt lat="44.7090211" lon="8.8793908"><ele>216.0</ele><time>2026-04-06T13:13:26.78Z</time></trkpt><trkpt lat="44.708972" lon="8.8792831"><ele>216.0</ele><time>2026-04-06T13:13:27.779Z</time></trkpt><trkpt lat="44.7089264" lon="8.8791761"><ele>216.0</ele><time>2026-04-06T13:13:28.779Z</time></trkpt><trkpt lat="44.7088783" lon="8.8790744"><ele>216.0</ele><time>2026-04-06T13:13:29.778Z</time></trkpt><trkpt lat="44.7088353" lon="8.8789724"><ele>216.0</ele><time>2026-04-06T13:13:30.778Z</time></trkpt><trkpt lat="44.7088209" lon="8.8788586"><ele>216.0</ele><time>2026-04-06T13:13:31.778Z</time></trkpt><trkpt lat="44.7088189" lon="8.8787449"><ele>216.0</ele><time>2026-04-06T13:13:32.779Z</time></trkpt><trkpt lat="44.7088363" lon="8.8786365"><ele>216.0</ele><time>2026-04-06T13:13:33.78Z</time></trkpt><trkpt lat="44.7088668" lon="8.8785335"><ele>216.0</ele><time>2026-04-06T13:13:34.779Z</time></trkpt><trkpt lat="44.7089095" lon="8.8784465"><ele>216.0</ele><time>2026-04-06T13:13:35.779Z</time></trkpt><trkpt lat="44.7089662" lon="8.8783692"><ele>216.0</ele><time>2026-04-06T13:13:36.779Z</time></trkpt><trkpt lat="44.7090229" lon="8.8783111"><ele>216.0</ele><time>2026-04-06T13:13:37.779Z</time></trkpt><trkpt lat="44.7090756" lon="8.8782469"><ele>216.0</ele><time>2026-04-06T13:13:38.779Z</time></trkpt><trkpt lat="44.7091289" lon="8.8781892"><ele>216.0</ele><time>2026-04-06T13:13:39.778Z</time></trkpt><trkpt lat="44.7091795" lon="8.878134"><ele>216.0</ele><time>2026-04-06T13:13:40.78Z</time></trkpt><trkpt lat="44.70923" lon="8.8780794"><ele>216.0</ele><time>2026-04-06T13:13:41.779Z</time></trkpt><trkpt lat="44.7093275" lon="8.8779784"><ele>216.0</ele><time>2026-04-06T13:13:43.779Z</time></trkpt><trkpt lat="44.7094209" lon="8.8778752"><ele>216.0</ele><time>2026-04-06T13:13:45.779Z</time></trkpt><trkpt lat="44.7095092" lon="8.8777791"><ele>216.5</ele><time>2026-04-06T13:13:47.779Z</time></trkpt><trkpt lat="44.7096031" lon="8.8776747"><ele>217.0</ele><time>2026-04-06T13:13:49.78Z</time></trkpt><trkpt lat="44.7096992" lon="8.877578"><ele>217.5</ele><time>2026-04-06T13:13:51.779Z</time></trkpt><trkpt lat="44.7097979" lon="8.8774877"><ele>218.0</ele><time>2026-04-06T13:13:53.779Z</time></trkpt><trkpt lat="44.7098917" lon="8.8774044"><ele>217.2</ele><time>2026-04-06T13:13:55.778Z</time></trkpt><trkpt lat="44.7099883" lon="8.8773271"><ele>216.4</ele><time>2026-04-06T13:13:57.78Z</time></trkpt><trkpt lat="44.7100874" lon="8.8772568"><ele>215.59999999999997</ele><time>2026-04-06T13:13:59.779Z</time></trkpt><trkpt lat="44.7101949" lon="8.8772015"><ele>214.79999999999998</ele><time>2026-04-06T13:14:01.779Z</time></trkpt><trkpt lat="44.7103031" lon="8.8771578"><ele>214.0</ele><time>2026-04-06T13:14:03.779Z</time></trkpt><trkpt lat="44.7104158" lon="8.8771116"><ele>212.5</ele><time>2026-04-06T13:14:05.779Z</time></trkpt><trkpt lat="44.7105252" lon="8.8770667"><ele>211.0</ele><time>2026-04-06T13:14:07.779Z</time></trkpt><trkpt lat="44.7106373" lon="8.877022"><ele>209.5</ele><time>2026-04-06T13:14:09.779Z</time></trkpt><trkpt lat="44.7107517" lon="8.8769777"><ele>208.0</ele><time>2026-04-06T13:14:11.78Z</time></trkpt><trkpt lat="44.7108644" lon="8.8769265"><ele>208.0</ele><time>2026-04-06T13:14:13.779Z</time></trkpt><trkpt lat="44.7109761" lon="8.876874"><ele>208.0</ele><time>2026-04-06T13:14:15.779Z</time></trkpt><trkpt lat="44.7110683" lon="8.8767812"><ele>208.0</ele><time>2026-04-06T13:14:17.778Z</time></trkpt><trkpt lat="44.7111077" lon="8.876642"><ele>208.0</ele><time>2026-04-06T13:14:19.779Z</time></trkpt><trkpt lat="44.7111224" lon="8.8764808"><ele>211.2</ele><time>2026-04-06T13:14:21.779Z</time></trkpt><trkpt lat="44.7111501" lon="8.8763214"><ele>214.4</ele><time>2026-04-06T13:14:23.779Z</time></trkpt><trkpt lat="44.7111707" lon="8.8761679"><ele>217.59999999999997</ele><time>2026-04-06T13:14:25.778Z</time></trkpt><trkpt lat="44.711186" lon="8.8760168"><ele>220.79999999999998</ele><time>2026-04-06T13:14:27.777Z</time></trkpt><trkpt lat="44.7112037" lon="8.8758677"><ele>224.0</ele><time>2026-04-06T13:14:29.777Z</time></trkpt><trkpt lat="44.7112212" lon="8.8757162"><ele>224.79999999999998</ele><time>2026-04-06T13:14:31.778Z</time></trkpt><trkpt lat="44.7112498" lon="8.8755718"><ele>225.59999999999997</ele><time>2026-04-06T13:14:33.78Z</time></trkpt><trkpt lat="44.71127" lon="8.8754201"><ele>226.4</ele><time>2026-04-06T13:14:35.78Z</time></trkpt><trkpt lat="44.7112832" lon="8.8752821"><ele>227.2</ele><time>2026-04-06T13:14:37.778Z</time></trkpt><trkpt lat="44.7112882" lon="8.8751361"><ele>228.0</ele><time>2026-04-06T13:14:39.78Z</time></trkpt><trkpt lat="44.711289" lon="8.8749841"><ele>228.8</ele><time>2026-04-06T13:14:41.779Z</time></trkpt><trkpt lat="44.7112894" lon="8.8748349"><ele>229.60000000000002</ele><time>2026-04-06T13:14:43.779Z</time></trkpt><trkpt lat="44.7112894" lon="8.8746833"><ele>230.39999999999998</ele><time>2026-04-06T13:14:45.779Z</time></trkpt><trkpt lat="44.7112806" lon="8.8745346"><ele>231.2</ele><time>2026-04-06T13:14:47.779Z</time></trkpt><trkpt lat="44.711264" lon="8.8743809"><ele>232.0</ele><time>2026-04-06T13:14:49.777Z</time></trkpt><trkpt lat="44.7112453" lon="8.87423"><ele>232.25</ele><time>2026-04-06T13:14:51.778Z</time></trkpt><trkpt lat="44.7112183" lon="8.8740769"><ele>232.5</ele><time>2026-04-06T13:14:53.778Z</time></trkpt><trkpt lat="44.7111918" lon="8.8739214"><ele>232.75</ele><time>2026-04-06T13:14:55.778Z</time></trkpt><trkpt lat="44.7111695" lon="8.8737624"><ele>233.0</ele><time>2026-04-06T13:14:57.778Z</time></trkpt><trkpt lat="44.7111524" lon="8.8736059"><ele>233.0</ele><time>2026-04-06T13:14:59.778Z</time></trkpt><trkpt lat="44.7111327" lon="8.8734447"><ele>233.0</ele><time>2026-04-06T13:15:01.78Z</time></trkpt><trkpt lat="44.7111216" lon="8.8732931"><ele>233.0</ele><time>2026-04-06T13:15:03.778Z</time></trkpt><trkpt lat="44.7111156" lon="8.8731381"><ele>233.0</ele><time>2026-04-06T13:15:05.779Z</time></trkpt><trkpt lat="44.7111039" lon="8.8729794"><ele>233.0</ele><time>2026-04-06T13:15:07.778Z</time></trkpt><trkpt lat="44.7110892" lon="8.8728242"><ele>233.60000000000002</ele><time>2026-04-06T13:15:09.778Z</time></trkpt><trkpt lat="44.7110762" lon="8.8726692"><ele>234.20000000000002</ele><time>2026-04-06T13:15:11.78Z</time></trkpt><trkpt lat="44.7110654" lon="8.8725136"><ele>234.8</ele><time>2026-04-06T13:15:13.779Z</time></trkpt><trkpt lat="44.7110617" lon="8.872366"><ele>235.4</ele><time>2026-04-06T13:15:15.778Z</time></trkpt><trkpt lat="44.71105" lon="8.8722151"><ele>236.0</ele><time>2026-04-06T13:15:17.779Z</time></trkpt><trkpt lat="44.7110516" lon="8.872064"><ele>238.0</ele><time>2026-04-06T13:15:19.779Z</time></trkpt><trkpt lat="44.71106" lon="8.8718984"><ele>240.0</ele><time>2026-04-06T13:15:21.778Z</time></trkpt><trkpt lat="44.7110852" lon="8.8717426"><ele>242.0</ele><time>2026-04-06T13:15:23.78Z</time></trkpt><trkpt lat="44.71112" lon="8.8715893"><ele>244.0</ele><time>2026-04-06T13:15:25.778Z</time></trkpt><trkpt lat="44.7111782" lon="8.8714464"><ele>244.0</ele><time>2026-04-06T13:15:27.779Z</time></trkpt><trkpt lat="44.7112455" lon="8.8713082"><ele>243.99999999999997</ele><time>2026-04-06T13:15:29.78Z</time></trkpt><trkpt lat="44.711322" lon="8.8711831"><ele>243.99999999999997</ele><time>2026-04-06T13:15:31.78Z</time></trkpt><trkpt lat="44.7113689" lon="8.871122"><ele>244.0</ele><time>2026-04-06T13:15:32.779Z</time></trkpt><trkpt lat="44.7114584" lon="8.8710085"><ele>244.0</ele><time>2026-04-06T13:15:34.779Z</time></trkpt><trkpt lat="44.7115647" lon="8.8709147"><ele>242.16666666666666</ele><time>2026-04-06T13:15:36.778Z</time></trkpt><trkpt lat="44.7116648" lon="8.870817"><ele>240.33333333333331</ele><time>2026-04-06T13:15:38.778Z</time></trkpt><trkpt lat="44.7117203" lon="8.8707654"><ele>238.5</ele><time>2026-04-06T13:15:39.78Z</time></trkpt><trkpt lat="44.7117764" lon="8.8707129"><ele>236.66666666666669</ele><time>2026-04-06T13:15:40.778Z</time></trkpt><trkpt lat="44.7118805" lon="8.8706109"><ele>234.83333333333334</ele><time>2026-04-06T13:15:42.779Z</time></trkpt><trkpt lat="44.7119326" lon="8.8705537"><ele>233.0</ele><time>2026-04-06T13:15:43.778Z</time></trkpt><trkpt lat="44.7120293" lon="8.8704538"><ele>233.0</ele><time>2026-04-06T13:15:45.778Z</time></trkpt><trkpt lat="44.7121193" lon="8.8703321"><ele>233.0</ele><time>2026-04-06T13:15:47.78Z</time></trkpt><trkpt lat="44.7121885" lon="8.8701915"><ele>233.0</ele><time>2026-04-06T13:15:49.779Z</time></trkpt><trkpt lat="44.7122493" lon="8.8700545"><ele>233.0</ele><time>2026-04-06T13:15:51.779Z</time></trkpt><trkpt lat="44.7123043" lon="8.8699035"><ele>231.25</ele><time>2026-04-06T13:15:53.778Z</time></trkpt><trkpt lat="44.7123595" lon="8.8697588"><ele>229.5</ele><time>2026-04-06T13:15:55.779Z</time></trkpt><trkpt lat="44.7124107" lon="8.8696092"><ele>227.75</ele><time>2026-04-06T13:15:57.778Z</time></trkpt><trkpt lat="44.7124748" lon="8.8694642"><ele>226.0</ele><time>2026-04-06T13:15:59.78Z</time></trkpt><trkpt lat="44.7125408" lon="8.8693222"><ele>225.33333333333331</ele><time>2026-04-06T13:16:01.778Z</time></trkpt><trkpt lat="44.7126233" lon="8.8691869"><ele>224.66666666666666</ele><time>2026-04-06T13:16:03.779Z</time></trkpt><trkpt lat="44.712669" lon="8.869119"><ele>224.0</ele><time>2026-04-06T13:16:04.779Z</time></trkpt><trkpt lat="44.7127134" lon="8.8690521"><ele>223.33333333333331</ele><time>2026-04-06T13:16:05.779Z</time></trkpt><trkpt lat="44.7127623" lon="8.868996"><ele>222.66666666666666</ele><time>2026-04-06T13:16:06.779Z</time></trkpt><trkpt lat="44.7128104" lon="8.8689343"><ele>222.0</ele><time>2026-04-06T13:16:07.779Z</time></trkpt><trkpt lat="44.7128591" lon="8.8688699"><ele>222.71428571428572</ele><time>2026-04-06T13:16:08.778Z</time></trkpt><trkpt lat="44.712905" lon="8.8688081"><ele>223.42857142857144</ele><time>2026-04-06T13:16:09.778Z</time></trkpt><trkpt lat="44.7129524" lon="8.8687448"><ele>224.14285714285717</ele><time>2026-04-06T13:16:10.779Z</time></trkpt><trkpt lat="44.7130003" lon="8.8686799"><ele>224.85714285714286</ele><time>2026-04-06T13:16:11.778Z</time></trkpt><trkpt lat="44.7130499" lon="8.8686199"><ele>225.5714285714286</ele><time>2026-04-06T13:16:12.779Z</time></trkpt><trkpt lat="44.713099" lon="8.8685596"><ele>226.2857142857143</ele><time>2026-04-06T13:16:13.779Z</time></trkpt><trkpt lat="44.7131492" lon="8.8684982"><ele>227.0</ele><time>2026-04-06T13:16:14.779Z</time></trkpt><trkpt lat="44.713195" lon="8.8684292"><ele>227.00000000000003</ele><time>2026-04-06T13:16:15.779Z</time></trkpt><trkpt lat="44.7132378" lon="8.8683554"><ele>227.0</ele><time>2026-04-06T13:16:16.779Z</time></trkpt><trkpt lat="44.7132757" lon="8.8682779"><ele>227.0</ele><time>2026-04-06T13:16:17.778Z</time></trkpt><trkpt lat="44.713316" lon="8.8682063"><ele>227.0</ele><time>2026-04-06T13:16:18.779Z</time></trkpt><trkpt lat="44.7133529" lon="8.8681331"><ele>227.00000000000003</ele><time>2026-04-06T13:16:19.778Z</time></trkpt><trkpt lat="44.7134276" lon="8.8679854"><ele>227.0</ele><time>2026-04-06T13:16:21.779Z</time></trkpt><trkpt lat="44.7135003" lon="8.8678398"><ele>227.75</ele><time>2026-04-06T13:16:23.778Z</time></trkpt><trkpt lat="44.7135787" lon="8.8677103"><ele>228.5</ele><time>2026-04-06T13:16:25.778Z</time></trkpt><trkpt lat="44.7136541" lon="8.8675826"><ele>229.25</ele><time>2026-04-06T13:16:27.779Z</time></trkpt><trkpt lat="44.7137351" lon="8.8674638"><ele>230.0</ele><time>2026-04-06T13:16:29.779Z</time></trkpt><trkpt lat="44.7138267" lon="8.8673543"><ele>230.00000000000003</ele><time>2026-04-06T13:16:31.779Z</time></trkpt><trkpt lat="44.713873" lon="8.8672922"><ele>230.0</ele><time>2026-04-06T13:16:32.779Z</time></trkpt><trkpt lat="44.7139195" lon="8.8672312"><ele>230.0</ele><time>2026-04-06T13:16:33.779Z</time></trkpt><trkpt lat="44.7139715" lon="8.8671771"><ele>230.0</ele><time>2026-04-06T13:16:34.78Z</time></trkpt><trkpt lat="44.7140752" lon="8.8670997"><ele>230.00000000000003</ele><time>2026-04-06T13:16:36.778Z</time></trkpt><trkpt lat="44.7141868" lon="8.86704"><ele>230.0</ele><time>2026-04-06T13:16:38.778Z</time></trkpt><trkpt lat="44.7142875" lon="8.8669852"><ele>230.0</ele><time>2026-04-06T13:16:40.779Z</time></trkpt><trkpt lat="44.7143953" lon="8.866941"><ele>230.0</ele><time>2026-04-06T13:16:42.777Z</time></trkpt><trkpt lat="44.7145048" lon="8.8669037"><ele>230.0</ele><time>2026-04-06T13:16:44.779Z</time></trkpt><trkpt lat="44.7146078" lon="8.8668667"><ele>230.0</ele><time>2026-04-06T13:16:46.779Z</time></trkpt><trkpt lat="44.7147125" lon="8.8668349"><ele>230.0</ele><time>2026-04-06T13:16:48.78Z</time></trkpt><trkpt lat="44.714817" lon="8.8667976"><ele>229.4</ele><time>2026-04-06T13:16:50.778Z</time></trkpt><trkpt lat="44.7149219" lon="8.8667594"><ele>228.8</ele><time>2026-04-06T13:16:52.778Z</time></trkpt><trkpt lat="44.7150294" lon="8.8667341"><ele>228.2</ele><time>2026-04-06T13:16:54.779Z</time></trkpt><trkpt lat="44.7151354" lon="8.8667284"><ele>227.6</ele><time>2026-04-06T13:16:56.78Z</time></trkpt><trkpt lat="44.7152451" lon="8.8667304"><ele>227.0</ele><time>2026-04-06T13:16:58.779Z</time></trkpt><trkpt lat="44.7153585" lon="8.8667213"><ele>226.5</ele><time>2026-04-06T13:17:00.777Z</time></trkpt><trkpt lat="44.715471" lon="8.8667128"><ele>226.0</ele><time>2026-04-06T13:17:02.778Z</time></trkpt><trkpt lat="44.7155894" lon="8.8666849"><ele>225.5</ele><time>2026-04-06T13:17:04.779Z</time></trkpt><trkpt lat="44.715706" lon="8.8666364"><ele>225.0</ele><time>2026-04-06T13:17:06.779Z</time></trkpt><trkpt lat="44.7158199" lon="8.8665973"><ele>225.0</ele><time>2026-04-06T13:17:08.778Z</time></trkpt><trkpt lat="44.7159336" lon="8.8665571"><ele>225.0</ele><time>2026-04-06T13:17:10.78Z</time></trkpt><trkpt lat="44.7160373" lon="8.8665201"><ele>225.0</ele><time>2026-04-06T13:17:12.779Z</time></trkpt><trkpt lat="44.7161405" lon="8.8664811"><ele>225.0</ele><time>2026-04-06T13:17:14.778Z</time></trkpt><trkpt lat="44.7162585" lon="8.8664441"><ele>225.0</ele><time>2026-04-06T13:17:16.78Z</time></trkpt><trkpt lat="44.7163751" lon="8.8664077"><ele>225.0</ele><time>2026-04-06T13:17:18.778Z</time></trkpt><trkpt lat="44.7164925" lon="8.8663858"><ele>225.0</ele><time>2026-04-06T13:17:20.778Z</time></trkpt><trkpt lat="44.7166097" lon="8.8663537"><ele>225.0</ele><time>2026-04-06T13:17:22.779Z</time></trkpt><trkpt lat="44.7167263" lon="8.8663302"><ele>225.0</ele><time>2026-04-06T13:17:24.778Z</time></trkpt><trkpt lat="44.7168467" lon="8.8663119"><ele>225.0</ele><time>2026-04-06T13:17:26.777Z</time></trkpt><trkpt lat="44.7169097" lon="8.8663013"><ele>225.0</ele><time>2026-04-06T13:17:27.778Z</time></trkpt><trkpt lat="44.7170287" lon="8.8662735"><ele>225.0</ele><time>2026-04-06T13:17:29.778Z</time></trkpt><trkpt lat="44.7171389" lon="8.8662405"><ele>225.0</ele><time>2026-04-06T13:17:31.778Z</time></trkpt><trkpt lat="44.7172541" lon="8.8662038"><ele>225.0</ele><time>2026-04-06T13:17:33.777Z</time></trkpt><trkpt lat="44.7173672" lon="8.8661493"><ele>225.0</ele><time>2026-04-06T13:17:35.779Z</time></trkpt><trkpt lat="44.717478" lon="8.866072"><ele>225.0</ele><time>2026-04-06T13:17:37.778Z</time></trkpt><trkpt lat="44.7175868" lon="8.8659822"><ele>225.0</ele><time>2026-04-06T13:17:39.779Z</time></trkpt><trkpt lat="44.717687" lon="8.8658748"><ele>224.25</ele><time>2026-04-06T13:17:41.778Z</time></trkpt><trkpt lat="44.7177841" lon="8.8657712"><ele>223.5</ele><time>2026-04-06T13:17:43.778Z</time></trkpt><trkpt lat="44.7178786" lon="8.8656852"><ele>222.75</ele><time>2026-04-06T13:17:45.778Z</time></trkpt><trkpt lat="44.7179953" lon="8.865637"><ele>222.0</ele><time>2026-04-06T13:17:47.779Z</time></trkpt><trkpt lat="44.718116" lon="8.8656483"><ele>222.0</ele><time>2026-04-06T13:17:49.778Z</time></trkpt><trkpt lat="44.7182369" lon="8.8656771"><ele>222.0</ele><time>2026-04-06T13:17:51.78Z</time></trkpt><trkpt lat="44.7183556" lon="8.865704"><ele>222.0</ele><time>2026-04-06T13:17:53.778Z</time></trkpt><trkpt lat="44.7184737" lon="8.8657329"><ele>222.0</ele><time>2026-04-06T13:17:55.777Z</time></trkpt><trkpt lat="44.7185818" lon="8.8657682"><ele>222.25</ele><time>2026-04-06T13:17:57.778Z</time></trkpt><trkpt lat="44.7186938" lon="8.8657963"><ele>222.5</ele><time>2026-04-06T13:17:59.778Z</time></trkpt><trkpt lat="44.7188113" lon="8.8658363"><ele>222.75</ele><time>2026-04-06T13:18:01.778Z</time></trkpt><trkpt lat="44.718923" lon="8.865866"><ele>223.0</ele><time>2026-04-06T13:18:03.78Z</time></trkpt><trkpt lat="44.7190412" lon="8.8658948"><ele>223.0</ele><time>2026-04-06T13:18:05.778Z</time></trkpt><trkpt lat="44.719153" lon="8.8659255"><ele>223.0</ele><time>2026-04-06T13:18:07.779Z</time></trkpt><trkpt lat="44.7192598" lon="8.8659649"><ele>223.0</ele><time>2026-04-06T13:18:09.78Z</time></trkpt><trkpt lat="44.7193701" lon="8.8660069"><ele>223.0</ele><time>2026-04-06T13:18:11.78Z</time></trkpt><trkpt lat="44.7194769" lon="8.8660458"><ele>223.0</ele><time>2026-04-06T13:18:13.778Z</time></trkpt><trkpt lat="44.7195915" lon="8.8660887"><ele>223.25</ele><time>2026-04-06T13:18:15.778Z</time></trkpt><trkpt lat="44.7196939" lon="8.8661285"><ele>223.5</ele><time>2026-04-06T13:18:17.778Z</time></trkpt><trkpt lat="44.7198069" lon="8.8661665"><ele>223.75</ele><time>2026-04-06T13:18:19.778Z</time></trkpt><trkpt lat="44.7199203" lon="8.8662185"><ele>224.0</ele><time>2026-04-06T13:18:21.778Z</time></trkpt><trkpt lat="44.7200337" lon="8.866252"><ele>224.0</ele><time>2026-04-06T13:18:23.779Z</time></trkpt><trkpt lat="44.7201412" lon="8.8662688"><ele>223.99999999999997</ele><time>2026-04-06T13:18:25.778Z</time></trkpt><trkpt lat="44.7202542" lon="8.8662716"><ele>223.99999999999997</ele><time>2026-04-06T13:18:27.777Z</time></trkpt><trkpt lat="44.7203622" lon="8.8662713"><ele>224.0</ele><time>2026-04-06T13:18:29.778Z</time></trkpt><trkpt lat="44.7204759" lon="8.8662754"><ele>224.0</ele><time>2026-04-06T13:18:31.778Z</time></trkpt><trkpt lat="44.7205966" lon="8.866291"><ele>224.5</ele><time>2026-04-06T13:18:33.779Z</time></trkpt><trkpt lat="44.7207159" lon="8.8663131"><ele>225.0</ele><time>2026-04-06T13:18:35.78Z</time></trkpt><trkpt lat="44.7208307" lon="8.866341"><ele>225.5</ele><time>2026-04-06T13:18:37.777Z</time></trkpt><trkpt lat="44.720946" lon="8.8663641"><ele>226.0</ele><time>2026-04-06T13:18:39.779Z</time></trkpt><trkpt lat="44.7210581" lon="8.866399"><ele>225.4</ele><time>2026-04-06T13:18:41.778Z</time></trkpt><trkpt lat="44.7211681" lon="8.8664345"><ele>224.8</ele><time>2026-04-06T13:18:43.779Z</time></trkpt><trkpt lat="44.7212753" lon="8.8664688"><ele>224.20000000000002</ele><time>2026-04-06T13:18:45.777Z</time></trkpt><trkpt lat="44.7213747" lon="8.8664849"><ele>223.60000000000002</ele><time>2026-04-06T13:18:47.777Z</time></trkpt><trkpt lat="44.7214751" lon="8.8664954"><ele>223.0</ele><time>2026-04-06T13:18:49.778Z</time></trkpt><trkpt lat="44.7215738" lon="8.8665026"><ele>223.0</ele><time>2026-04-06T13:18:51.778Z</time></trkpt><trkpt lat="44.7216833" lon="8.866511"><ele>223.0</ele><time>2026-04-06T13:18:53.778Z</time></trkpt><trkpt lat="44.721789" lon="8.8665202"><ele>223.0</ele><time>2026-04-06T13:18:55.778Z</time></trkpt><trkpt lat="44.7218862" lon="8.8665498"><ele>223.0</ele><time>2026-04-06T13:18:57.78Z</time></trkpt><trkpt lat="44.7219826" lon="8.8665758"><ele>223.0</ele><time>2026-04-06T13:18:59.779Z</time></trkpt><trkpt lat="44.7220692" lon="8.8666013"><ele>222.8</ele><time>2026-04-06T13:19:01.779Z</time></trkpt><trkpt lat="44.7221574" lon="8.8666355"><ele>222.60000000000002</ele><time>2026-04-06T13:19:03.778Z</time></trkpt><trkpt lat="44.7222567" lon="8.8666708"><ele>222.39999999999998</ele><time>2026-04-06T13:19:05.777Z</time></trkpt><trkpt lat="44.722352" lon="8.866707"><ele>222.2</ele><time>2026-04-06T13:19:07.78Z</time></trkpt><trkpt lat="44.7224456" lon="8.8667406"><ele>222.0</ele><time>2026-04-06T13:19:09.779Z</time></trkpt><trkpt lat="44.7225329" lon="8.8667714"><ele>222.0</ele><time>2026-04-06T13:19:11.779Z</time></trkpt><trkpt lat="44.7226134" lon="8.866813"><ele>222.0</ele><time>2026-04-06T13:19:13.778Z</time></trkpt><trkpt lat="44.7226988" lon="8.8668665"><ele>222.0</ele><time>2026-04-06T13:19:15.777Z</time></trkpt><trkpt lat="44.7227806" lon="8.8669422"><ele>222.0</ele><time>2026-04-06T13:19:17.779Z</time></trkpt><trkpt lat="44.7228712" lon="8.867023"><ele>222.0</ele><time>2026-04-06T13:19:19.778Z</time></trkpt><trkpt lat="44.7229723" lon="8.8670941"><ele>222.25</ele><time>2026-04-06T13:19:21.779Z</time></trkpt><trkpt lat="44.7230811" lon="8.8671364"><ele>222.5</ele><time>2026-04-06T13:19:23.779Z</time></trkpt><trkpt lat="44.7231957" lon="8.8671756"><ele>222.75</ele><time>2026-04-06T13:19:25.778Z</time></trkpt><trkpt lat="44.7233057" lon="8.867211"><ele>223.0</ele><time>2026-04-06T13:19:27.78Z</time></trkpt><trkpt lat="44.7234215" lon="8.8672478"><ele>223.0</ele><time>2026-04-06T13:19:29.779Z</time></trkpt><trkpt lat="44.7235382" lon="8.8672847"><ele>223.0</ele><time>2026-04-06T13:19:31.777Z</time></trkpt><trkpt lat="44.7236576" lon="8.8673235"><ele>223.0</ele><time>2026-04-06T13:19:33.78Z</time></trkpt><trkpt lat="44.7237706" lon="8.8673721"><ele>223.0</ele><time>2026-04-06T13:19:35.777Z</time></trkpt><trkpt lat="44.7238898" lon="8.8674046"><ele>222.8</ele><time>2026-04-06T13:19:37.779Z</time></trkpt><trkpt lat="44.7240026" lon="8.8674413"><ele>222.60000000000002</ele><time>2026-04-06T13:19:39.778Z</time></trkpt><trkpt lat="44.724115" lon="8.8674758"><ele>222.39999999999998</ele><time>2026-04-06T13:19:41.78Z</time></trkpt><trkpt lat="44.7242201" lon="8.8675088"><ele>222.2</ele><time>2026-04-06T13:19:43.778Z</time></trkpt><trkpt lat="44.7243208" lon="8.8675469"><ele>222.0</ele><time>2026-04-06T13:19:45.779Z</time></trkpt><trkpt lat="44.7244274" lon="8.8676077"><ele>223.0</ele><time>2026-04-06T13:19:47.779Z</time></trkpt><trkpt lat="44.7245293" lon="8.8676879"><ele>224.0</ele><time>2026-04-06T13:19:49.778Z</time></trkpt><trkpt lat="44.7246268" lon="8.8677818"><ele>225.0</ele><time>2026-04-06T13:19:51.78Z</time></trkpt><trkpt lat="44.7247118" lon="8.867881"><ele>226.0</ele><time>2026-04-06T13:19:53.778Z</time></trkpt><trkpt lat="44.72479" lon="8.8679778"><ele>227.0</ele><time>2026-04-06T13:19:55.778Z</time></trkpt><trkpt lat="44.7248681" lon="8.8680772"><ele>227.0</ele><time>2026-04-06T13:19:57.779Z</time></trkpt><trkpt lat="44.7249481" lon="8.8681807"><ele>227.0</ele><time>2026-04-06T13:19:59.779Z</time></trkpt><trkpt lat="44.7250301" lon="8.868263"><ele>227.0</ele><time>2026-04-06T13:20:01.779Z</time></trkpt><trkpt lat="44.7251148" lon="8.8683224"><ele>227.0</ele><time>2026-04-06T13:20:03.778Z</time></trkpt><trkpt lat="44.7252025" lon="8.8683537"><ele>227.0</ele><time>2026-04-06T13:20:05.778Z</time></trkpt><trkpt lat="44.725301" lon="8.8683475"><ele>227.2</ele><time>2026-04-06T13:20:07.779Z</time></trkpt><trkpt lat="44.7253977" lon="8.8683317"><ele>227.39999999999998</ele><time>2026-04-06T13:20:09.779Z</time></trkpt><trkpt lat="44.725496" lon="8.8683161"><ele>227.60000000000002</ele><time>2026-04-06T13:20:11.778Z</time></trkpt><trkpt lat="44.7255891" lon="8.8683011"><ele>227.8</ele><time>2026-04-06T13:20:13.778Z</time></trkpt><trkpt lat="44.725688" lon="8.8682915"><ele>228.0</ele><time>2026-04-06T13:20:15.778Z</time></trkpt><trkpt lat="44.7257894" lon="8.86828"><ele>228.0</ele><time>2026-04-06T13:20:17.778Z</time></trkpt><trkpt lat="44.7258862" lon="8.8682659"><ele>228.0</ele><time>2026-04-06T13:20:19.778Z</time></trkpt><trkpt lat="44.7259814" lon="8.8682475"><ele>228.0</ele><time>2026-04-06T13:20:21.779Z</time></trkpt><trkpt lat="44.7260778" lon="8.868234"><ele>228.0</ele><time>2026-04-06T13:20:23.778Z</time></trkpt><trkpt lat="44.7261686" lon="8.8682249"><ele>228.0</ele><time>2026-04-06T13:20:25.777Z</time></trkpt><trkpt lat="44.7262676" lon="8.8682141"><ele>227.8</ele><time>2026-04-06T13:20:27.78Z</time></trkpt><trkpt lat="44.7263735" lon="8.8681948"><ele>227.60000000000002</ele><time>2026-04-06T13:20:29.78Z</time></trkpt><trkpt lat="44.7264731" lon="8.8681824"><ele>227.39999999999998</ele><time>2026-04-06T13:20:31.778Z</time></trkpt><trkpt lat="44.7265745" lon="8.8681734"><ele>227.2</ele><time>2026-04-06T13:20:33.778Z</time></trkpt><trkpt lat="44.7266718" lon="8.8681622"><ele>227.0</ele><time>2026-04-06T13:20:35.779Z</time></trkpt><trkpt lat="44.726761" lon="8.868148"><ele>227.0</ele><time>2026-04-06T13:20:37.778Z</time></trkpt><trkpt lat="44.7268426" lon="8.8681723"><ele>227.0</ele><time>2026-04-06T13:20:39.778Z</time></trkpt><trkpt lat="44.7269235" lon="8.8682351"><ele>227.0</ele><time>2026-04-06T13:20:41.78Z</time></trkpt><trkpt lat="44.7269516" lon="8.8683824"><ele>227.0</ele><time>2026-04-06T13:20:43.778Z</time></trkpt><trkpt lat="44.726974" lon="8.8685306"><ele>227.0</ele><time>2026-04-06T13:20:45.778Z</time></trkpt><trkpt lat="44.7270037" lon="8.8686559"><ele>226.16666666666669</ele><time>2026-04-06T13:20:47.778Z</time></trkpt><trkpt lat="44.7270329" lon="8.8687627"><ele>225.33333333333334</ele><time>2026-04-06T13:20:49.777Z</time></trkpt><trkpt lat="44.7270595" lon="8.8688433"><ele>224.5</ele><time>2026-04-06T13:20:51.779Z</time></trkpt><trkpt lat="44.7270784" lon="8.8689381"><ele>223.66666666666669</ele><time>2026-04-06T13:20:53.778Z</time></trkpt><trkpt lat="44.7270911" lon="8.8690338"><ele>222.83333333333334</ele><time>2026-04-06T13:20:55.779Z</time></trkpt><trkpt lat="44.7270898" lon="8.8691463"><ele>222.0</ele><time>2026-04-06T13:20:57.779Z</time></trkpt><trkpt lat="44.7270975" lon="8.869267"><ele>221.83333333333334</ele><time>2026-04-06T13:20:59.778Z</time></trkpt><trkpt lat="44.7270993" lon="8.8693768"><ele>221.66666666666669</ele><time>2026-04-06T13:21:01.778Z</time></trkpt><trkpt lat="44.7270814" lon="8.8694696"><ele>221.5</ele><time>2026-04-06T13:21:03.779Z</time></trkpt><trkpt lat="44.7270572" lon="8.8695867"><ele>221.33333333333334</ele><time>2026-04-06T13:21:05.778Z</time></trkpt><trkpt lat="44.7270255" lon="8.8696933"><ele>221.16666666666669</ele><time>2026-04-06T13:21:07.778Z</time></trkpt><trkpt lat="44.7269717" lon="8.8697879"><ele>221.0</ele><time>2026-04-06T13:21:09.778Z</time></trkpt><trkpt lat="44.726901" lon="8.8698582"><ele>221.66666666666669</ele><time>2026-04-06T13:21:11.777Z</time></trkpt><trkpt lat="44.7268285" lon="8.8699227"><ele>222.33333333333334</ele><time>2026-04-06T13:21:13.779Z</time></trkpt><trkpt lat="44.7267317" lon="8.8699703"><ele>223.0</ele><time>2026-04-06T13:21:15.778Z</time></trkpt><trkpt lat="44.7266436" lon="8.8699858"><ele>223.66666666666669</ele><time>2026-04-06T13:21:17.779Z</time></trkpt><trkpt lat="44.7265556" lon="8.8699791"><ele>224.33333333333334</ele><time>2026-04-06T13:21:19.779Z</time></trkpt><trkpt lat="44.726478" lon="8.8699733"><ele>225.0</ele><time>2026-04-06T13:21:21.778Z</time></trkpt><trkpt lat="44.7264011" lon="8.8699754"><ele>225.0</ele><time>2026-04-06T13:21:23.777Z</time></trkpt><trkpt lat="44.726328" lon="8.8700014"><ele>225.0</ele><time>2026-04-06T13:21:25.778Z</time></trkpt><trkpt lat="44.7262659" lon="8.8700574"><ele>225.0</ele><time>2026-04-06T13:21:27.777Z</time></trkpt><trkpt lat="44.7262029" lon="8.8701164"><ele>225.0</ele><time>2026-04-06T13:21:29.779Z</time></trkpt><trkpt lat="44.7261489" lon="8.8701882"><ele>225.0</ele><time>2026-04-06T13:21:31.779Z</time></trkpt><trkpt lat="44.7261056" lon="8.8702752"><ele>225.0</ele><time>2026-04-06T13:21:33.778Z</time></trkpt><trkpt lat="44.7260733" lon="8.8703883"><ele>225.16666666666666</ele><time>2026-04-06T13:21:35.777Z</time></trkpt><trkpt lat="44.7260792" lon="8.8705323"><ele>225.33333333333331</ele><time>2026-04-06T13:21:37.777Z</time></trkpt><trkpt lat="44.7261023" lon="8.8706639"><ele>225.5</ele><time>2026-04-06T13:21:39.779Z</time></trkpt><trkpt lat="44.726137" lon="8.8707793"><ele>225.66666666666666</ele><time>2026-04-06T13:21:41.777Z</time></trkpt><trkpt lat="44.7261487" lon="8.8708815"><ele>225.83333333333331</ele><time>2026-04-06T13:21:43.778Z</time></trkpt><trkpt lat="44.7261576" lon="8.8709954"><ele>226.0</ele><time>2026-04-06T13:21:45.777Z</time></trkpt><trkpt lat="44.7261647" lon="8.871107"><ele>225.99999999999997</ele><time>2026-04-06T13:21:47.779Z</time></trkpt><trkpt lat="44.7261797" lon="8.8712132"><ele>226.0</ele><time>2026-04-06T13:21:49.779Z</time></trkpt><trkpt lat="44.7262154" lon="8.8713122"><ele>226.0</ele><time>2026-04-06T13:21:51.778Z</time></trkpt><trkpt lat="44.7262647" lon="8.8714017"><ele>226.0</ele><time>2026-04-06T13:21:53.777Z</time></trkpt><trkpt lat="44.726308" lon="8.8714908"><ele>225.99999999999997</ele><time>2026-04-06T13:21:55.779Z</time></trkpt><trkpt lat="44.7263301" lon="8.8715919"><ele>226.0</ele><time>2026-04-06T13:21:57.779Z</time></trkpt><trkpt lat="44.726339" lon="8.8716991"><ele>226.99999999999997</ele><time>2026-04-06T13:21:59.779Z</time></trkpt><trkpt lat="44.7263345" lon="8.8718051"><ele>228.0</ele><time>2026-04-06T13:22:01.778Z</time></trkpt><trkpt lat="44.7263047" lon="8.871904"><ele>229.0</ele><time>2026-04-06T13:22:03.777Z</time></trkpt><trkpt lat="44.7262587" lon="8.8719944"><ele>230.0</ele><time>2026-04-06T13:22:05.778Z</time></trkpt><trkpt lat="44.7262053" lon="8.8720771"><ele>230.99999999999997</ele><time>2026-04-06T13:22:07.779Z</time></trkpt><trkpt lat="44.7261636" lon="8.8721717"><ele>232.0</ele><time>2026-04-06T13:22:09.778Z</time></trkpt><trkpt lat="44.726129" lon="8.8722684"><ele>232.00000000000003</ele><time>2026-04-06T13:22:11.778Z</time></trkpt><trkpt lat="44.7260784" lon="8.8723419"><ele>232.0</ele><time>2026-04-06T13:22:13.777Z</time></trkpt><trkpt lat="44.7260416" lon="8.8724241"><ele>232.00000000000003</ele><time>2026-04-06T13:22:15.777Z</time></trkpt><trkpt lat="44.7260125" lon="8.8725115"><ele>232.00000000000003</ele><time>2026-04-06T13:22:17.778Z</time></trkpt><trkpt lat="44.725991" lon="8.8726059"><ele>232.0</ele><time>2026-04-06T13:22:19.778Z</time></trkpt><trkpt lat="44.7259759" lon="8.8727029"><ele>232.00000000000003</ele><time>2026-04-06T13:22:21.778Z</time></trkpt><trkpt lat="44.7259643" lon="8.8728058"><ele>232.00000000000003</ele><time>2026-04-06T13:22:23.779Z</time></trkpt><trkpt lat="44.7259443" lon="8.8728996"><ele>233.8571428571429</ele><time>2026-04-06T13:22:25.778Z</time></trkpt><trkpt lat="44.7259262" lon="8.8729914"><ele>235.71428571428572</ele><time>2026-04-06T13:22:27.777Z</time></trkpt><trkpt lat="44.725906" lon="8.8731221"><ele>237.57142857142858</ele><time>2026-04-06T13:22:30.778Z</time></trkpt><trkpt lat="44.7258927" lon="8.8732131"><ele>239.42857142857144</ele><time>2026-04-06T13:22:32.778Z</time></trkpt><trkpt lat="44.7258741" lon="8.8733018"><ele>241.28571428571428</ele><time>2026-04-06T13:22:34.778Z</time></trkpt><trkpt lat="44.7258561" lon="8.8733982"><ele>243.14285714285714</ele><time>2026-04-06T13:22:36.778Z</time></trkpt><trkpt lat="44.7258421" lon="8.8735035"><ele>245.0</ele><time>2026-04-06T13:22:38.778Z</time></trkpt><trkpt lat="44.7258235" lon="8.8736024"><ele>245.57142857142856</ele><time>2026-04-06T13:22:40.778Z</time></trkpt><trkpt lat="44.7258031" lon="8.8736981"><ele>246.14285714285714</ele><time>2026-04-06T13:22:42.778Z</time></trkpt><trkpt lat="44.7257892" lon="8.8737921"><ele>246.71428571428572</ele><time>2026-04-06T13:22:44.778Z</time></trkpt><trkpt lat="44.7257747" lon="8.873891"><ele>247.28571428571428</ele><time>2026-04-06T13:22:46.778Z</time></trkpt><trkpt lat="44.7257596" lon="8.8739856"><ele>247.85714285714283</ele><time>2026-04-06T13:22:48.778Z</time></trkpt><trkpt lat="44.7257473" lon="8.8740811"><ele>248.42857142857142</ele><time>2026-04-06T13:22:50.778Z</time></trkpt><trkpt lat="44.7257331" lon="8.8741727"><ele>249.0</ele><time>2026-04-06T13:22:52.777Z</time></trkpt><trkpt lat="44.7257153" lon="8.8742625"><ele>250.0</ele><time>2026-04-06T13:22:54.778Z</time></trkpt><trkpt lat="44.7256976" lon="8.8743478"><ele>251.0</ele><time>2026-04-06T13:22:56.777Z</time></trkpt><trkpt lat="44.7256695" lon="8.8744686"><ele>252.0</ele><time>2026-04-06T13:22:59.778Z</time></trkpt><trkpt lat="44.7256387" lon="8.8745876"><ele>253.0</ele><time>2026-04-06T13:23:02.779Z</time></trkpt><trkpt lat="44.7256035" lon="8.8747042"><ele>254.0</ele><time>2026-04-06T13:23:05.778Z</time></trkpt><trkpt lat="44.725567" lon="8.8748251"><ele>255.0</ele><time>2026-04-06T13:23:08.778Z</time></trkpt><trkpt lat="44.7255399" lon="8.874939"><ele>255.0</ele><time>2026-04-06T13:23:11.778Z</time></trkpt><trkpt lat="44.7255113" lon="8.8750471"><ele>255.0</ele><time>2026-04-06T13:23:14.777Z</time></trkpt><trkpt lat="44.7254759" lon="8.8751516"><ele>255.0</ele><time>2026-04-06T13:23:17.779Z</time></trkpt><trkpt lat="44.7254457" lon="8.8752542"><ele>255.0</ele><time>2026-04-06T13:23:20.778Z</time></trkpt><trkpt lat="44.7254178" lon="8.8753592"><ele>255.0</ele><time>2026-04-06T13:23:23.777Z</time></trkpt><trkpt lat="44.7253846" lon="8.8754669"><ele>255.0</ele><time>2026-04-06T13:23:26.777Z</time></trkpt><trkpt lat="44.725344" lon="8.8755699"><ele>256.0</ele><time>2026-04-06T13:23:29.778Z</time></trkpt><trkpt lat="44.7253047" lon="8.8756718"><ele>257.0</ele><time>2026-04-06T13:23:32.777Z</time></trkpt><trkpt lat="44.7252858" lon="8.8757658"><ele>258.0</ele><time>2026-04-06T13:23:35.778Z</time></trkpt><trkpt lat="44.7252702" lon="8.8758529"><ele>259.0</ele><time>2026-04-06T13:23:38.777Z</time></trkpt><trkpt lat="44.7252614" lon="8.8759467"><ele>260.0</ele><time>2026-04-06T13:23:41.778Z</time></trkpt><trkpt lat="44.7252448" lon="8.8760393"><ele>261.0</ele><time>2026-04-06T13:23:44.778Z</time></trkpt><trkpt lat="44.7252248" lon="8.8761338"><ele>262.0</ele><time>2026-04-06T13:23:47.777Z</time></trkpt><trkpt lat="44.7251969" lon="8.8762186"><ele>262.7142857142857</ele><time>2026-04-06T13:23:50.778Z</time></trkpt><trkpt lat="44.7251767" lon="8.8763103"><ele>263.42857142857144</ele><time>2026-04-06T13:23:53.777Z</time></trkpt><trkpt lat="44.7251557" lon="8.8764024"><ele>264.14285714285717</ele><time>2026-04-06T13:23:56.779Z</time></trkpt><trkpt lat="44.7251353" lon="8.8764881"><ele>264.8571428571429</ele><time>2026-04-06T13:23:59.778Z</time></trkpt><trkpt lat="44.7251072" lon="8.876573"><ele>265.57142857142856</ele><time>2026-04-06T13:24:02.778Z</time></trkpt><trkpt lat="44.7250771" lon="8.8766624"><ele>266.28571428571433</ele><time>2026-04-06T13:24:05.776Z</time></trkpt><trkpt lat="44.7250558" lon="8.8767568"><ele>267.0</ele><time>2026-04-06T13:24:08.779Z</time></trkpt><trkpt lat="44.7250293" lon="8.8768465"><ele>268.28571428571433</ele><time>2026-04-06T13:24:11.778Z</time></trkpt><trkpt lat="44.7250064" lon="8.8769425"><ele>269.57142857142856</ele><time>2026-04-06T13:24:14.779Z</time></trkpt><trkpt lat="44.7249749" lon="8.8770382"><ele>270.8571428571429</ele><time>2026-04-06T13:24:17.777Z</time></trkpt><trkpt lat="44.7249337" lon="8.8771151"><ele>272.14285714285717</ele><time>2026-04-06T13:24:20.777Z</time></trkpt><trkpt lat="44.7249073" lon="8.8772064"><ele>273.42857142857144</ele><time>2026-04-06T13:24:23.778Z</time></trkpt><trkpt lat="44.7248812" lon="8.877302"><ele>274.7142857142857</ele><time>2026-04-06T13:24:26.778Z</time></trkpt><trkpt lat="44.7248507" lon="8.8773972"><ele>276.0</ele><time>2026-04-06T13:24:29.778Z</time></trkpt><trkpt lat="44.7248147" lon="8.8774858"><ele>276.0</ele><time>2026-04-06T13:24:32.779Z</time></trkpt><trkpt lat="44.7247767" lon="8.8775712"><ele>276.0</ele><time>2026-04-06T13:24:35.778Z</time></trkpt><trkpt lat="44.7247403" lon="8.8776616"><ele>276.0</ele><time>2026-04-06T13:24:38.777Z</time></trkpt><trkpt lat="44.7247019" lon="8.8777462"><ele>276.0</ele><time>2026-04-06T13:24:41.776Z</time></trkpt><trkpt lat="44.7246589" lon="8.8778165"><ele>276.0</ele><time>2026-04-06T13:24:44.778Z</time></trkpt><trkpt lat="44.7246078" lon="8.8778815"><ele>276.0</ele><time>2026-04-06T13:24:47.776Z</time></trkpt><trkpt lat="44.7245675" lon="8.8779821"><ele>276.0</ele><time>2026-04-06T13:24:50.777Z</time></trkpt><trkpt lat="44.7245271" lon="8.8780599"><ele>275.8333333333333</ele><time>2026-04-06T13:24:53.777Z</time></trkpt><trkpt lat="44.7244661" lon="8.8781134"><ele>275.6666666666667</ele><time>2026-04-06T13:24:56.776Z</time></trkpt><trkpt lat="44.7244081" lon="8.8782158"><ele>275.5</ele><time>2026-04-06T13:24:59.778Z</time></trkpt><trkpt lat="44.7243715" lon="8.8782948"><ele>275.33333333333337</ele><time>2026-04-06T13:25:01.778Z</time></trkpt><trkpt lat="44.7243265" lon="8.8783772"><ele>275.1666666666667</ele><time>2026-04-06T13:25:03.776Z</time></trkpt><trkpt lat="44.7242724" lon="8.8784665"><ele>275.0</ele><time>2026-04-06T13:25:05.778Z</time></trkpt><trkpt lat="44.7242134" lon="8.8785639"><ele>275.0</ele><time>2026-04-06T13:25:07.777Z</time></trkpt><trkpt lat="44.7241558" lon="8.8786678"><ele>275.0</ele><time>2026-04-06T13:25:09.778Z</time></trkpt><trkpt lat="44.7241065" lon="8.8787742"><ele>275.0</ele><time>2026-04-06T13:25:11.778Z</time></trkpt><trkpt lat="44.7240444" lon="8.8788791"><ele>275.0</ele><time>2026-04-06T13:25:13.777Z</time></trkpt><trkpt lat="44.72398" lon="8.8789844"><ele>275.0</ele><time>2026-04-06T13:25:15.779Z</time></trkpt><trkpt lat="44.7239126" lon="8.879078"><ele>275.0</ele><time>2026-04-06T13:25:17.776Z</time></trkpt><trkpt lat="44.7238499" lon="8.8791557"><ele>275.0</ele><time>2026-04-06T13:25:19.777Z</time></trkpt><trkpt lat="44.7237891" lon="8.8792165"><ele>275.0</ele><time>2026-04-06T13:25:21.777Z</time></trkpt><trkpt lat="44.7237221" lon="8.8792897"><ele>275.0</ele><time>2026-04-06T13:25:24.777Z</time></trkpt><trkpt lat="44.7236628" lon="8.879346"><ele>275.0</ele><time>2026-04-06T13:25:27.779Z</time></trkpt><trkpt lat="44.7236059" lon="8.8793983"><ele>275.0</ele><time>2026-04-06T13:25:30.776Z</time></trkpt><trkpt lat="44.7235429" lon="8.8794485"><ele>275.42857142857144</ele><time>2026-04-06T13:25:33.778Z</time></trkpt><trkpt lat="44.7234793" lon="8.8795063"><ele>275.85714285714283</ele><time>2026-04-06T13:25:36.778Z</time></trkpt><trkpt lat="44.7234198" lon="8.8795618"><ele>276.2857142857143</ele><time>2026-04-06T13:25:39.778Z</time></trkpt><trkpt lat="44.7233589" lon="8.8796163"><ele>276.7142857142857</ele><time>2026-04-06T13:25:42.778Z</time></trkpt><trkpt lat="44.7232993" lon="8.8796632"><ele>277.14285714285717</ele><time>2026-04-06T13:25:45.778Z</time></trkpt><trkpt lat="44.7232311" lon="8.8797174"><ele>277.57142857142856</ele><time>2026-04-06T13:25:48.778Z</time></trkpt><trkpt lat="44.7231648" lon="8.8797703"><ele>278.0</ele><time>2026-04-06T13:25:51.778Z</time></trkpt><trkpt lat="44.7231004" lon="8.8798241"><ele>278.0</ele><time>2026-04-06T13:25:54.777Z</time></trkpt><trkpt lat="44.723033" lon="8.8798798"><ele>278.0</ele><time>2026-04-06T13:25:57.778Z</time></trkpt><trkpt lat="44.7229661" lon="8.8799345"><ele>278.0</ele><time>2026-04-06T13:26:00.776Z</time></trkpt><trkpt lat="44.7228977" lon="8.8799882"><ele>278.0</ele><time>2026-04-06T13:26:03.778Z</time></trkpt><trkpt lat="44.7228398" lon="8.8800424"><ele>278.0</ele><time>2026-04-06T13:26:06.777Z</time></trkpt><trkpt lat="44.7227767" lon="8.880079"><ele>278.0</ele><time>2026-04-06T13:26:09.776Z</time></trkpt><trkpt lat="44.7227108" lon="8.8801236"><ele>278.0</ele><time>2026-04-06T13:26:12.779Z</time></trkpt><trkpt lat="44.7226433" lon="8.8801762"><ele>279.0</ele><time>2026-04-06T13:26:15.778Z</time></trkpt><trkpt lat="44.7225772" lon="8.8802281"><ele>280.0</ele><time>2026-04-06T13:26:18.777Z</time></trkpt><trkpt lat="44.7225164" lon="8.8802839"><ele>281.0</ele><time>2026-04-06T13:26:21.777Z</time></trkpt><trkpt lat="44.7224586" lon="8.8803467"><ele>282.0</ele><time>2026-04-06T13:26:24.776Z</time></trkpt><trkpt lat="44.7224061" lon="8.8804128"><ele>283.0</ele><time>2026-04-06T13:26:27.776Z</time></trkpt><trkpt lat="44.7223478" lon="8.8804704"><ele>284.0</ele><time>2026-04-06T13:26:30.777Z</time></trkpt><trkpt lat="44.7222794" lon="8.8805153"><ele>285.0</ele><time>2026-04-06T13:26:33.777Z</time></trkpt><trkpt lat="44.7222136" lon="8.88056"><ele>285.0</ele><time>2026-04-06T13:26:36.776Z</time></trkpt><trkpt lat="44.7221413" lon="8.8805828"><ele>285.0</ele><time>2026-04-06T13:26:39.777Z</time></trkpt><trkpt lat="44.7220689" lon="8.8806082"><ele>285.0</ele><time>2026-04-06T13:26:42.778Z</time></trkpt><trkpt lat="44.722001" lon="8.8806287"><ele>285.0</ele><time>2026-04-06T13:26:45.778Z</time></trkpt><trkpt lat="44.7219275" lon="8.8806573"><ele>285.0</ele><time>2026-04-06T13:26:48.777Z</time></trkpt><trkpt lat="44.7218537" lon="8.8806848"><ele>285.0</ele><time>2026-04-06T13:26:51.777Z</time></trkpt><trkpt lat="44.7217758" lon="8.8807192"><ele>285.0</ele><time>2026-04-06T13:26:54.778Z</time></trkpt><trkpt lat="44.7216986" lon="8.8807477"><ele>285.0</ele><time>2026-04-06T13:26:57.777Z</time></trkpt><trkpt lat="44.7216211" lon="8.8807681"><ele>285.0</ele><time>2026-04-06T13:27:00.776Z</time></trkpt><trkpt lat="44.7215479" lon="8.8807806"><ele>285.0</ele><time>2026-04-06T13:27:03.777Z</time></trkpt><trkpt lat="44.721469" lon="8.8808031"><ele>285.0</ele><time>2026-04-06T13:27:07.777Z</time></trkpt><trkpt lat="44.7213998" lon="8.8808343"><ele>285.0</ele><time>2026-04-06T13:27:10.778Z</time></trkpt><trkpt lat="44.721325" lon="8.8808601"><ele>285.0</ele><time>2026-04-06T13:27:13.777Z</time></trkpt><trkpt lat="44.7212498" lon="8.8808895"><ele>285.0</ele><time>2026-04-06T13:27:16.776Z</time></trkpt><trkpt lat="44.7211719" lon="8.8809147"><ele>285.0</ele><time>2026-04-06T13:27:19.777Z</time></trkpt><trkpt lat="44.7210931" lon="8.8809372"><ele>285.0</ele><time>2026-04-06T13:27:22.777Z</time></trkpt><trkpt lat="44.7210184" lon="8.8809638"><ele>285.0</ele><time>2026-04-06T13:27:25.778Z</time></trkpt><trkpt lat="44.7209361" lon="8.8809869"><ele>285.0</ele><time>2026-04-06T13:27:28.778Z</time></trkpt><trkpt lat="44.7208568" lon="8.8810145"><ele>287.0</ele><time>2026-04-06T13:27:31.778Z</time></trkpt><trkpt lat="44.7207774" lon="8.8810524"><ele>289.0</ele><time>2026-04-06T13:27:34.778Z</time></trkpt><trkpt lat="44.7207058" lon="8.8810912"><ele>291.0</ele><time>2026-04-06T13:27:37.778Z</time></trkpt><trkpt lat="44.7206293" lon="8.8811189"><ele>293.0</ele><time>2026-04-06T13:27:40.778Z</time></trkpt><trkpt lat="44.7205518" lon="8.8811456"><ele>295.0</ele><time>2026-04-06T13:27:43.777Z</time></trkpt><trkpt lat="44.7204718" lon="8.8811762"><ele>297.0</ele><time>2026-04-06T13:27:46.776Z</time></trkpt><trkpt lat="44.7203926" lon="8.8812046"><ele>297.0</ele><time>2026-04-06T13:27:49.778Z</time></trkpt><trkpt lat="44.7203136" lon="8.8812288"><ele>297.0</ele><time>2026-04-06T13:27:52.778Z</time></trkpt><trkpt lat="44.7202337" lon="8.881243"><ele>297.0</ele><time>2026-04-06T13:27:55.777Z</time></trkpt><trkpt lat="44.7201511" lon="8.8812706"><ele>297.0</ele><time>2026-04-06T13:27:58.776Z</time></trkpt><trkpt lat="44.7200696" lon="8.8812981"><ele>297.0</ele><time>2026-04-06T13:28:01.777Z</time></trkpt><trkpt lat="44.7199942" lon="8.8813344"><ele>297.0</ele><time>2026-04-06T13:28:04.778Z</time></trkpt><trkpt lat="44.7199183" lon="8.8813745"><ele>298.14285714285717</ele><time>2026-04-06T13:28:07.776Z</time></trkpt><trkpt lat="44.7198574" lon="8.8814223"><ele>299.28571428571433</ele><time>2026-04-06T13:28:10.776Z</time></trkpt><trkpt lat="44.7197901" lon="8.8814638"><ele>300.42857142857144</ele><time>2026-04-06T13:28:13.778Z</time></trkpt><trkpt lat="44.7197321" lon="8.8815108"><ele>301.57142857142856</ele><time>2026-04-06T13:28:16.779Z</time></trkpt><trkpt lat="44.7196704" lon="8.8815611"><ele>302.71428571428567</ele><time>2026-04-06T13:28:19.776Z</time></trkpt><trkpt lat="44.7196067" lon="8.8816038"><ele>303.8571428571429</ele><time>2026-04-06T13:28:22.778Z</time></trkpt><trkpt lat="44.7195302" lon="8.8816526"><ele>305.0</ele><time>2026-04-06T13:28:26.776Z</time></trkpt><trkpt lat="44.7194672" lon="8.8816869"><ele>305.0</ele><time>2026-04-06T13:28:29.777Z</time></trkpt><trkpt lat="44.719404" lon="8.8817302"><ele>305.0</ele><time>2026-04-06T13:28:32.778Z</time></trkpt><trkpt lat="44.719344" lon="8.8817651"><ele>305.0</ele><time>2026-04-06T13:28:35.777Z</time></trkpt><trkpt lat="44.7192767" lon="8.8818091"><ele>305.0</ele><time>2026-04-06T13:28:39.778Z</time></trkpt><trkpt lat="44.719211" lon="8.8818567"><ele>305.0</ele><time>2026-04-06T13:28:43.776Z</time></trkpt><trkpt lat="44.7191614" lon="8.8819124"><ele>305.0</ele><time>2026-04-06T13:28:46.777Z</time></trkpt><trkpt lat="44.7191048" lon="8.8819829"><ele>305.0</ele><time>2026-04-06T13:28:50.777Z</time></trkpt><trkpt lat="44.7190611" lon="8.8820507"><ele>308.83333333333337</ele><time>2026-04-06T13:28:53.777Z</time></trkpt><trkpt lat="44.7189984" lon="8.8821189"><ele>312.6666666666667</ele><time>2026-04-06T13:28:57.778Z</time></trkpt><trkpt lat="44.7189434" lon="8.8822031"><ele>316.5</ele><time>2026-04-06T13:29:01.777Z</time></trkpt><trkpt lat="44.7188854" lon="8.8822791"><ele>320.3333333333333</ele><time>2026-04-06T13:29:05.778Z</time></trkpt><trkpt lat="44.7188336" lon="8.882355"><ele>324.16666666666663</ele><time>2026-04-06T13:29:09.779Z</time></trkpt><trkpt lat="44.7187903" lon="8.882439"><ele>328.0</ele><time>2026-04-06T13:29:13.776Z</time></trkpt><trkpt lat="44.7187381" lon="8.8825209"><ele>327.99999999999994</ele><time>2026-04-06T13:29:17.777Z</time></trkpt><trkpt lat="44.7186892" lon="8.8825916"><ele>328.0</ele><time>2026-04-06T13:29:21.778Z</time></trkpt><trkpt lat="44.7186406" lon="8.8826682"><ele>328.0</ele><time>2026-04-06T13:29:25.778Z</time></trkpt><trkpt lat="44.7185936" lon="8.8827337"><ele>328.0</ele><time>2026-04-06T13:29:29.778Z</time></trkpt><trkpt lat="44.7185537" lon="8.8828108"><ele>328.0</ele><time>2026-04-06T13:29:33.777Z</time></trkpt><trkpt lat="44.7185097" lon="8.8828798"><ele>327.99999999999994</ele><time>2026-04-06T13:29:37.778Z</time></trkpt><trkpt lat="44.7184731" lon="8.8829585"><ele>328.0</ele><time>2026-04-06T13:29:41.778Z</time></trkpt><trkpt lat="44.7184258" lon="8.8830272"><ele>329.2857142857143</ele><time>2026-04-06T13:29:45.777Z</time></trkpt><trkpt lat="44.7183742" lon="8.8830917"><ele>330.57142857142856</ele><time>2026-04-06T13:29:49.776Z</time></trkpt><trkpt lat="44.7183275" lon="8.8831581"><ele>331.8571428571429</ele><time>2026-04-06T13:29:53.778Z</time></trkpt><trkpt lat="44.7182844" lon="8.8832277"><ele>333.1428571428571</ele><time>2026-04-06T13:29:57.777Z</time></trkpt><trkpt lat="44.7182387" lon="8.8833036"><ele>334.42857142857144</ele><time>2026-04-06T13:30:01.778Z</time></trkpt><trkpt lat="44.7181873" lon="8.8833783"><ele>335.7142857142857</ele><time>2026-04-06T13:30:05.777Z</time></trkpt><trkpt lat="44.7181489" lon="8.8834593"><ele>337.0</ele><time>2026-04-06T13:30:09.776Z</time></trkpt><trkpt lat="44.7181088" lon="8.8835404"><ele>339.8571428571429</ele><time>2026-04-06T13:30:13.778Z</time></trkpt><trkpt lat="44.7180603" lon="8.8836038"><ele>342.7142857142857</ele><time>2026-04-06T13:30:17.777Z</time></trkpt><trkpt lat="44.7180017" lon="8.8836687"><ele>345.57142857142856</ele><time>2026-04-06T13:30:21.777Z</time></trkpt><trkpt lat="44.7179345" lon="8.8836932"><ele>348.42857142857144</ele><time>2026-04-06T13:30:25.776Z</time></trkpt><trkpt lat="44.7178628" lon="8.8836826"><ele>351.2857142857143</ele><time>2026-04-06T13:30:29.778Z</time></trkpt><trkpt lat="44.7177987" lon="8.8836225"><ele>354.14285714285717</ele><time>2026-04-06T13:30:33.777Z</time></trkpt><trkpt lat="44.7177488" lon="8.8835518"><ele>357.0</ele><time>2026-04-06T13:30:37.776Z</time></trkpt><trkpt lat="44.7177226" lon="8.8834564"><ele>355.0</ele><time>2026-04-06T13:30:41.776Z</time></trkpt><trkpt lat="44.7177063" lon="8.8833603"><ele>353.0</ele><time>2026-04-06T13:30:45.778Z</time></trkpt><trkpt lat="44.7176711" lon="8.8832757"><ele>351.0</ele><time>2026-04-06T13:30:49.777Z</time></trkpt><trkpt lat="44.7176352" lon="8.8831818"><ele>349.0</ele><time>2026-04-06T13:30:53.777Z</time></trkpt><trkpt lat="44.7176014" lon="8.8830856"><ele>347.0</ele><time>2026-04-06T13:30:57.777Z</time></trkpt><trkpt lat="44.7175587" lon="8.882995"><ele>345.0</ele><time>2026-04-06T13:31:01.777Z</time></trkpt><trkpt lat="44.7175185" lon="8.8829064"><ele>343.0</ele><time>2026-04-06T13:31:05.777Z</time></trkpt><trkpt lat="44.7174811" lon="8.8828322"><ele>343.0</ele><time>2026-04-06T13:31:09.778Z</time></trkpt><trkpt lat="44.7174468" lon="8.8827434"><ele>343.0</ele><time>2026-04-06T13:31:13.776Z</time></trkpt><trkpt lat="44.7174323" lon="8.8826452"><ele>343.0</ele><time>2026-04-06T13:31:17.777Z</time></trkpt><trkpt lat="44.7174542" lon="8.8825536"><ele>343.0</ele><time>2026-04-06T13:31:21.777Z</time></trkpt><trkpt lat="44.7174804" lon="8.8824625"><ele>343.0</ele><time>2026-04-06T13:31:25.776Z</time></trkpt><trkpt lat="44.7175193" lon="8.8823784"><ele>343.0</ele><time>2026-04-06T13:31:29.775Z</time></trkpt><trkpt lat="44.7175453" lon="8.8822797"><ele>343.0</ele><time>2026-04-06T13:31:33.778Z</time></trkpt><trkpt lat="44.717569" lon="8.8821839"><ele>342.42857142857144</ele><time>2026-04-06T13:31:37.777Z</time></trkpt><trkpt lat="44.7175977" lon="8.8820895"><ele>341.8571428571429</ele><time>2026-04-06T13:31:41.777Z</time></trkpt><trkpt lat="44.7176311" lon="8.8819981"><ele>341.2857142857143</ele><time>2026-04-06T13:31:45.776Z</time></trkpt><trkpt lat="44.7176763" lon="8.881925"><ele>340.7142857142857</ele><time>2026-04-06T13:31:49.776Z</time></trkpt><trkpt lat="44.7177254" lon="8.8818431"><ele>340.14285714285717</ele><time>2026-04-06T13:31:53.777Z</time></trkpt><trkpt lat="44.7177635" lon="8.8817534"><ele>339.57142857142856</ele><time>2026-04-06T13:31:57.776Z</time></trkpt><trkpt lat="44.7177709" lon="8.881647"><ele>339.0</ele><time>2026-04-06T13:32:01.777Z</time></trkpt><trkpt lat="44.7177607" lon="8.8815402"><ele>337.8333333333333</ele><time>2026-04-06T13:32:05.776Z</time></trkpt><trkpt lat="44.7177535" lon="8.8814332"><ele>336.6666666666667</ele><time>2026-04-06T13:32:09.777Z</time></trkpt><trkpt lat="44.7177654" lon="8.8813258"><ele>335.5</ele><time>2026-04-06T13:32:13.777Z</time></trkpt><trkpt lat="44.7177918" lon="8.8812259"><ele>334.33333333333337</ele><time>2026-04-06T13:32:17.776Z</time></trkpt><trkpt lat="44.7178166" lon="8.8811194"><ele>333.1666666666667</ele><time>2026-04-06T13:32:21.775Z</time></trkpt><trkpt lat="44.7178204" lon="8.8810085"><ele>332.0</ele><time>2026-04-06T13:32:25.776Z</time></trkpt><trkpt lat="44.7178083" lon="8.8809028"><ele>332.0</ele><time>2026-04-06T13:32:29.776Z</time></trkpt><trkpt lat="44.717786" lon="8.880801"><ele>332.0</ele><time>2026-04-06T13:32:33.777Z</time></trkpt><trkpt lat="44.7177371" lon="8.880716"><ele>332.0</ele><time>2026-04-06T13:32:37.778Z</time></trkpt><trkpt lat="44.7176694" lon="8.8806656"><ele>332.0</ele><time>2026-04-06T13:32:41.776Z</time></trkpt><trkpt lat="44.7175867" lon="8.8806563"><ele>332.0</ele><time>2026-04-06T13:32:45.776Z</time></trkpt><trkpt lat="44.7175127" lon="8.8806869"><ele>332.0</ele><time>2026-04-06T13:32:49.777Z</time></trkpt><trkpt lat="44.717475" lon="8.8807728"><ele>334.1428571428571</ele><time>2026-04-06T13:32:53.775Z</time></trkpt><trkpt lat="44.7174568" lon="8.8808697"><ele>336.28571428571433</ele><time>2026-04-06T13:32:57.778Z</time></trkpt><trkpt lat="44.7174332" lon="8.8809795"><ele>338.42857142857144</ele><time>2026-04-06T13:33:01.777Z</time></trkpt><trkpt lat="44.7174084" lon="8.8810805"><ele>340.57142857142856</ele><time>2026-04-06T13:33:05.776Z</time></trkpt><trkpt lat="44.7173762" lon="8.8811778"><ele>342.71428571428567</ele><time>2026-04-06T13:33:09.776Z</time></trkpt><trkpt lat="44.71735" lon="8.8812776"><ele>344.8571428571429</ele><time>2026-04-06T13:33:13.775Z</time></trkpt><trkpt lat="44.7173192" lon="8.8813557"><ele>347.0</ele><time>2026-04-06T13:33:16.776Z</time></trkpt><trkpt lat="44.7172814" lon="8.8814468"><ele>347.0</ele><time>2026-04-06T13:33:20.778Z</time></trkpt><trkpt lat="44.7172374" lon="8.8815314"><ele>347.0</ele><time>2026-04-06T13:33:24.777Z</time></trkpt><trkpt lat="44.7171905" lon="8.881612"><ele>347.0</ele><time>2026-04-06T13:33:28.776Z</time></trkpt><trkpt lat="44.7171368" lon="8.8816831"><ele>347.0</ele><time>2026-04-06T13:33:32.778Z</time></trkpt><trkpt lat="44.7170757" lon="8.8817496"><ele>347.0</ele><time>2026-04-06T13:33:36.777Z</time></trkpt><trkpt lat="44.7170129" lon="8.8818182"><ele>347.0</ele><time>2026-04-06T13:33:40.776Z</time></trkpt><trkpt lat="44.7169491" lon="8.8818729"><ele>349.42857142857144</ele><time>2026-04-06T13:33:44.777Z</time></trkpt><trkpt lat="44.7168785" lon="8.8819089"><ele>351.85714285714283</ele><time>2026-04-06T13:33:48.776Z</time></trkpt><trkpt lat="44.7168116" lon="8.8819488"><ele>354.2857142857143</ele><time>2026-04-06T13:33:52.776Z</time></trkpt><trkpt lat="44.7167431" lon="8.8819943"><ele>356.7142857142857</ele><time>2026-04-06T13:33:56.776Z</time></trkpt><trkpt lat="44.7166721" lon="8.882039"><ele>359.1428571428571</ele><time>2026-04-06T13:34:00.778Z</time></trkpt><trkpt lat="44.7166207" lon="8.8820938"><ele>361.57142857142856</ele><time>2026-04-06T13:34:03.777Z</time></trkpt><trkpt lat="44.7165654" lon="8.8821747"><ele>364.0</ele><time>2026-04-06T13:34:07.776Z</time></trkpt><trkpt lat="44.7165213" lon="8.8822427"><ele>364.0</ele><time>2026-04-06T13:34:10.776Z</time></trkpt><trkpt lat="44.7164703" lon="8.8823272"><ele>364.0</ele><time>2026-04-06T13:34:14.777Z</time></trkpt><trkpt lat="44.716422" lon="8.882419"><ele>364.0</ele><time>2026-04-06T13:34:18.778Z</time></trkpt><trkpt lat="44.7163826" lon="8.8825055"><ele>364.0</ele><time>2026-04-06T13:34:22.777Z</time></trkpt><trkpt lat="44.7163624" lon="8.8826013"><ele>364.0</ele><time>2026-04-06T13:34:26.778Z</time></trkpt><trkpt lat="44.7163441" lon="8.8826967"><ele>364.0</ele><time>2026-04-06T13:34:32.776Z</time></trkpt><trkpt lat="44.7163311" lon="8.8827961"><ele>364.0</ele><time>2026-04-06T13:34:37.776Z</time></trkpt><trkpt lat="44.7163182" lon="8.8828932"><ele>364.7142857142857</ele><time>2026-04-06T13:34:42.777Z</time></trkpt><trkpt lat="44.716325" lon="8.8829969"><ele>365.42857142857144</ele><time>2026-04-06T13:34:46.777Z</time></trkpt><trkpt lat="44.7163281" lon="8.8830876"><ele>366.1428571428571</ele><time>2026-04-06T13:34:50.776Z</time></trkpt><trkpt lat="44.7163338" lon="8.8831906"><ele>366.8571428571429</ele><time>2026-04-06T13:34:54.777Z</time></trkpt><trkpt lat="44.7163477" lon="8.8832935"><ele>367.57142857142856</ele><time>2026-04-06T13:34:58.777Z</time></trkpt><trkpt lat="44.7163574" lon="8.8833943"><ele>368.2857142857143</ele><time>2026-04-06T13:35:02.777Z</time></trkpt><trkpt lat="44.7163545" lon="8.8835035"><ele>369.0</ele><time>2026-04-06T13:35:07.776Z</time></trkpt><trkpt lat="44.7163345" lon="8.8835986"><ele>371.5</ele><time>2026-04-06T13:35:11.775Z</time></trkpt><trkpt lat="44.7162899" lon="8.8836885"><ele>374.0</ele><time>2026-04-06T13:35:15.777Z</time></trkpt><trkpt lat="44.7162568" lon="8.883772"><ele>376.5</ele><time>2026-04-06T13:35:19.777Z</time></trkpt><trkpt lat="44.7162168" lon="8.8838585"><ele>379.0</ele><time>2026-04-06T13:35:23.776Z</time></trkpt><trkpt lat="44.7161654" lon="8.8839305"><ele>381.5</ele><time>2026-04-06T13:35:27.775Z</time></trkpt><trkpt lat="44.7161007" lon="8.884001"><ele>384.0</ele><time>2026-04-06T13:35:32.776Z</time></trkpt><trkpt lat="44.7160271" lon="8.8840464"><ele>384.6666666666667</ele><time>2026-04-06T13:35:36.775Z</time></trkpt><trkpt lat="44.7159468" lon="8.8840911"><ele>385.33333333333337</ele><time>2026-04-06T13:35:40.776Z</time></trkpt><trkpt lat="44.715871" lon="8.8841233"><ele>386.0</ele><time>2026-04-06T13:35:44.778Z</time></trkpt><trkpt lat="44.7157986" lon="8.884164"><ele>386.6666666666667</ele><time>2026-04-06T13:35:48.776Z</time></trkpt><trkpt lat="44.7157396" lon="8.8842364"><ele>387.33333333333337</ele><time>2026-04-06T13:35:52.775Z</time></trkpt><trkpt lat="44.7157137" lon="8.8843317"><ele>388.0</ele><time>2026-04-06T13:35:56.777Z</time></trkpt><trkpt lat="44.7156922" lon="8.8844413"><ele>391.57142857142856</ele><time>2026-04-06T13:36:00.777Z</time></trkpt><trkpt lat="44.7156666" lon="8.8845424"><ele>395.14285714285717</ele><time>2026-04-06T13:36:04.775Z</time></trkpt><trkpt lat="44.7156322" lon="8.8846364"><ele>398.7142857142857</ele><time>2026-04-06T13:36:08.777Z</time></trkpt><trkpt lat="44.7156081" lon="8.8847183"><ele>402.2857142857143</ele><time>2026-04-06T13:36:11.777Z</time></trkpt><trkpt lat="44.7155595" lon="8.8848109"><ele>405.8571428571429</ele><time>2026-04-06T13:36:15.777Z</time></trkpt><trkpt lat="44.7155616" lon="8.8849194"><ele>409.42857142857144</ele><time>2026-04-06T13:36:19.776Z</time></trkpt><trkpt lat="44.71563" lon="8.8849248"><ele>413.0</ele><time>2026-04-06T13:36:22.776Z</time></trkpt><trkpt lat="44.7156896" lon="8.8848597"><ele>412.99999999999994</ele><time>2026-04-06T13:36:25.776Z</time></trkpt><trkpt lat="44.7157479" lon="8.8847861"><ele>413.0</ele><time>2026-04-06T13:36:28.776Z</time></trkpt><trkpt lat="44.7157998" lon="8.884706"><ele>413.0</ele><time>2026-04-06T13:36:31.776Z</time></trkpt><trkpt lat="44.7158572" lon="8.8846391"><ele>413.0</ele><time>2026-04-06T13:36:34.775Z</time></trkpt><trkpt lat="44.7159352" lon="8.8845891"><ele>412.99999999999994</ele><time>2026-04-06T13:36:37.778Z</time></trkpt><trkpt lat="44.7160141" lon="8.8845868"><ele>413.0</ele><time>2026-04-06T13:36:40.776Z</time></trkpt><trkpt lat="44.7160854" lon="8.8845913"><ele>412.14285714285717</ele><time>2026-04-06T13:36:43.777Z</time></trkpt><trkpt lat="44.716153" lon="8.8846154"><ele>411.2857142857143</ele><time>2026-04-06T13:36:46.777Z</time></trkpt><trkpt lat="44.7162206" lon="8.884644"><ele>410.42857142857144</ele><time>2026-04-06T13:36:49.777Z</time></trkpt><trkpt lat="44.7162745" lon="8.8846924"><ele>409.57142857142856</ele><time>2026-04-06T13:36:52.778Z</time></trkpt><trkpt lat="44.7163288" lon="8.8847844"><ele>408.7142857142857</ele><time>2026-04-06T13:36:56.775Z</time></trkpt><trkpt lat="44.7163665" lon="8.8848665"><ele>407.8571428571429</ele><time>2026-04-06T13:36:59.778Z</time></trkpt><trkpt lat="44.7163313" lon="8.8849576"><ele>407.0</ele><time>2026-04-06T13:37:03.776Z</time></trkpt><trkpt lat="44.7162741" lon="8.8849156"><ele>407.00000000000006</ele><time>2026-04-06T13:37:06.776Z</time></trkpt><trkpt lat="44.7162148" lon="8.8848328"><ele>407.0</ele><time>2026-04-06T13:37:10.777Z</time></trkpt><trkpt lat="44.7161563" lon="8.8847981"><ele>407.0</ele><time>2026-04-06T13:37:13.776Z</time></trkpt><trkpt lat="44.7160735" lon="8.88482"><ele>407.0</ele><time>2026-04-06T13:37:17.776Z</time></trkpt><trkpt lat="44.7160283" lon="8.8848819"><ele>407.0</ele><time>2026-04-06T13:37:20.777Z</time></trkpt><trkpt lat="44.715992" lon="8.8849546"><ele>407.00000000000006</ele><time>2026-04-06T13:37:23.775Z</time></trkpt><trkpt lat="44.7159504" lon="8.8850267"><ele>407.0</ele><time>2026-04-06T13:37:26.776Z</time></trkpt><trkpt lat="44.715901" lon="8.8851182"><ele>410.28571428571433</ele><time>2026-04-06T13:37:30.775Z</time></trkpt><trkpt lat="44.7158534" lon="8.8851951"><ele>413.57142857142856</ele><time>2026-04-06T13:37:33.776Z</time></trkpt><trkpt lat="44.715808" lon="8.8852883"><ele>416.8571428571429</ele><time>2026-04-06T13:37:37.777Z</time></trkpt><trkpt lat="44.7157589" lon="8.8853747"><ele>420.14285714285717</ele><time>2026-04-06T13:37:40.776Z</time></trkpt><trkpt lat="44.7157449" lon="8.8854622"><ele>423.42857142857144</ele><time>2026-04-06T13:37:43.776Z</time></trkpt><trkpt lat="44.7158019" lon="8.8855165"><ele>426.7142857142857</ele><time>2026-04-06T13:37:47.775Z</time></trkpt><trkpt lat="44.7158576" lon="8.8854528"><ele>430.0</ele><time>2026-04-06T13:37:51.775Z</time></trkpt><trkpt lat="44.7159008" lon="8.8853824"><ele>430.00000000000006</ele><time>2026-04-06T13:37:54.776Z</time></trkpt><trkpt lat="44.7159734" lon="8.8853282"><ele>430.0</ele><time>2026-04-06T13:37:58.777Z</time></trkpt><trkpt lat="44.7160497" lon="8.8852956"><ele>430.0</ele><time>2026-04-06T13:38:02.776Z</time></trkpt><trkpt lat="44.7161222" lon="8.8852548"><ele>430.0</ele><time>2026-04-06T13:38:06.776Z</time></trkpt><trkpt lat="44.7161895" lon="8.8852733"><ele>430.00000000000006</ele><time>2026-04-06T13:38:10.775Z</time></trkpt><trkpt lat="44.7161796" lon="8.8853734"><ele>430.0</ele><time>2026-04-06T13:38:14.776Z</time></trkpt><trkpt lat="44.7161108" lon="8.8854291"><ele>430.0</ele><time>2026-04-06T13:38:18.776Z</time></trkpt><trkpt lat="44.7160367" lon="8.8854738"><ele>430.0</ele><time>2026-04-06T13:38:22.776Z</time></trkpt><trkpt lat="44.7159974" lon="8.8855567"><ele>430.0</ele><time>2026-04-06T13:38:26.775Z</time></trkpt><trkpt lat="44.7159987" lon="8.8856543"><ele>430.0</ele><time>2026-04-06T13:38:29.777Z</time></trkpt><trkpt lat="44.7160283" lon="8.8857374"><ele>430.0</ele><time>2026-04-06T13:38:32.775Z</time></trkpt><trkpt lat="44.7160672" lon="8.8858147"><ele>430.0</ele><time>2026-04-06T13:38:36.777Z</time></trkpt><trkpt lat="44.7161165" lon="8.8859017"><ele>430.0</ele><time>2026-04-06T13:38:40.776Z</time></trkpt><trkpt lat="44.7161349" lon="8.8860023"><ele>432.0</ele><time>2026-04-06T13:38:43.776Z</time></trkpt><trkpt lat="44.7161427" lon="8.8860904"><ele>434.0</ele><time>2026-04-06T13:38:47.775Z</time></trkpt><trkpt lat="44.7161482" lon="8.8861813"><ele>436.0</ele><time>2026-04-06T13:38:51.776Z</time></trkpt><trkpt lat="44.7161432" lon="8.8862919"><ele>438.0</ele><time>2026-04-06T13:38:56.776Z</time></trkpt><trkpt lat="44.7161348" lon="8.8864092"><ele>440.0</ele><time>2026-04-06T13:39:00.776Z</time></trkpt><trkpt lat="44.7161416" lon="8.8865072"><ele>442.0</ele><time>2026-04-06T13:39:04.777Z</time></trkpt><trkpt lat="44.7161673" lon="8.8866003"><ele>444.0</ele><time>2026-04-06T13:39:08.775Z</time></trkpt><trkpt lat="44.7162397" lon="8.8866355"><ele>444.0</ele><time>2026-04-06T13:39:12.775Z</time></trkpt><trkpt lat="44.7163103" lon="8.8866441"><ele>444.0</ele><time>2026-04-06T13:39:17.776Z</time></trkpt><trkpt lat="44.716376" lon="8.88666"><ele>444.0</ele><time>2026-04-06T13:39:21.775Z</time></trkpt><trkpt lat="44.7164413" lon="8.8866574"><ele>444.0</ele><time>2026-04-06T13:39:24.776Z</time></trkpt><trkpt lat="44.7165167" lon="8.8866499"><ele>444.0</ele><time>2026-04-06T13:39:28.775Z</time></trkpt><trkpt lat="44.7165836" lon="8.8866156"><ele>444.0</ele><time>2026-04-06T13:39:32.776Z</time></trkpt><trkpt lat="44.7166449" lon="8.8865662"><ele>444.0</ele><time>2026-04-06T13:39:36.775Z</time></trkpt><trkpt lat="44.716694" lon="8.8865103"><ele>444.0</ele><time>2026-04-06T13:39:40.777Z</time></trkpt><trkpt lat="44.7167438" lon="8.8864424"><ele>444.0</ele><time>2026-04-06T13:39:44.774Z</time></trkpt><trkpt lat="44.7167639" lon="8.8863566"><ele>444.0</ele><time>2026-04-06T13:39:49.776Z</time></trkpt><trkpt lat="44.7167222" lon="8.8862791"><ele>444.0</ele><time>2026-04-06T13:39:54.777Z</time></trkpt><trkpt lat="44.7166847" lon="8.8861943"><ele>444.0</ele><time>2026-04-06T13:39:59.776Z</time></trkpt><trkpt lat="44.716634" lon="8.8861218"><ele>444.0</ele><time>2026-04-06T13:40:02.776Z</time></trkpt><trkpt lat="44.7165714" lon="8.8860482"><ele>444.0</ele><time>2026-04-06T13:40:06.777Z</time></trkpt><trkpt lat="44.7165045" lon="8.885963"><ele>444.0</ele><time>2026-04-06T13:40:10.776Z</time></trkpt><trkpt lat="44.7164392" lon="8.8858914"><ele>444.0</ele><time>2026-04-06T13:40:14.776Z</time></trkpt><trkpt lat="44.7163706" lon="8.8859503"><ele>444.0</ele><time>2026-04-06T13:40:18.776Z</time></trkpt><trkpt lat="44.7163336" lon="8.8860406"><ele>444.0</ele><time>2026-04-06T13:40:21.776Z</time></trkpt><trkpt lat="44.7163271" lon="8.886129"><ele>444.0</ele><time>2026-04-06T13:40:24.774Z</time></trkpt><trkpt lat="44.7163999" lon="8.8861436"><ele>444.0</ele><time>2026-04-06T13:40:27.776Z</time></trkpt><trkpt lat="44.7164486" lon="8.8860848"><ele>444.0</ele><time>2026-04-06T13:40:30.776Z</time></trkpt><trkpt lat="44.7165101" lon="8.8860238"><ele>444.0</ele><time>2026-04-06T13:40:33.776Z</time></trkpt><trkpt lat="44.7165764" lon="8.8860282"><ele>444.0</ele><time>2026-04-06T13:40:46.777Z</time></trkpt><trkpt lat="44.7165143" lon="8.8860581"><ele>444.0</ele><time>2026-04-06T13:46:32.775Z</time></trkpt><trkpt lat="44.7164533" lon="8.8860818"><ele>444.0</ele><time>2026-04-06T13:46:39.775Z</time></trkpt><trkpt lat="44.7163975" lon="8.8861241"><ele>444.0</ele><time>2026-04-06T13:46:42.776Z</time></trkpt><trkpt lat="44.716329" lon="8.8860986"><ele>444.0</ele><time>2026-04-06T13:46:46.774Z</time></trkpt><trkpt lat="44.7163413" lon="8.8859912"><ele>444.0</ele><time>2026-04-06T13:46:49.775Z</time></trkpt><trkpt lat="44.7163855" lon="8.885916"><ele>444.0</ele><time>2026-04-06T13:46:51.775Z</time></trkpt><trkpt lat="44.7164655" lon="8.8859084"><ele>444.0</ele><time>2026-04-06T13:46:54.775Z</time></trkpt><trkpt lat="44.7165217" lon="8.8859577"><ele>444.0</ele><time>2026-04-06T13:46:57.776Z</time></trkpt><trkpt lat="44.7165734" lon="8.8860166"><ele>444.0</ele><time>2026-04-06T13:47:00.775Z</time></trkpt><trkpt lat="44.7166145" lon="8.8860912"><ele>444.0</ele><time>2026-04-06T13:47:03.775Z</time></trkpt><trkpt lat="44.7166631" lon="8.886179"><ele>444.0</ele><time>2026-04-06T13:47:07.774Z</time></trkpt><trkpt lat="44.7167047" lon="8.8862689"><ele>444.0</ele><time>2026-04-06T13:47:11.775Z</time></trkpt><trkpt lat="44.7167372" lon="8.8863591"><ele>444.0</ele><time>2026-04-06T13:47:15.775Z</time></trkpt><trkpt lat="44.7166845" lon="8.8864495"><ele>444.0</ele><time>2026-04-06T13:47:19.775Z</time></trkpt><trkpt lat="44.7167292" lon="8.8865178"><ele>444.0</ele><time>2026-04-06T13:47:24.775Z</time></trkpt><trkpt lat="44.7167914" lon="8.8864529"><ele>444.0</ele><time>2026-04-06T13:47:29.774Z</time></trkpt><trkpt lat="44.7168535" lon="8.8864262"><ele>444.0</ele><time>2026-04-06T13:47:33.775Z</time></trkpt><trkpt lat="44.7169182" lon="8.8863491"><ele>444.0</ele><time>2026-04-06T13:47:37.774Z</time></trkpt><trkpt lat="44.7169932" lon="8.8863011"><ele>442.1428571428571</ele><time>2026-04-06T13:47:40.773Z</time></trkpt><trkpt lat="44.7170474" lon="8.886351"><ele>440.28571428571433</ele><time>2026-04-06T13:47:43.775Z</time></trkpt><trkpt lat="44.7170999" lon="8.8864217"><ele>438.42857142857144</ele><time>2026-04-06T13:47:46.774Z</time></trkpt><trkpt lat="44.7171685" lon="8.8864491"><ele>436.57142857142856</ele><time>2026-04-06T13:47:49.774Z</time></trkpt><trkpt lat="44.7172247" lon="8.8865041"><ele>434.71428571428567</ele><time>2026-04-06T13:47:52.773Z</time></trkpt><trkpt lat="44.7172808" lon="8.8865719"><ele>432.8571428571429</ele><time>2026-04-06T13:47:55.774Z</time></trkpt><trkpt lat="44.7173374" lon="8.8866252"><ele>431.0</ele><time>2026-04-06T13:47:58.774Z</time></trkpt><trkpt lat="44.7174034" lon="8.8866775"><ele>429.2857142857143</ele><time>2026-04-06T13:48:02.774Z</time></trkpt><trkpt lat="44.7174628" lon="8.8867637"><ele>427.57142857142856</ele><time>2026-04-06T13:48:06.773Z</time></trkpt><trkpt lat="44.7175402" lon="8.8868152"><ele>425.85714285714283</ele><time>2026-04-06T13:48:09.773Z</time></trkpt><trkpt lat="44.7176022" lon="8.886844"><ele>424.1428571428571</ele><time>2026-04-06T13:48:11.773Z</time></trkpt><trkpt lat="44.7176672" lon="8.886868"><ele>422.42857142857144</ele><time>2026-04-06T13:48:13.775Z</time></trkpt><trkpt lat="44.7177311" lon="8.8868997"><ele>420.71428571428567</ele><time>2026-04-06T13:48:15.775Z</time></trkpt><trkpt lat="44.7177915" lon="8.8869271"><ele>419.0</ele><time>2026-04-06T13:48:17.774Z</time></trkpt><trkpt lat="44.7178638" lon="8.8869806"><ele>418.99999999999994</ele><time>2026-04-06T13:48:20.775Z</time></trkpt><trkpt lat="44.7179218" lon="8.8870302"><ele>419.0</ele><time>2026-04-06T13:48:23.776Z</time></trkpt><trkpt lat="44.7179976" lon="8.887094"><ele>419.0</ele><time>2026-04-06T13:48:26.774Z</time></trkpt><trkpt lat="44.7180513" lon="8.8871488"><ele>419.0</ele><time>2026-04-06T13:48:28.774Z</time></trkpt><trkpt lat="44.7181046" lon="8.8872306"><ele>418.99999999999994</ele><time>2026-04-06T13:48:30.775Z</time></trkpt><trkpt lat="44.7181452" lon="8.8873475"><ele>419.0</ele><time>2026-04-06T13:48:32.773Z</time></trkpt><trkpt lat="44.7181693" lon="8.8874521"><ele>418.99999999999994</ele><time>2026-04-06T13:48:34.775Z</time></trkpt><trkpt lat="44.7182023" lon="8.8875373"><ele>419.0</ele><time>2026-04-06T13:48:37.774Z</time></trkpt><trkpt lat="44.7182118" lon="8.8876488"><ele>419.0</ele><time>2026-04-06T13:48:41.775Z</time></trkpt><trkpt lat="44.7182305" lon="8.8877389"><ele>419.0</ele><time>2026-04-06T13:48:44.774Z</time></trkpt><trkpt lat="44.7182541" lon="8.887827"><ele>419.0</ele><time>2026-04-06T13:48:47.775Z</time></trkpt><trkpt lat="44.7182996" lon="8.8879062"><ele>418.99999999999994</ele><time>2026-04-06T13:48:50.775Z</time></trkpt><trkpt lat="44.7183331" lon="8.8879903"><ele>419.0</ele><time>2026-04-06T13:48:52.774Z</time></trkpt><trkpt lat="44.7183672" lon="8.8880692"><ele>418.99999999999994</ele><time>2026-04-06T13:48:54.775Z</time></trkpt><trkpt lat="44.7184028" lon="8.8881428"><ele>419.0</ele><time>2026-04-06T13:48:56.774Z</time></trkpt><trkpt lat="44.718441" lon="8.8882343"><ele>419.0</ele><time>2026-04-06T13:48:59.774Z</time></trkpt><trkpt lat="44.7184674" lon="8.8883154"><ele>419.0</ele><time>2026-04-06T13:49:02.774Z</time></trkpt><trkpt lat="44.7184949" lon="8.8883966"><ele>419.0</ele><time>2026-04-06T13:49:05.775Z</time></trkpt><trkpt lat="44.7185204" lon="8.888481"><ele>418.99999999999994</ele><time>2026-04-06T13:49:08.773Z</time></trkpt><trkpt lat="44.7185478" lon="8.8885828"><ele>419.0</ele><time>2026-04-06T13:49:11.775Z</time></trkpt><trkpt lat="44.7185638" lon="8.8886863"><ele>421.49999999999994</ele><time>2026-04-06T13:49:14.774Z</time></trkpt><trkpt lat="44.718582" lon="8.8887828"><ele>424.0</ele><time>2026-04-06T13:49:17.776Z</time></trkpt><trkpt lat="44.7186118" lon="8.8888848"><ele>426.5</ele><time>2026-04-06T13:49:20.775Z</time></trkpt><trkpt lat="44.7186236" lon="8.8890026"><ele>429.0</ele><time>2026-04-06T13:49:23.774Z</time></trkpt><trkpt lat="44.7186002" lon="8.8891334"><ele>431.49999999999994</ele><time>2026-04-06T13:49:26.774Z</time></trkpt><trkpt lat="44.7185718" lon="8.889229"><ele>434.0</ele><time>2026-04-06T13:49:28.773Z</time></trkpt><trkpt lat="44.718536" lon="8.8893372"><ele>433.99999999999994</ele><time>2026-04-06T13:49:30.773Z</time></trkpt><trkpt lat="44.7185113" lon="8.8894508"><ele>434.0</ele><time>2026-04-06T13:49:32.774Z</time></trkpt><trkpt lat="44.718515" lon="8.889615"><ele>434.0</ele><time>2026-04-06T13:49:34.774Z</time></trkpt><trkpt lat="44.7185262" lon="8.8897508"><ele>434.0</ele><time>2026-04-06T13:49:36.774Z</time></trkpt><trkpt lat="44.7185368" lon="8.8898532"><ele>433.99999999999994</ele><time>2026-04-06T13:49:38.773Z</time></trkpt><trkpt lat="44.7185646" lon="8.8899406"><ele>434.0</ele><time>2026-04-06T13:49:40.774Z</time></trkpt><trkpt lat="44.7186032" lon="8.8900598"><ele>430.66666666666663</ele><time>2026-04-06T13:49:43.773Z</time></trkpt><trkpt lat="44.7186443" lon="8.8901652"><ele>427.3333333333333</ele><time>2026-04-06T13:49:46.775Z</time></trkpt><trkpt lat="44.7186837" lon="8.8902615"><ele>424.0</ele><time>2026-04-06T13:49:49.773Z</time></trkpt><trkpt lat="44.7187074" lon="8.8903675"><ele>420.66666666666663</ele><time>2026-04-06T13:49:52.774Z</time></trkpt><trkpt lat="44.7187323" lon="8.8904939"><ele>417.3333333333333</ele><time>2026-04-06T13:49:55.774Z</time></trkpt><trkpt lat="44.7187577" lon="8.8905788"><ele>414.0</ele><time>2026-04-06T13:49:57.773Z</time></trkpt><trkpt lat="44.7187904" lon="8.8906593"><ele>414.0</ele><time>2026-04-06T13:49:59.775Z</time></trkpt><trkpt lat="44.7188471" lon="8.8907707"><ele>414.0</ele><time>2026-04-06T13:50:02.774Z</time></trkpt><trkpt lat="44.7189041" lon="8.8908627"><ele>414.0</ele><time>2026-04-06T13:50:05.775Z</time></trkpt><trkpt lat="44.7189675" lon="8.8909494"><ele>414.0</ele><time>2026-04-06T13:50:08.776Z</time></trkpt><trkpt lat="44.7190299" lon="8.8910312"><ele>414.0</ele><time>2026-04-06T13:50:11.774Z</time></trkpt><trkpt lat="44.7190631" lon="8.8911294"><ele>414.0</ele><time>2026-04-06T13:50:14.776Z</time></trkpt><trkpt lat="44.719083" lon="8.8912156"><ele>415.3333333333333</ele><time>2026-04-06T13:50:17.776Z</time></trkpt><trkpt lat="44.7191126" lon="8.8913262"><ele>416.66666666666663</ele><time>2026-04-06T13:50:20.774Z</time></trkpt><trkpt lat="44.7191486" lon="8.8914394"><ele>418.0</ele><time>2026-04-06T13:50:23.774Z</time></trkpt><trkpt lat="44.7191583" lon="8.8915487"><ele>419.3333333333333</ele><time>2026-04-06T13:50:26.774Z</time></trkpt><trkpt lat="44.71916" lon="8.8916517"><ele>420.66666666666663</ele><time>2026-04-06T13:50:29.773Z</time></trkpt><trkpt lat="44.7191438" lon="8.891748"><ele>422.0</ele><time>2026-04-06T13:50:32.775Z</time></trkpt><trkpt lat="44.7191346" lon="8.891837"><ele>421.99999999999994</ele><time>2026-04-06T13:50:34.773Z</time></trkpt><trkpt lat="44.7191139" lon="8.8919522"><ele>422.0</ele><time>2026-04-06T13:50:37.775Z</time></trkpt><trkpt lat="44.7190913" lon="8.8920565"><ele>422.0</ele><time>2026-04-06T13:50:40.774Z</time></trkpt><trkpt lat="44.7190664" lon="8.8921721"><ele>422.0</ele><time>2026-04-06T13:50:43.775Z</time></trkpt><trkpt lat="44.7190525" lon="8.8922764"><ele>421.99999999999994</ele><time>2026-04-06T13:50:46.775Z</time></trkpt><trkpt lat="44.719062" lon="8.8923741"><ele>422.0</ele><time>2026-04-06T13:50:49.774Z</time></trkpt><trkpt lat="44.7190852" lon="8.8924753"><ele>422.0</ele><time>2026-04-06T13:50:52.773Z</time></trkpt><trkpt lat="44.7191273" lon="8.8925547"><ele>422.0</ele><time>2026-04-06T13:50:55.773Z</time></trkpt><trkpt lat="44.7192066" lon="8.8925865"><ele>422.0</ele><time>2026-04-06T13:50:59.776Z</time></trkpt><trkpt lat="44.719268" lon="8.8926126"><ele>422.0</ele><time>2026-04-06T13:51:02.774Z</time></trkpt><trkpt lat="44.7193508" lon="8.8926292"><ele>422.0</ele><time>2026-04-06T13:51:06.775Z</time></trkpt><trkpt lat="44.7194154" lon="8.8926654"><ele>422.0</ele><time>2026-04-06T13:51:10.775Z</time></trkpt><trkpt lat="44.7194844" lon="8.8926858"><ele>422.0</ele><time>2026-04-06T13:51:13.774Z</time></trkpt><trkpt lat="44.7195615" lon="8.8927374"><ele>422.3333333333333</ele><time>2026-04-06T13:51:17.774Z</time></trkpt><trkpt lat="44.7196211" lon="8.8927878"><ele>422.66666666666663</ele><time>2026-04-06T13:51:20.774Z</time></trkpt><trkpt lat="44.7196848" lon="8.8928576"><ele>423.0</ele><time>2026-04-06T13:51:23.773Z</time></trkpt><trkpt lat="44.7197437" lon="8.8929403"><ele>423.33333333333337</ele><time>2026-04-06T13:51:26.775Z</time></trkpt><trkpt lat="44.7197856" lon="8.8930317"><ele>423.6666666666667</ele><time>2026-04-06T13:51:29.774Z</time></trkpt><trkpt lat="44.7198201" lon="8.8931301"><ele>424.0</ele><time>2026-04-06T13:51:32.774Z</time></trkpt><trkpt lat="44.7198528" lon="8.8932298"><ele>424.0</ele><time>2026-04-06T13:51:35.775Z</time></trkpt><trkpt lat="44.7198949" lon="8.8933121"><ele>424.0</ele><time>2026-04-06T13:51:38.773Z</time></trkpt><trkpt lat="44.7199529" lon="8.8933778"><ele>424.0</ele><time>2026-04-06T13:51:41.775Z</time></trkpt><trkpt lat="44.7200141" lon="8.8934208"><ele>424.0</ele><time>2026-04-06T13:51:43.774Z</time></trkpt><trkpt lat="44.7200711" lon="8.8934661"><ele>424.0</ele><time>2026-04-06T13:51:45.774Z</time></trkpt><trkpt lat="44.7201341" lon="8.8934988"><ele>424.0</ele><time>2026-04-06T13:51:47.773Z</time></trkpt><trkpt lat="44.7201966" lon="8.8935166"><ele>424.0</ele><time>2026-04-06T13:51:49.774Z</time></trkpt><trkpt lat="44.7202603" lon="8.8935515"><ele>423.00000000000006</ele><time>2026-04-06T13:51:52.774Z</time></trkpt><trkpt lat="44.720327" lon="8.8936196"><ele>422.0</ele><time>2026-04-06T13:51:55.775Z</time></trkpt><trkpt lat="44.720375" lon="8.8937116"><ele>421.0</ele><time>2026-04-06T13:51:58.774Z</time></trkpt><trkpt lat="44.7204302" lon="8.8937919"><ele>420.0</ele><time>2026-04-06T13:52:01.774Z</time></trkpt><trkpt lat="44.7204915" lon="8.8938615"><ele>419.00000000000006</ele><time>2026-04-06T13:52:04.774Z</time></trkpt><trkpt lat="44.7205654" lon="8.8939219"><ele>418.0</ele><time>2026-04-06T13:52:07.774Z</time></trkpt><trkpt lat="44.7206163" lon="8.8939743"><ele>418.00000000000006</ele><time>2026-04-06T13:52:09.773Z</time></trkpt><trkpt lat="44.720662" lon="8.8940396"><ele>418.0</ele><time>2026-04-06T13:52:11.773Z</time></trkpt><trkpt lat="44.7207118" lon="8.8940995"><ele>418.0</ele><time>2026-04-06T13:52:13.775Z</time></trkpt><trkpt lat="44.7207786" lon="8.8941718"><ele>418.0</ele><time>2026-04-06T13:52:16.774Z</time></trkpt><trkpt lat="44.7208479" lon="8.8942611"><ele>418.00000000000006</ele><time>2026-04-06T13:52:19.773Z</time></trkpt><trkpt lat="44.7209118" lon="8.8943426"><ele>418.0</ele><time>2026-04-06T13:52:22.774Z</time></trkpt><trkpt lat="44.7209792" lon="8.8944016"><ele>417.42857142857144</ele><time>2026-04-06T13:52:25.774Z</time></trkpt><trkpt lat="44.7210277" lon="8.894468"><ele>416.85714285714283</ele><time>2026-04-06T13:52:28.774Z</time></trkpt><trkpt lat="44.7210841" lon="8.894523"><ele>416.28571428571433</ele><time>2026-04-06T13:52:31.775Z</time></trkpt><trkpt lat="44.7211575" lon="8.8945427"><ele>415.7142857142857</ele><time>2026-04-06T13:52:35.775Z</time></trkpt><trkpt lat="44.7212294" lon="8.8945426"><ele>415.14285714285717</ele><time>2026-04-06T13:52:39.774Z</time></trkpt><trkpt lat="44.7213034" lon="8.8945772"><ele>414.5714285714286</ele><time>2026-04-06T13:52:42.774Z</time></trkpt><trkpt lat="44.721379" lon="8.8946235"><ele>414.0</ele><time>2026-04-06T13:52:44.775Z</time></trkpt><trkpt lat="44.7214657" lon="8.8946638"><ele>414.00000000000006</ele><time>2026-04-06T13:52:46.774Z</time></trkpt><trkpt lat="44.7215285" lon="8.8946929"><ele>414.0</ele><time>2026-04-06T13:52:48.774Z</time></trkpt><trkpt lat="44.7215893" lon="8.8947235"><ele>414.0</ele><time>2026-04-06T13:52:50.775Z</time></trkpt><trkpt lat="44.7216599" lon="8.8947789"><ele>414.0</ele><time>2026-04-06T13:52:52.773Z</time></trkpt><trkpt lat="44.7217292" lon="8.8948355"><ele>414.0</ele><time>2026-04-06T13:52:54.773Z</time></trkpt><trkpt lat="44.721794" lon="8.8948877"><ele>414.00000000000006</ele><time>2026-04-06T13:52:56.774Z</time></trkpt><trkpt lat="44.7218526" lon="8.8949365"><ele>414.0</ele><time>2026-04-06T13:52:58.774Z</time></trkpt><trkpt lat="44.7219051" lon="8.8949914"><ele>414.14285714285717</ele><time>2026-04-06T13:53:00.774Z</time></trkpt><trkpt lat="44.7219548" lon="8.8950522"><ele>414.2857142857143</ele><time>2026-04-06T13:53:02.775Z</time></trkpt><trkpt lat="44.7220073" lon="8.8951172"><ele>414.42857142857144</ele><time>2026-04-06T13:53:04.774Z</time></trkpt><trkpt lat="44.7220593" lon="8.8951769"><ele>414.57142857142856</ele><time>2026-04-06T13:53:06.774Z</time></trkpt><trkpt lat="44.7221292" lon="8.8952439"><ele>414.7142857142857</ele><time>2026-04-06T13:53:09.774Z</time></trkpt><trkpt lat="44.7221916" lon="8.8952958"><ele>414.8571428571429</ele><time>2026-04-06T13:53:12.773Z</time></trkpt><trkpt lat="44.7222529" lon="8.8953571"><ele>415.0</ele><time>2026-04-06T13:53:15.774Z</time></trkpt><trkpt lat="44.7222864" lon="8.8954404"><ele>415.00000000000006</ele><time>2026-04-06T13:53:18.774Z</time></trkpt><trkpt lat="44.7223318" lon="8.8955227"><ele>415.0</ele><time>2026-04-06T13:53:20.774Z</time></trkpt><trkpt lat="44.7223661" lon="8.8956033"><ele>415.0</ele><time>2026-04-06T13:53:22.773Z</time></trkpt><trkpt lat="44.7224225" lon="8.8956956"><ele>415.0</ele><time>2026-04-06T13:53:25.774Z</time></trkpt><trkpt lat="44.7224769" lon="8.8957751"><ele>415.00000000000006</ele><time>2026-04-06T13:53:28.773Z</time></trkpt><trkpt lat="44.7225312" lon="8.8958578"><ele>415.0</ele><time>2026-04-06T13:53:31.776Z</time></trkpt><trkpt lat="44.7225768" lon="8.8959254"><ele>414.14285714285717</ele><time>2026-04-06T13:53:34.774Z</time></trkpt><trkpt lat="44.7226302" lon="8.8959916"><ele>413.28571428571433</ele><time>2026-04-06T13:53:37.775Z</time></trkpt><trkpt lat="44.7226792" lon="8.896058"><ele>412.42857142857144</ele><time>2026-04-06T13:53:40.774Z</time></trkpt><trkpt lat="44.722729" lon="8.8961198"><ele>411.57142857142856</ele><time>2026-04-06T13:53:43.774Z</time></trkpt><trkpt lat="44.722778" lon="8.8961992"><ele>410.7142857142857</ele><time>2026-04-06T13:53:46.775Z</time></trkpt><trkpt lat="44.7228342" lon="8.8962708"><ele>409.85714285714283</ele><time>2026-04-06T13:53:49.773Z</time></trkpt><trkpt lat="44.7228828" lon="8.8963455"><ele>409.0</ele><time>2026-04-06T13:53:52.774Z</time></trkpt><trkpt lat="44.7229588" lon="8.8963998"><ele>409.0</ele><time>2026-04-06T13:53:55.773Z</time></trkpt><trkpt lat="44.7230257" lon="8.8964407"><ele>409.0</ele><time>2026-04-06T13:53:57.774Z</time></trkpt><trkpt lat="44.7230777" lon="8.8964934"><ele>409.0</ele><time>2026-04-06T13:53:59.775Z</time></trkpt><trkpt lat="44.7231409" lon="8.8965694"><ele>409.0</ele><time>2026-04-06T13:54:02.774Z</time></trkpt><trkpt lat="44.7231957" lon="8.8966367"><ele>409.0</ele><time>2026-04-06T13:54:05.773Z</time></trkpt><trkpt lat="44.7232525" lon="8.8966989"><ele>409.0</ele><time>2026-04-06T13:54:08.774Z</time></trkpt><trkpt lat="44.7233192" lon="8.8967411"><ele>409.0</ele><time>2026-04-06T13:54:11.775Z</time></trkpt><trkpt lat="44.7233784" lon="8.896791"><ele>408.2857142857143</ele><time>2026-04-06T13:54:14.775Z</time></trkpt><trkpt lat="44.7234219" lon="8.8968606"><ele>407.5714285714286</ele><time>2026-04-06T13:54:17.773Z</time></trkpt><trkpt lat="44.7234527" lon="8.8969423"><ele>406.8571428571429</ele><time>2026-04-06T13:54:20.775Z</time></trkpt><trkpt lat="44.7234675" lon="8.8970482"><ele>406.1428571428571</ele><time>2026-04-06T13:54:24.774Z</time></trkpt><trkpt lat="44.7234887" lon="8.897141"><ele>405.42857142857144</ele><time>2026-04-06T13:54:28.773Z</time></trkpt><trkpt lat="44.7235486" lon="8.8972223"><ele>404.7142857142857</ele><time>2026-04-06T13:54:43.775Z</time></trkpt><trkpt lat="44.723607" lon="8.8972674"><ele>404.0</ele><time>2026-04-06T13:54:48.773Z</time></trkpt><trkpt lat="44.7236682" lon="8.8973297"><ele>402.1428571428571</ele><time>2026-04-06T13:54:53.773Z</time></trkpt><trkpt lat="44.7237301" lon="8.8973707"><ele>400.2857142857143</ele><time>2026-04-06T13:54:58.774Z</time></trkpt><trkpt lat="44.7237769" lon="8.8974384"><ele>398.42857142857144</ele><time>2026-04-06T13:55:02.775Z</time></trkpt><trkpt lat="44.7238161" lon="8.8975135"><ele>396.57142857142856</ele><time>2026-04-06T13:55:05.773Z</time></trkpt><trkpt lat="44.723865" lon="8.8975857"><ele>394.7142857142857</ele><time>2026-04-06T13:55:09.774Z</time></trkpt><trkpt lat="44.7239134" lon="8.8976727"><ele>392.85714285714283</ele><time>2026-04-06T13:55:13.775Z</time></trkpt><trkpt lat="44.7239776" lon="8.8977251"><ele>391.0</ele><time>2026-04-06T13:56:04.774Z</time></trkpt><trkpt lat="44.7240243" lon="8.897792"><ele>390.4285714285714</ele><time>2026-04-06T13:56:07.774Z</time></trkpt><trkpt lat="44.724079" lon="8.8978391"><ele>389.85714285714283</ele><time>2026-04-06T13:56:11.773Z</time></trkpt><trkpt lat="44.7241355" lon="8.8979006"><ele>389.2857142857143</ele><time>2026-04-06T13:56:17.772Z</time></trkpt><trkpt lat="44.7242022" lon="8.8979539"><ele>388.71428571428567</ele><time>2026-04-06T13:56:23.773Z</time></trkpt><trkpt lat="44.7242561" lon="8.8980146"><ele>388.14285714285717</ele><time>2026-04-06T13:56:27.774Z</time></trkpt><trkpt lat="44.724223" lon="8.8980934"><ele>387.57142857142856</ele><time>2026-04-06T13:56:38.774Z</time></trkpt><trkpt lat="44.7241919" lon="8.8981775"><ele>387.0</ele><time>2026-04-06T13:56:41.775Z</time></trkpt><trkpt lat="44.7241703" lon="8.8982931"><ele>387.0</ele><time>2026-04-06T13:56:44.774Z</time></trkpt><trkpt lat="44.7241442" lon="8.8983908"><ele>387.0</ele><time>2026-04-06T13:56:46.773Z</time></trkpt><trkpt lat="44.7241224" lon="8.8985043"><ele>387.0</ele><time>2026-04-06T13:56:48.773Z</time></trkpt><trkpt lat="44.7241198" lon="8.8985954"><ele>387.0</ele><time>2026-04-06T13:56:50.773Z</time></trkpt><trkpt lat="44.7241245" lon="8.8986839"><ele>387.0</ele><time>2026-04-06T13:56:54.775Z</time></trkpt><trkpt lat="44.7240479" lon="8.8987088"><ele>387.0</ele><time>2026-04-06T13:57:09.774Z</time></trkpt><trkpt lat="44.7239769" lon="8.8987428"><ele>387.0</ele><time>2026-04-06T13:57:13.773Z</time></trkpt><trkpt lat="44.7239045" lon="8.8987682"><ele>386.1666666666667</ele><time>2026-04-06T13:57:17.773Z</time></trkpt><trkpt lat="44.7238355" lon="8.8987691"><ele>385.3333333333333</ele><time>2026-04-06T13:57:21.774Z</time></trkpt><trkpt lat="44.7237576" lon="8.8987614"><ele>384.5</ele><time>2026-04-06T13:57:25.773Z</time></trkpt><trkpt lat="44.7236848" lon="8.8987391"><ele>383.66666666666663</ele><time>2026-04-06T13:57:29.774Z</time></trkpt><trkpt lat="44.7236076" lon="8.898742"><ele>382.8333333333333</ele><time>2026-04-06T13:57:33.775Z</time></trkpt><trkpt lat="44.7235319" lon="8.898735"><ele>382.0</ele><time>2026-04-06T13:57:37.774Z</time></trkpt><trkpt lat="44.723457" lon="8.8987227"><ele>382.0</ele><time>2026-04-06T13:57:41.774Z</time></trkpt><trkpt lat="44.7233823" lon="8.8987192"><ele>382.0</ele><time>2026-04-06T13:57:46.775Z</time></trkpt><trkpt lat="44.7233206" lon="8.8987377"><ele>382.0</ele><time>2026-04-06T13:57:50.774Z</time></trkpt><trkpt lat="44.7232575" lon="8.8987627"><ele>382.0</ele><time>2026-04-06T13:57:54.772Z</time></trkpt><trkpt lat="44.7231829" lon="8.8987875"><ele>382.0</ele><time>2026-04-06T13:57:58.774Z</time></trkpt><trkpt lat="44.7231161" lon="8.8988041"><ele>382.0</ele><time>2026-04-06T13:58:02.773Z</time></trkpt><trkpt lat="44.7230535" lon="8.8988296"><ele>382.0</ele><time>2026-04-06T13:58:06.774Z</time></trkpt><trkpt lat="44.722981" lon="8.8988626"><ele>382.0</ele><time>2026-04-06T13:58:11.773Z</time></trkpt><trkpt lat="44.7229202" lon="8.8988958"><ele>382.0</ele><time>2026-04-06T13:58:16.773Z</time></trkpt><trkpt lat="44.7228431" lon="8.8989405"><ele>382.0</ele><time>2026-04-06T13:58:20.775Z</time></trkpt><trkpt lat="44.7227818" lon="8.89897"><ele>382.0</ele><time>2026-04-06T13:58:23.774Z</time></trkpt><trkpt lat="44.7227167" lon="8.8990067"><ele>382.0</ele><time>2026-04-06T13:58:27.772Z</time></trkpt><trkpt lat="44.7226512" lon="8.8990265"><ele>382.0</ele><time>2026-04-06T13:58:31.774Z</time></trkpt><trkpt lat="44.7225835" lon="8.8990356"><ele>382.0</ele><time>2026-04-06T13:58:35.773Z</time></trkpt><trkpt lat="44.7225129" lon="8.8990297"><ele>379.66666666666663</ele><time>2026-04-06T13:58:39.774Z</time></trkpt><trkpt lat="44.7224361" lon="8.8990004"><ele>377.3333333333333</ele><time>2026-04-06T13:58:44.774Z</time></trkpt><trkpt lat="44.7223678" lon="8.8989558"><ele>375.0</ele><time>2026-04-06T13:58:48.774Z</time></trkpt><trkpt lat="44.7222992" lon="8.8989134"><ele>372.6666666666667</ele><time>2026-04-06T13:58:52.772Z</time></trkpt><trkpt lat="44.7222261" lon="8.8988803"><ele>370.33333333333337</ele><time>2026-04-06T13:58:55.772Z</time></trkpt><trkpt lat="44.722148" lon="8.8988602"><ele>368.0</ele><time>2026-04-06T13:58:59.774Z</time></trkpt><trkpt lat="44.722086" lon="8.8988184"><ele>368.0</ele><time>2026-04-06T13:59:03.772Z</time></trkpt><trkpt lat="44.7220131" lon="8.8987722"><ele>368.0</ele><time>2026-04-06T13:59:07.774Z</time></trkpt><trkpt lat="44.7219767" lon="8.8986901"><ele>368.0</ele><time>2026-04-06T13:59:10.774Z</time></trkpt><trkpt lat="44.721901" lon="8.89864"><ele>368.0</ele><time>2026-04-06T13:59:14.774Z</time></trkpt><trkpt lat="44.7218352" lon="8.8986323"><ele>368.0</ele><time>2026-04-06T13:59:17.773Z</time></trkpt><trkpt lat="44.7217723" lon="8.8986214"><ele>368.0</ele><time>2026-04-06T13:59:21.773Z</time></trkpt><trkpt lat="44.7216997" lon="8.898629"><ele>368.0</ele><time>2026-04-06T13:59:29.772Z</time></trkpt><trkpt lat="44.7216311" lon="8.898675"><ele>366.0</ele><time>2026-04-06T13:59:32.774Z</time></trkpt><trkpt lat="44.7215557" lon="8.8987139"><ele>364.0</ele><time>2026-04-06T13:59:35.773Z</time></trkpt><trkpt lat="44.7214867" lon="8.8987352"><ele>362.0</ele><time>2026-04-06T13:59:38.773Z</time></trkpt><trkpt lat="44.7214149" lon="8.8987353"><ele>360.0</ele><time>2026-04-06T13:59:41.772Z</time></trkpt><trkpt lat="44.7213297" lon="8.8987401"><ele>358.0</ele><time>2026-04-06T13:59:45.773Z</time></trkpt><trkpt lat="44.7212643" lon="8.8987318"><ele>356.0</ele><time>2026-04-06T13:59:48.773Z</time></trkpt><trkpt lat="44.721197" lon="8.8987084"><ele>354.0</ele><time>2026-04-06T13:59:52.774Z</time></trkpt><trkpt lat="44.7211148" lon="8.8987084"><ele>353.3333333333333</ele><time>2026-04-06T13:59:55.773Z</time></trkpt><trkpt lat="44.7210386" lon="8.8987211"><ele>352.6666666666667</ele><time>2026-04-06T13:59:59.773Z</time></trkpt><trkpt lat="44.720957" lon="8.8987146"><ele>352.0</ele><time>2026-04-06T14:00:03.773Z</time></trkpt><trkpt lat="44.7208884" lon="8.898718"><ele>351.33333333333337</ele><time>2026-04-06T14:00:06.773Z</time></trkpt><trkpt lat="44.7208278" lon="8.8987555"><ele>350.6666666666667</ele><time>2026-04-06T14:00:10.773Z</time></trkpt><trkpt lat="44.7207723" lon="8.8988193"><ele>350.0</ele><time>2026-04-06T14:00:14.774Z</time></trkpt><trkpt lat="44.7207199" lon="8.8989131"><ele>350.0</ele><time>2026-04-06T14:00:17.773Z</time></trkpt><trkpt lat="44.72066" lon="8.8989902"><ele>350.0</ele><time>2026-04-06T14:00:19.774Z</time></trkpt><trkpt lat="44.7206173" lon="8.8990698"><ele>350.0</ele><time>2026-04-06T14:00:21.773Z</time></trkpt><trkpt lat="44.7205902" lon="8.8991709"><ele>350.0</ele><time>2026-04-06T14:00:23.774Z</time></trkpt><trkpt lat="44.7205348" lon="8.8992568"><ele>350.0</ele><time>2026-04-06T14:00:26.774Z</time></trkpt><trkpt lat="44.720468" lon="8.8992851"><ele>350.0</ele><time>2026-04-06T14:00:28.774Z</time></trkpt><trkpt lat="44.7204149" lon="8.8993454"><ele>350.0</ele><time>2026-04-06T14:00:36.773Z</time></trkpt><trkpt lat="44.7203495" lon="8.8993819"><ele>347.33333333333337</ele><time>2026-04-06T14:00:40.773Z</time></trkpt><trkpt lat="44.7202784" lon="8.8994293"><ele>344.6666666666667</ele><time>2026-04-06T14:00:43.773Z</time></trkpt><trkpt lat="44.7202044" lon="8.8994994"><ele>342.0</ele><time>2026-04-06T14:00:46.774Z</time></trkpt><trkpt lat="44.7201492" lon="8.8995602"><ele>339.3333333333333</ele><time>2026-04-06T14:00:49.774Z</time></trkpt><trkpt lat="44.7200837" lon="8.8995853"><ele>336.66666666666663</ele><time>2026-04-06T14:00:53.774Z</time></trkpt><trkpt lat="44.7199971" lon="8.8995792"><ele>334.0</ele><time>2026-04-06T14:00:56.772Z</time></trkpt><trkpt lat="44.7199299" lon="8.8995604"><ele>330.8333333333333</ele><time>2026-04-06T14:00:58.774Z</time></trkpt><trkpt lat="44.7198374" lon="8.899558"><ele>327.66666666666663</ele><time>2026-04-06T14:01:01.774Z</time></trkpt><trkpt lat="44.7197518" lon="8.8995474"><ele>324.5</ele><time>2026-04-06T14:01:04.773Z</time></trkpt><trkpt lat="44.7196874" lon="8.8994945"><ele>321.3333333333333</ele><time>2026-04-06T14:01:07.773Z</time></trkpt><trkpt lat="44.7196269" lon="8.8994351"><ele>318.1666666666667</ele><time>2026-04-06T14:01:10.773Z</time></trkpt><trkpt lat="44.7195658" lon="8.8993703"><ele>315.0</ele><time>2026-04-06T14:01:13.773Z</time></trkpt><trkpt lat="44.7195039" lon="8.8992943"><ele>314.57142857142856</ele><time>2026-04-06T14:01:16.773Z</time></trkpt><trkpt lat="44.7194509" lon="8.8992327"><ele>314.1428571428571</ele><time>2026-04-06T14:01:20.772Z</time></trkpt><trkpt lat="44.7194087" lon="8.8991667"><ele>313.7142857142857</ele><time>2026-04-06T14:01:45.772Z</time></trkpt><trkpt lat="44.7193693" lon="8.8990758"><ele>313.2857142857143</ele><time>2026-04-06T14:02:34.773Z</time></trkpt><trkpt lat="44.7193308" lon="8.8989995"><ele>312.85714285714283</ele><time>2026-04-06T14:02:39.772Z</time></trkpt><trkpt lat="44.7192905" lon="8.8989291"><ele>312.42857142857144</ele><time>2026-04-06T14:03:00.774Z</time></trkpt><trkpt lat="44.7192276" lon="8.8989023"><ele>312.0</ele><time>2026-04-06T14:03:22.772Z</time></trkpt><trkpt lat="44.7191634" lon="8.8988784"><ele>312.0</ele><time>2026-04-06T14:04:07.773Z</time></trkpt><trkpt lat="44.7191029" lon="8.8988395"><ele>312.0</ele><time>2026-04-06T14:04:18.772Z</time></trkpt><trkpt lat="44.7190455" lon="8.8987942"><ele>312.0</ele><time>2026-04-06T14:04:42.772Z</time></trkpt><trkpt lat="44.7189873" lon="8.8987245"><ele>312.0</ele><time>2026-04-06T14:04:48.774Z</time></trkpt><trkpt lat="44.7189377" lon="8.8986665"><ele>312.0</ele><time>2026-04-06T14:05:01.772Z</time></trkpt><trkpt lat="44.7188925" lon="8.8985679"><ele>312.0</ele><time>2026-04-06T14:05:05.772Z</time></trkpt><trkpt lat="44.718851" lon="8.898472"><ele>312.0</ele><time>2026-04-06T14:05:09.772Z</time></trkpt><trkpt lat="44.7187922" lon="8.8984074"><ele>309.0</ele><time>2026-04-06T14:05:14.774Z</time></trkpt><trkpt lat="44.7187326" lon="8.8983446"><ele>306.0</ele><time>2026-04-06T14:05:17.774Z</time></trkpt><trkpt lat="44.7186893" lon="8.8982794"><ele>303.0</ele><time>2026-04-06T14:05:19.773Z</time></trkpt><trkpt lat="44.7186644" lon="8.8981736"><ele>300.0</ele><time>2026-04-06T14:05:22.773Z</time></trkpt><trkpt lat="44.7186272" lon="8.8980876"><ele>297.0</ele><time>2026-04-06T14:05:27.773Z</time></trkpt><trkpt lat="44.7185782" lon="8.898013"><ele>294.0</ele><time>2026-04-06T14:05:32.774Z</time></trkpt><trkpt lat="44.7185271" lon="8.897934"><ele>291.0</ele><time>2026-04-06T14:05:36.774Z</time></trkpt><trkpt lat="44.718478" lon="8.8978702"><ele>291.0</ele><time>2026-04-06T14:05:40.772Z</time></trkpt><trkpt lat="44.7184376" lon="8.897801"><ele>291.0</ele><time>2026-04-06T14:05:43.772Z</time></trkpt><trkpt lat="44.7183739" lon="8.8977353"><ele>291.0</ele><time>2026-04-06T14:05:47.773Z</time></trkpt><trkpt lat="44.7183284" lon="8.8976529"><ele>291.0</ele><time>2026-04-06T14:05:51.773Z</time></trkpt><trkpt lat="44.7183126" lon="8.8975659"><ele>291.0</ele><time>2026-04-06T14:05:54.773Z</time></trkpt><trkpt lat="44.7182777" lon="8.8974774"><ele>291.0</ele><time>2026-04-06T14:05:57.773Z</time></trkpt><trkpt lat="44.7182644" lon="8.8973834"><ele>291.0</ele><time>2026-04-06T14:06:00.772Z</time></trkpt><trkpt lat="44.7182421" lon="8.897295"><ele>294.2857142857143</ele><time>2026-04-06T14:06:04.772Z</time></trkpt><trkpt lat="44.7181973" lon="8.8972115"><ele>297.57142857142856</ele><time>2026-04-06T14:06:07.774Z</time></trkpt><trkpt lat="44.7181543" lon="8.8971338"><ele>300.85714285714283</ele><time>2026-04-06T14:06:12.772Z</time></trkpt><trkpt lat="44.718082" lon="8.8970826"><ele>304.1428571428571</ele><time>2026-04-06T14:06:24.772Z</time></trkpt><trkpt lat="44.7180099" lon="8.8970416"><ele>307.42857142857144</ele><time>2026-04-06T14:06:28.773Z</time></trkpt><trkpt lat="44.7179473" lon="8.8970253"><ele>310.71428571428567</ele><time>2026-04-06T14:06:36.773Z</time></trkpt><trkpt lat="44.7178869" lon="8.8969942"><ele>314.0</ele><time>2026-04-06T14:06:42.773Z</time></trkpt><trkpt lat="44.7178275" lon="8.896961"><ele>313.99999999999994</ele><time>2026-04-06T14:06:51.772Z</time></trkpt><trkpt lat="44.7177848" lon="8.8968931"><ele>314.0</ele><time>2026-04-06T14:06:54.773Z</time></trkpt><trkpt lat="44.7177355" lon="8.8967911"><ele>314.0</ele><time>2026-04-06T14:06:58.772Z</time></trkpt><trkpt lat="44.7176939" lon="8.8967106"><ele>314.0</ele><time>2026-04-06T14:07:01.773Z</time></trkpt><trkpt lat="44.7176477" lon="8.8966468"><ele>314.0</ele><time>2026-04-06T14:07:09.774Z</time></trkpt><trkpt lat="44.7175926" lon="8.8965999"><ele>313.99999999999994</ele><time>2026-04-06T14:07:12.773Z</time></trkpt><trkpt lat="44.7175299" lon="8.8965223"><ele>314.0</ele><time>2026-04-06T14:07:14.772Z</time></trkpt><trkpt lat="44.7174822" lon="8.8964493"><ele>311.85714285714283</ele><time>2026-04-06T14:07:16.772Z</time></trkpt><trkpt lat="44.7174374" lon="8.8963659"><ele>309.7142857142857</ele><time>2026-04-06T14:07:20.773Z</time></trkpt><trkpt lat="44.7173731" lon="8.8963277"><ele>307.57142857142856</ele><time>2026-04-06T14:07:24.772Z</time></trkpt><trkpt lat="44.7173171" lon="8.8962752"><ele>305.42857142857144</ele><time>2026-04-06T14:07:27.774Z</time></trkpt><trkpt lat="44.7172826" lon="8.8961965"><ele>303.2857142857143</ele><time>2026-04-06T14:07:38.772Z</time></trkpt><trkpt lat="44.7172546" lon="8.8961076"><ele>301.1428571428571</ele><time>2026-04-06T14:07:45.774Z</time></trkpt><trkpt lat="44.717219" lon="8.8960024"><ele>299.0</ele><time>2026-04-06T14:07:55.772Z</time></trkpt><trkpt lat="44.7171565" lon="8.8959517"><ele>299.0</ele><time>2026-04-06T14:08:01.773Z</time></trkpt><trkpt lat="44.7170877" lon="8.8959898"><ele>299.0</ele><time>2026-04-06T14:08:07.773Z</time></trkpt><trkpt lat="44.7170161" lon="8.8960305"><ele>299.0</ele><time>2026-04-06T14:08:29.774Z</time></trkpt><trkpt lat="44.7169485" lon="8.8960422"><ele>299.0</ele><time>2026-04-06T14:08:37.773Z</time></trkpt><trkpt lat="44.7168844" lon="8.8960204"><ele>299.0</ele><time>2026-04-06T14:08:46.774Z</time></trkpt><trkpt lat="44.7168197" lon="8.8959805"><ele>299.0</ele><time>2026-04-06T14:08:56.772Z</time></trkpt><trkpt lat="44.7167735" lon="8.8959005"><ele>299.0</ele><time>2026-04-06T14:09:33.771Z</time></trkpt><trkpt lat="44.7167087" lon="8.895835"><ele>296.0</ele><time>2026-04-06T14:09:38.773Z</time></trkpt><trkpt lat="44.716648" lon="8.8957747"><ele>293.0</ele><time>2026-04-06T14:09:42.772Z</time></trkpt><trkpt lat="44.7165885" lon="8.8956937"><ele>290.0</ele><time>2026-04-06T14:09:47.774Z</time></trkpt><trkpt lat="44.716543" lon="8.8956252"><ele>287.0</ele><time>2026-04-06T14:09:50.772Z</time></trkpt><trkpt lat="44.7165006" lon="8.8955543"><ele>284.0</ele><time>2026-04-06T14:09:54.772Z</time></trkpt><trkpt lat="44.7164496" lon="8.8955003"><ele>281.0</ele><time>2026-04-06T14:09:59.772Z</time></trkpt><trkpt lat="44.7163881" lon="8.8954601"><ele>278.0</ele><time>2026-04-06T14:10:10.772Z</time></trkpt><trkpt lat="44.7163243" lon="8.8954248"><ele>278.0</ele><time>2026-04-06T14:10:24.772Z</time></trkpt><trkpt lat="44.7162706" lon="8.8953729"><ele>278.0</ele><time>2026-04-06T14:10:46.772Z</time></trkpt><trkpt lat="44.7162169" lon="8.8953094"><ele>278.0</ele><time>2026-04-06T14:11:00.771Z</time></trkpt><trkpt lat="44.7161557" lon="8.8952409"><ele>278.0</ele><time>2026-04-06T14:11:07.773Z</time></trkpt><trkpt lat="44.7161073" lon="8.8951618"><ele>278.0</ele><time>2026-04-06T14:11:12.772Z</time></trkpt><trkpt lat="44.7160522" lon="8.895097"><ele>278.0</ele><time>2026-04-06T14:11:16.773Z</time></trkpt><trkpt lat="44.7159851" lon="8.8950091"><ele>275.0</ele><time>2026-04-06T14:11:19.771Z</time></trkpt><trkpt lat="44.7159371" lon="8.8949492"><ele>272.0</ele><time>2026-04-06T14:11:21.773Z</time></trkpt><trkpt lat="44.7158884" lon="8.8948737"><ele>269.0</ele><time>2026-04-06T14:11:25.772Z</time></trkpt><trkpt lat="44.71582" lon="8.8948078"><ele>266.0</ele><time>2026-04-06T14:11:29.772Z</time></trkpt><trkpt lat="44.7157532" lon="8.8947972"><ele>263.0</ele><time>2026-04-06T14:11:32.773Z</time></trkpt><trkpt lat="44.7156832" lon="8.8947835"><ele>260.0</ele><time>2026-04-06T14:11:36.773Z</time></trkpt><trkpt lat="44.7156079" lon="8.8947329"><ele>257.0</ele><time>2026-04-06T14:11:40.773Z</time></trkpt><trkpt lat="44.715543" lon="8.8946975"><ele>257.0</ele><time>2026-04-06T14:11:47.773Z</time></trkpt><trkpt lat="44.7154674" lon="8.8947143"><ele>257.0</ele><time>2026-04-06T14:11:52.771Z</time></trkpt><trkpt lat="44.7153844" lon="8.8946813"><ele>257.0</ele><time>2026-04-06T14:11:57.773Z</time></trkpt><trkpt lat="44.7153153" lon="8.8946204"><ele>257.0</ele><time>2026-04-06T14:12:00.772Z</time></trkpt><trkpt lat="44.7152459" lon="8.894587"><ele>257.0</ele><time>2026-04-06T14:12:02.773Z</time></trkpt><trkpt lat="44.7151723" lon="8.8945676"><ele>257.0</ele><time>2026-04-06T14:12:04.772Z</time></trkpt><trkpt lat="44.7151055" lon="8.8945186"><ele>256.7142857142857</ele><time>2026-04-06T14:12:06.771Z</time></trkpt><trkpt lat="44.7150489" lon="8.8944491"><ele>256.42857142857144</ele><time>2026-04-06T14:12:08.773Z</time></trkpt><trkpt lat="44.7150026" lon="8.894389"><ele>256.14285714285717</ele><time>2026-04-06T14:12:10.772Z</time></trkpt><trkpt lat="44.7149346" lon="8.8943155"><ele>255.85714285714286</ele><time>2026-04-06T14:12:13.772Z</time></trkpt><trkpt lat="44.7148785" lon="8.8942439"><ele>255.5714285714286</ele><time>2026-04-06T14:12:15.772Z</time></trkpt><trkpt lat="44.7148316" lon="8.8941489"><ele>255.2857142857143</ele><time>2026-04-06T14:12:18.772Z</time></trkpt><trkpt lat="44.7147896" lon="8.8940768"><ele>255.0</ele><time>2026-04-06T14:12:20.773Z</time></trkpt><trkpt lat="44.7147236" lon="8.893989"><ele>255.0</ele><time>2026-04-06T14:12:22.771Z</time></trkpt><trkpt lat="44.7146559" lon="8.8939108"><ele>255.0</ele><time>2026-04-06T14:12:25.773Z</time></trkpt><trkpt lat="44.7146089" lon="8.8938233"><ele>255.0</ele><time>2026-04-06T14:12:28.774Z</time></trkpt><trkpt lat="44.714551" lon="8.89372"><ele>255.0</ele><time>2026-04-06T14:12:31.772Z</time></trkpt><trkpt lat="44.7145124" lon="8.8936334"><ele>255.0</ele><time>2026-04-06T14:12:33.772Z</time></trkpt><trkpt lat="44.7144721" lon="8.8935637"><ele>255.0</ele><time>2026-04-06T14:12:35.774Z</time></trkpt><trkpt lat="44.7144189" lon="8.8934976"><ele>253.5</ele><time>2026-04-06T14:12:37.773Z</time></trkpt><trkpt lat="44.7143582" lon="8.8934143"><ele>252.0</ele><time>2026-04-06T14:12:40.772Z</time></trkpt><trkpt lat="44.7142995" lon="8.893345"><ele>250.5</ele><time>2026-04-06T14:12:43.773Z</time></trkpt><trkpt lat="44.7142363" lon="8.8932607"><ele>249.0</ele><time>2026-04-06T14:12:46.773Z</time></trkpt><trkpt lat="44.7141808" lon="8.8932014"><ele>247.5</ele><time>2026-04-06T14:12:49.774Z</time></trkpt><trkpt lat="44.714122" lon="8.8931372"><ele>246.0</ele><time>2026-04-06T14:12:52.773Z</time></trkpt><trkpt lat="44.7140476" lon="8.8931129"><ele>246.00000000000003</ele><time>2026-04-06T14:12:55.773Z</time></trkpt><trkpt lat="44.7139746" lon="8.8931075"><ele>246.0</ele><time>2026-04-06T14:12:58.773Z</time></trkpt><trkpt lat="44.7139097" lon="8.8931221"><ele>246.00000000000003</ele><time>2026-04-06T14:13:00.772Z</time></trkpt><trkpt lat="44.7138423" lon="8.8931443"><ele>246.00000000000003</ele><time>2026-04-06T14:13:02.771Z</time></trkpt><trkpt lat="44.7137776" lon="8.8931695"><ele>246.0</ele><time>2026-04-06T14:13:04.772Z</time></trkpt><trkpt lat="44.7137157" lon="8.8931928"><ele>246.00000000000003</ele><time>2026-04-06T14:13:06.773Z</time></trkpt><trkpt lat="44.7136396" lon="8.8932266"><ele>246.00000000000003</ele><time>2026-04-06T14:13:09.771Z</time></trkpt><trkpt lat="44.7135756" lon="8.8932473"><ele>243.33333333333334</ele><time>2026-04-06T14:13:13.773Z</time></trkpt><trkpt lat="44.7135015" lon="8.8932943"><ele>240.66666666666669</ele><time>2026-04-06T14:13:17.774Z</time></trkpt><trkpt lat="44.7134273" lon="8.8933352"><ele>238.0</ele><time>2026-04-06T14:13:20.773Z</time></trkpt><trkpt lat="44.7133537" lon="8.8933748"><ele>235.33333333333334</ele><time>2026-04-06T14:13:23.773Z</time></trkpt><trkpt lat="44.7132776" lon="8.8934204"><ele>232.66666666666669</ele><time>2026-04-06T14:13:26.773Z</time></trkpt><trkpt lat="44.7132131" lon="8.8934614"><ele>230.0</ele><time>2026-04-06T14:13:28.771Z</time></trkpt><trkpt lat="44.7131384" lon="8.8935087"><ele>229.57142857142856</ele><time>2026-04-06T14:13:31.773Z</time></trkpt><trkpt lat="44.7130811" lon="8.8935489"><ele>229.14285714285714</ele><time>2026-04-06T14:13:34.771Z</time></trkpt><trkpt lat="44.7130211" lon="8.8936"><ele>228.71428571428572</ele><time>2026-04-06T14:13:37.772Z</time></trkpt><trkpt lat="44.7129523" lon="8.8936336"><ele>228.28571428571428</ele><time>2026-04-06T14:13:40.772Z</time></trkpt><trkpt lat="44.7128824" lon="8.8936862"><ele>227.8571428571429</ele><time>2026-04-06T14:13:43.772Z</time></trkpt><trkpt lat="44.7128222" lon="8.8937219"><ele>227.42857142857144</ele><time>2026-04-06T14:13:46.773Z</time></trkpt><trkpt lat="44.7127483" lon="8.8937216"><ele>227.0</ele><time>2026-04-06T14:13:49.773Z</time></trkpt><trkpt lat="44.7126976" lon="8.893659"><ele>226.16666666666669</ele><time>2026-04-06T14:13:51.771Z</time></trkpt><trkpt lat="44.7126723" lon="8.8935568"><ele>225.33333333333334</ele><time>2026-04-06T14:13:53.772Z</time></trkpt><trkpt lat="44.7126382" lon="8.8934677"><ele>224.5</ele><time>2026-04-06T14:13:55.772Z</time></trkpt><trkpt lat="44.7126063" lon="8.8933836"><ele>223.66666666666669</ele><time>2026-04-06T14:13:57.773Z</time></trkpt><trkpt lat="44.7125664" lon="8.8932718"><ele>222.83333333333334</ele><time>2026-04-06T14:14:00.772Z</time></trkpt><trkpt lat="44.7125311" lon="8.8931757"><ele>222.0</ele><time>2026-04-06T14:14:03.773Z</time></trkpt><trkpt lat="44.7124693" lon="8.8931058"><ele>222.0</ele><time>2026-04-06T14:14:06.772Z</time></trkpt><trkpt lat="44.7124172" lon="8.8930321"><ele>222.0</ele><time>2026-04-06T14:14:09.772Z</time></trkpt><trkpt lat="44.712366" lon="8.892951"><ele>222.0</ele><time>2026-04-06T14:14:12.773Z</time></trkpt><trkpt lat="44.7123025" lon="8.8928711"><ele>222.0</ele><time>2026-04-06T14:14:15.772Z</time></trkpt><trkpt lat="44.7122434" lon="8.8927969"><ele>222.0</ele><time>2026-04-06T14:14:18.771Z</time></trkpt><trkpt lat="44.7121985" lon="8.8927103"><ele>222.0</ele><time>2026-04-06T14:14:21.771Z</time></trkpt><trkpt lat="44.7121569" lon="8.8926163"><ele>222.28571428571428</ele><time>2026-04-06T14:14:24.771Z</time></trkpt><trkpt lat="44.7121204" lon="8.8925251"><ele>222.57142857142858</ele><time>2026-04-06T14:14:27.771Z</time></trkpt><trkpt lat="44.71209" lon="8.8924201"><ele>222.85714285714286</ele><time>2026-04-06T14:14:30.772Z</time></trkpt><trkpt lat="44.7120658" lon="8.8923153"><ele>223.14285714285714</ele><time>2026-04-06T14:14:33.773Z</time></trkpt><trkpt lat="44.7120627" lon="8.8922091"><ele>223.42857142857144</ele><time>2026-04-06T14:14:36.773Z</time></trkpt><trkpt lat="44.7120623" lon="8.8921081"><ele>223.71428571428572</ele><time>2026-04-06T14:14:39.772Z</time></trkpt><trkpt lat="44.7120605" lon="8.892016"><ele>224.0</ele><time>2026-04-06T14:14:42.771Z</time></trkpt><trkpt lat="44.7120434" lon="8.8919027"><ele>224.0</ele><time>2026-04-06T14:14:45.772Z</time></trkpt><trkpt lat="44.71202" lon="8.891815"><ele>224.0</ele><time>2026-04-06T14:14:48.773Z</time></trkpt><trkpt lat="44.7119885" lon="8.8917308"><ele>224.0</ele><time>2026-04-06T14:14:51.772Z</time></trkpt><trkpt lat="44.7119612" lon="8.8916341"><ele>224.0</ele><time>2026-04-06T14:14:54.771Z</time></trkpt><trkpt lat="44.7119457" lon="8.8915405"><ele>224.0</ele><time>2026-04-06T14:14:57.772Z</time></trkpt><trkpt lat="44.7119247" lon="8.8914399"><ele>224.0</ele><time>2026-04-06T14:15:00.772Z</time></trkpt><trkpt lat="44.7119042" lon="8.8913338"><ele>224.0</ele><time>2026-04-06T14:15:03.772Z</time></trkpt><trkpt lat="44.7118762" lon="8.8912372"><ele>223.16666666666669</ele><time>2026-04-06T14:15:06.772Z</time></trkpt><trkpt lat="44.7118118" lon="8.8911997"><ele>222.33333333333334</ele><time>2026-04-06T14:15:09.773Z</time></trkpt><trkpt lat="44.7117296" lon="8.8912082"><ele>221.5</ele><time>2026-04-06T14:15:12.772Z</time></trkpt><trkpt lat="44.7116382" lon="8.8912126"><ele>220.66666666666669</ele><time>2026-04-06T14:15:15.772Z</time></trkpt><trkpt lat="44.7115465" lon="8.891219"><ele>219.83333333333334</ele><time>2026-04-06T14:15:18.772Z</time></trkpt><trkpt lat="44.7114817" lon="8.8912162"><ele>219.0</ele><time>2026-04-06T14:15:20.772Z</time></trkpt><trkpt lat="44.7114146" lon="8.8912186"><ele>219.0</ele><time>2026-04-06T14:15:22.772Z</time></trkpt><trkpt lat="44.7113191" lon="8.8912258"><ele>219.0</ele><time>2026-04-06T14:15:25.773Z</time></trkpt><trkpt lat="44.7112488" lon="8.89123"><ele>219.0</ele><time>2026-04-06T14:15:27.773Z</time></trkpt><trkpt lat="44.7111744" lon="8.8912353"><ele>219.0</ele><time>2026-04-06T14:15:29.772Z</time></trkpt><trkpt lat="44.7111043" lon="8.8912361"><ele>219.0</ele><time>2026-04-06T14:15:31.772Z</time></trkpt><trkpt lat="44.7110393" lon="8.891234"><ele>219.0</ele><time>2026-04-06T14:15:33.771Z</time></trkpt><trkpt lat="44.710949" lon="8.8912388"><ele>218.83333333333334</ele><time>2026-04-06T14:15:36.772Z</time></trkpt><trkpt lat="44.7108561" lon="8.8912469"><ele>218.66666666666669</ele><time>2026-04-06T14:15:39.772Z</time></trkpt><trkpt lat="44.7107715" lon="8.8912546"><ele>218.5</ele><time>2026-04-06T14:15:42.771Z</time></trkpt><trkpt lat="44.7106945" lon="8.8912614"><ele>218.33333333333334</ele><time>2026-04-06T14:15:45.773Z</time></trkpt><trkpt lat="44.7106094" lon="8.8912593"><ele>218.16666666666669</ele><time>2026-04-06T14:15:48.772Z</time></trkpt><trkpt lat="44.7105282" lon="8.891246"><ele>218.0</ele><time>2026-04-06T14:15:51.772Z</time></trkpt><trkpt lat="44.7104714" lon="8.8911728"><ele>218.00000000000003</ele><time>2026-04-06T14:15:54.772Z</time></trkpt><trkpt lat="44.710441" lon="8.8910667"><ele>218.0</ele><time>2026-04-06T14:15:57.77Z</time></trkpt><trkpt lat="44.7104249" lon="8.8909396"><ele>218.0</ele><time>2026-04-06T14:16:00.771Z</time></trkpt><trkpt lat="44.710411" lon="8.8908449"><ele>218.0</ele><time>2026-04-06T14:16:02.773Z</time></trkpt><trkpt lat="44.7103868" lon="8.8907517"><ele>218.00000000000003</ele><time>2026-04-06T14:16:04.772Z</time></trkpt><trkpt lat="44.7103613" lon="8.8906164"><ele>218.0</ele><time>2026-04-06T14:16:06.772Z</time></trkpt><trkpt lat="44.7103344" lon="8.8904901"><ele>218.0</ele><time>2026-04-06T14:16:08.772Z</time></trkpt><trkpt lat="44.7103268" lon="8.8903687"><ele>218.0</ele><time>2026-04-06T14:16:10.772Z</time></trkpt><trkpt lat="44.7103136" lon="8.8902491"><ele>218.0</ele><time>2026-04-06T14:16:12.772Z</time></trkpt><trkpt lat="44.7103003" lon="8.8901142"><ele>218.0</ele><time>2026-04-06T14:16:14.773Z</time></trkpt><trkpt lat="44.7103079" lon="8.8899811"><ele>218.0</ele><time>2026-04-06T14:16:16.77Z</time></trkpt><trkpt lat="44.7102956" lon="8.8898378"><ele>217.60000000000002</ele><time>2026-04-06T14:16:18.771Z</time></trkpt><trkpt lat="44.710303" lon="8.8896932"><ele>217.20000000000002</ele><time>2026-04-06T14:16:20.771Z</time></trkpt><trkpt lat="44.7102903" lon="8.8895545"><ele>216.8</ele><time>2026-04-06T14:16:22.771Z</time></trkpt><trkpt lat="44.7102582" lon="8.889431"><ele>216.4</ele><time>2026-04-06T14:16:24.772Z</time></trkpt><trkpt lat="44.7102505" lon="8.8892877"><ele>216.0</ele><time>2026-04-06T14:16:26.771Z</time></trkpt><trkpt lat="44.7102317" lon="8.8891862"><ele>217.28571428571428</ele><time>2026-04-06T14:16:28.772Z</time></trkpt><trkpt lat="44.7101951" lon="8.8890938"><ele>218.57142857142856</ele><time>2026-04-06T14:16:30.771Z</time></trkpt><trkpt lat="44.7101616" lon="8.8890005"><ele>219.8571428571429</ele><time>2026-04-06T14:16:32.773Z</time></trkpt><trkpt lat="44.7101277" lon="8.8889243"><ele>221.14285714285717</ele><time>2026-04-06T14:16:34.771Z</time></trkpt><trkpt lat="44.7100858" lon="8.888851"><ele>222.42857142857144</ele><time>2026-04-06T14:16:36.771Z</time></trkpt><trkpt lat="44.7100277" lon="8.8888132"><ele>223.71428571428575</ele><time>2026-04-06T14:16:38.771Z</time></trkpt><trkpt lat="44.7099536" lon="8.8887823"><ele>225.00000000000003</ele><time>2026-04-06T14:16:41.772Z</time></trkpt><trkpt lat="44.709874" lon="8.8887721"><ele>225.0</ele><time>2026-04-06T14:16:44.772Z</time></trkpt><trkpt lat="44.7097919" lon="8.8887702"><ele>225.0</ele><time>2026-04-06T14:16:47.771Z</time></trkpt><trkpt lat="44.709707" lon="8.8887617"><ele>225.0</ele><time>2026-04-06T14:16:50.773Z</time></trkpt><trkpt lat="44.7096358" lon="8.8887262"><ele>225.0</ele><time>2026-04-06T14:16:53.772Z</time></trkpt><trkpt lat="44.7095636" lon="8.888708"><ele>225.0</ele><time>2026-04-06T14:16:56.771Z</time></trkpt><trkpt lat="44.7094829" lon="8.8886723"><ele>225.0</ele><time>2026-04-06T14:16:59.773Z</time></trkpt><trkpt lat="44.7094039" lon="8.8886411"><ele>228.0</ele><time>2026-04-06T14:17:02.772Z</time></trkpt><trkpt lat="44.7093228" lon="8.8886242"><ele>231.0</ele><time>2026-04-06T14:17:05.772Z</time></trkpt><trkpt lat="44.7092435" lon="8.8886423"><ele>234.0</ele><time>2026-04-06T14:17:08.771Z</time></trkpt><trkpt lat="44.7091946" lon="8.8887219"><ele>237.0</ele><time>2026-04-06T14:17:11.771Z</time></trkpt><trkpt lat="44.7091645" lon="8.8888263"><ele>240.0</ele><time>2026-04-06T14:17:14.772Z</time></trkpt><trkpt lat="44.7091622" lon="8.8889383"><ele>243.0</ele><time>2026-04-06T14:17:17.771Z</time></trkpt><trkpt lat="44.7091571" lon="8.8890572"><ele>243.0</ele><time>2026-04-06T14:17:20.772Z</time></trkpt><trkpt lat="44.7091505" lon="8.8891717"><ele>243.0</ele><time>2026-04-06T14:17:23.77Z</time></trkpt><trkpt lat="44.7091442" lon="8.8892889"><ele>243.0</ele><time>2026-04-06T14:17:26.772Z</time></trkpt><trkpt lat="44.709149" lon="8.8893887"><ele>243.0</ele><time>2026-04-06T14:17:29.771Z</time></trkpt><trkpt lat="44.7091243" lon="8.889501"><ele>243.0</ele><time>2026-04-06T14:17:33.771Z</time></trkpt><trkpt lat="44.7090688" lon="8.8895697"><ele>243.0</ele><time>2026-04-06T14:17:38.772Z</time></trkpt><trkpt lat="44.7090001" lon="8.8895734"><ele>243.33333333333334</ele><time>2026-04-06T14:17:42.771Z</time></trkpt><trkpt lat="44.7089197" lon="8.8895706"><ele>243.66666666666669</ele><time>2026-04-06T14:17:46.772Z</time></trkpt><trkpt lat="44.7088551" lon="8.8895761"><ele>244.0</ele><time>2026-04-06T14:17:49.772Z</time></trkpt><trkpt lat="44.7087813" lon="8.8896193"><ele>244.33333333333334</ele><time>2026-04-06T14:17:53.773Z</time></trkpt><trkpt lat="44.7087245" lon="8.889665"><ele>244.66666666666669</ele><time>2026-04-06T14:17:56.77Z</time></trkpt><trkpt lat="44.7086409" lon="8.8897301"><ele>245.0</ele><time>2026-04-06T14:17:59.772Z</time></trkpt><trkpt lat="44.7085653" lon="8.8898101"><ele>245.00000000000003</ele><time>2026-04-06T14:18:01.77Z</time></trkpt><trkpt lat="44.7084885" lon="8.8898791"><ele>245.0</ele><time>2026-04-06T14:18:03.771Z</time></trkpt><trkpt lat="44.70842" lon="8.8899631"><ele>245.0</ele><time>2026-04-06T14:18:05.773Z</time></trkpt><trkpt lat="44.7083738" lon="8.8900676"><ele>245.0</ele><time>2026-04-06T14:18:07.771Z</time></trkpt><trkpt lat="44.7083522" lon="8.8901688"><ele>245.00000000000003</ele><time>2026-04-06T14:18:09.771Z</time></trkpt><trkpt lat="44.7083608" lon="8.8902645"><ele>245.0</ele><time>2026-04-06T14:18:11.77Z</time></trkpt><trkpt lat="44.7083815" lon="8.8903555"><ele>245.00000000000003</ele><time>2026-04-06T14:18:13.771Z</time></trkpt><trkpt lat="44.7084158" lon="8.8904759"><ele>245.0</ele><time>2026-04-06T14:18:16.773Z</time></trkpt><trkpt lat="44.7084361" lon="8.8905885"><ele>245.0</ele><time>2026-04-06T14:18:19.772Z</time></trkpt><trkpt lat="44.708467" lon="8.8906863"><ele>245.0</ele><time>2026-04-06T14:18:22.772Z</time></trkpt><trkpt lat="44.7084927" lon="8.8907737"><ele>245.00000000000003</ele><time>2026-04-06T14:18:24.771Z</time></trkpt><trkpt lat="44.7085122" lon="8.89088"><ele>245.0</ele><time>2026-04-06T14:18:26.771Z</time></trkpt><trkpt lat="44.7085239" lon="8.8909834"><ele>245.00000000000003</ele><time>2026-04-06T14:18:28.772Z</time></trkpt><trkpt lat="44.708534" lon="8.8910849"><ele>245.0</ele><time>2026-04-06T14:18:30.77Z</time></trkpt><trkpt lat="44.7085299" lon="8.8911889"><ele>245.0</ele><time>2026-04-06T14:18:32.772Z</time></trkpt><trkpt lat="44.7085091" lon="8.8912795"><ele>245.0</ele><time>2026-04-06T14:18:34.772Z</time></trkpt><trkpt lat="44.7084932" lon="8.8913717"><ele>245.00000000000003</ele><time>2026-04-06T14:18:36.771Z</time></trkpt><trkpt lat="44.7084654" lon="8.8914954"><ele>245.0</ele><time>2026-04-06T14:18:39.771Z</time></trkpt><trkpt lat="44.7084213" lon="8.891601"><ele>245.0</ele><time>2026-04-06T14:18:42.772Z</time></trkpt><trkpt lat="44.7083473" lon="8.8916459"><ele>245.0</ele><time>2026-04-06T14:18:45.771Z</time></trkpt><trkpt lat="44.7082851" lon="8.8916624"><ele>245.0</ele><time>2026-04-06T14:18:48.771Z</time></trkpt><trkpt lat="44.7083604" lon="8.8916457"><ele>245.0</ele><time>2026-04-06T14:19:08.771Z</time></trkpt><trkpt lat="44.7084511" lon="8.8916102"><ele>245.0</ele><time>2026-04-06T14:19:11.773Z</time></trkpt><trkpt lat="44.7085003" lon="8.8915485"><ele>245.0</ele><time>2026-04-06T14:19:13.772Z</time></trkpt><trkpt lat="44.7085401" lon="8.8914716"><ele>245.0</ele><time>2026-04-06T14:19:15.772Z</time></trkpt><trkpt lat="44.7085731" lon="8.8913791"><ele>245.00000000000003</ele><time>2026-04-06T14:19:17.77Z</time></trkpt><trkpt lat="44.7086021" lon="8.89129"><ele>245.0</ele><time>2026-04-06T14:19:19.771Z</time></trkpt><trkpt lat="44.7086134" lon="8.8912013"><ele>245.0</ele><time>2026-04-06T14:19:21.771Z</time></trkpt><trkpt lat="44.708605" lon="8.8910864"><ele>245.0</ele><time>2026-04-06T14:19:24.771Z</time></trkpt><trkpt lat="44.7086545" lon="8.8910233"><ele>245.00000000000003</ele><time>2026-04-06T14:19:28.772Z</time></trkpt><trkpt lat="44.7087276" lon="8.8909967"><ele>245.0</ele><time>2026-04-06T14:19:31.77Z</time></trkpt><trkpt lat="44.7088197" lon="8.8909306"><ele>245.16666666666669</ele><time>2026-04-06T14:19:34.772Z</time></trkpt><trkpt lat="44.7088943" lon="8.8908821"><ele>245.33333333333334</ele><time>2026-04-06T14:19:36.77Z</time></trkpt><trkpt lat="44.7089701" lon="8.890844"><ele>245.5</ele><time>2026-04-06T14:19:38.77Z</time></trkpt><trkpt lat="44.7090559" lon="8.8908041"><ele>245.66666666666669</ele><time>2026-04-06T14:19:40.771Z</time></trkpt><trkpt lat="44.7091374" lon="8.8907716"><ele>245.83333333333334</ele><time>2026-04-06T14:19:42.77Z</time></trkpt><trkpt lat="44.7092043" lon="8.8907266"><ele>246.0</ele><time>2026-04-06T14:19:44.772Z</time></trkpt><trkpt lat="44.7092704" lon="8.8906938"><ele>246.00000000000003</ele><time>2026-04-06T14:19:46.773Z</time></trkpt><trkpt lat="44.7093556" lon="8.8906597"><ele>246.0</ele><time>2026-04-06T14:19:49.772Z</time></trkpt><trkpt lat="44.7094204" lon="8.8906798"><ele>246.00000000000003</ele><time>2026-04-06T14:19:53.77Z</time></trkpt><trkpt lat="44.7094304" lon="8.8907882"><ele>246.00000000000003</ele><time>2026-04-06T14:19:56.771Z</time></trkpt><trkpt lat="44.7094398" lon="8.890881"><ele>246.0</ele><time>2026-04-06T14:19:58.772Z</time></trkpt><trkpt lat="44.7094523" lon="8.8909772"><ele>246.00000000000003</ele><time>2026-04-06T14:20:00.771Z</time></trkpt><trkpt lat="44.7094689" lon="8.891077"><ele>246.00000000000003</ele><time>2026-04-06T14:20:02.772Z</time></trkpt><trkpt lat="44.709481" lon="8.8911796"><ele>245.71428571428575</ele><time>2026-04-06T14:20:04.771Z</time></trkpt><trkpt lat="44.7094878" lon="8.8912786"><ele>245.42857142857144</ele><time>2026-04-06T14:20:06.772Z</time></trkpt><trkpt lat="44.7094958" lon="8.8913699"><ele>245.14285714285714</ele><time>2026-04-06T14:20:08.772Z</time></trkpt><trkpt lat="44.7095089" lon="8.8914803"><ele>244.85714285714286</ele><time>2026-04-06T14:20:10.771Z</time></trkpt><trkpt lat="44.709523" lon="8.8915813"><ele>244.57142857142856</ele><time>2026-04-06T14:20:12.771Z</time></trkpt><trkpt lat="44.7095322" lon="8.8916723"><ele>244.28571428571425</ele><time>2026-04-06T14:20:14.773Z</time></trkpt><trkpt lat="44.709543" lon="8.8917729"><ele>243.99999999999997</ele><time>2026-04-06T14:20:16.772Z</time></trkpt><trkpt lat="44.7095483" lon="8.8918683"><ele>243.99999999999997</ele><time>2026-04-06T14:20:18.771Z</time></trkpt><trkpt lat="44.7095577" lon="8.8919646"><ele>244.0</ele><time>2026-04-06T14:20:20.771Z</time></trkpt><trkpt lat="44.7095609" lon="8.8920585"><ele>243.99999999999997</ele><time>2026-04-06T14:20:22.771Z</time></trkpt><trkpt lat="44.709572" lon="8.8921479"><ele>243.99999999999997</ele><time>2026-04-06T14:20:24.771Z</time></trkpt><trkpt lat="44.7095799" lon="8.8922445"><ele>244.0</ele><time>2026-04-06T14:20:26.772Z</time></trkpt><trkpt lat="44.7095926" lon="8.8923339"><ele>243.99999999999997</ele><time>2026-04-06T14:20:28.772Z</time></trkpt><trkpt lat="44.7096119" lon="8.8924607"><ele>243.99999999999997</ele><time>2026-04-06T14:20:31.771Z</time></trkpt><trkpt lat="44.7096251" lon="8.8925523"><ele>243.99999999999997</ele><time>2026-04-06T14:20:33.772Z</time></trkpt><trkpt lat="44.7096399" lon="8.8926432"><ele>244.0</ele><time>2026-04-06T14:20:35.77Z</time></trkpt><trkpt lat="44.7096465" lon="8.8927441"><ele>243.99999999999997</ele><time>2026-04-06T14:20:37.77Z</time></trkpt><trkpt lat="44.7096518" lon="8.8928475"><ele>243.99999999999997</ele><time>2026-04-06T14:20:39.772Z</time></trkpt><trkpt lat="44.7096676" lon="8.8929494"><ele>244.0</ele><time>2026-04-06T14:20:41.771Z</time></trkpt><trkpt lat="44.7096733" lon="8.8930544"><ele>243.99999999999997</ele><time>2026-04-06T14:20:43.773Z</time></trkpt><trkpt lat="44.7096784" lon="8.8931629"><ele>243.99999999999997</ele><time>2026-04-06T14:20:45.77Z</time></trkpt><trkpt lat="44.709691" lon="8.8932705"><ele>243.99999999999997</ele><time>2026-04-06T14:20:47.77Z</time></trkpt><trkpt lat="44.7097103" lon="8.8933743"><ele>244.0</ele><time>2026-04-06T14:20:49.771Z</time></trkpt><trkpt lat="44.7097272" lon="8.8934745"><ele>243.99999999999997</ele><time>2026-04-06T14:20:51.77Z</time></trkpt><trkpt lat="44.7097459" lon="8.8935714"><ele>243.99999999999997</ele><time>2026-04-06T14:20:53.771Z</time></trkpt><trkpt lat="44.7097582" lon="8.8936747"><ele>244.0</ele><time>2026-04-06T14:20:55.771Z</time></trkpt><trkpt lat="44.7097719" lon="8.8937763"><ele>243.99999999999997</ele><time>2026-04-06T14:20:57.77Z</time></trkpt><trkpt lat="44.7097731" lon="8.8938792"><ele>243.99999999999997</ele><time>2026-04-06T14:20:59.772Z</time></trkpt><trkpt lat="44.7097783" lon="8.8939836"><ele>243.85714285714283</ele><time>2026-04-06T14:21:01.771Z</time></trkpt><trkpt lat="44.7097923" lon="8.8940896"><ele>243.71428571428572</ele><time>2026-04-06T14:21:03.771Z</time></trkpt><trkpt lat="44.7098072" lon="8.8941968"><ele>243.57142857142856</ele><time>2026-04-06T14:21:05.771Z</time></trkpt><trkpt lat="44.709822" lon="8.8943"><ele>243.42857142857142</ele><time>2026-04-06T14:21:07.771Z</time></trkpt><trkpt lat="44.7098435" lon="8.8943969"><ele>243.28571428571428</ele><time>2026-04-06T14:21:09.771Z</time></trkpt><trkpt lat="44.7098641" lon="8.8944855"><ele>243.14285714285714</ele><time>2026-04-06T14:21:11.771Z</time></trkpt><trkpt lat="44.7098855" lon="8.8945835"><ele>243.0</ele><time>2026-04-06T14:21:13.771Z</time></trkpt><trkpt lat="44.7099086" lon="8.8946913"><ele>243.66666666666666</ele><time>2026-04-06T14:21:15.772Z</time></trkpt><trkpt lat="44.7099404" lon="8.8947976"><ele>244.33333333333331</ele><time>2026-04-06T14:21:17.771Z</time></trkpt><trkpt lat="44.7099692" lon="8.8949034"><ele>245.0</ele><time>2026-04-06T14:21:19.772Z</time></trkpt><trkpt lat="44.7099971" lon="8.8949979"><ele>245.66666666666666</ele><time>2026-04-06T14:21:21.773Z</time></trkpt><trkpt lat="44.7100239" lon="8.8950931"><ele>246.33333333333331</ele><time>2026-04-06T14:21:23.771Z</time></trkpt><trkpt lat="44.7100527" lon="8.8951941"><ele>247.0</ele><time>2026-04-06T14:21:25.77Z</time></trkpt><trkpt lat="44.7100725" lon="8.8952897"><ele>247.14285714285717</ele><time>2026-04-06T14:21:27.772Z</time></trkpt><trkpt lat="44.7100948" lon="8.895377"><ele>247.28571428571428</ele><time>2026-04-06T14:21:29.772Z</time></trkpt><trkpt lat="44.7101245" lon="8.8954709"><ele>247.42857142857144</ele><time>2026-04-06T14:21:31.77Z</time></trkpt><trkpt lat="44.7101598" lon="8.8955687"><ele>247.57142857142858</ele><time>2026-04-06T14:21:33.772Z</time></trkpt><trkpt lat="44.7101907" lon="8.8956652"><ele>247.71428571428572</ele><time>2026-04-06T14:21:35.771Z</time></trkpt><trkpt lat="44.7102224" lon="8.895749"><ele>247.85714285714286</ele><time>2026-04-06T14:21:37.771Z</time></trkpt><trkpt lat="44.7102576" lon="8.8958368"><ele>248.0</ele><time>2026-04-06T14:21:39.771Z</time></trkpt><trkpt lat="44.7102866" lon="8.8959299"><ele>246.66666666666669</ele><time>2026-04-06T14:21:41.77Z</time></trkpt><trkpt lat="44.710321" lon="8.8960236"><ele>245.33333333333334</ele><time>2026-04-06T14:21:43.77Z</time></trkpt><trkpt lat="44.7103572" lon="8.8961099"><ele>244.0</ele><time>2026-04-06T14:21:45.772Z</time></trkpt><trkpt lat="44.7103969" lon="8.8962318"><ele>242.66666666666669</ele><time>2026-04-06T14:21:48.771Z</time></trkpt><trkpt lat="44.7104283" lon="8.8963184"><ele>241.33333333333334</ele><time>2026-04-06T14:21:50.771Z</time></trkpt><trkpt lat="44.7104632" lon="8.896406"><ele>240.0</ele><time>2026-04-06T14:21:52.771Z</time></trkpt><trkpt lat="44.710496" lon="8.8964969"><ele>240.0</ele><time>2026-04-06T14:21:54.771Z</time></trkpt><trkpt lat="44.7105289" lon="8.8965913"><ele>240.0</ele><time>2026-04-06T14:21:56.77Z</time></trkpt><trkpt lat="44.7105609" lon="8.8966885"><ele>240.0</ele><time>2026-04-06T14:21:58.771Z</time></trkpt><trkpt lat="44.7105874" lon="8.8967807"><ele>240.0</ele><time>2026-04-06T14:22:00.771Z</time></trkpt><trkpt lat="44.7106196" lon="8.8968623"><ele>240.0</ele><time>2026-04-06T14:22:02.771Z</time></trkpt><trkpt lat="44.7106456" lon="8.896943"><ele>240.0</ele><time>2026-04-06T14:22:04.771Z</time></trkpt><trkpt lat="44.710688" lon="8.8970473"><ele>240.0</ele><time>2026-04-06T14:22:07.771Z</time></trkpt><trkpt lat="44.7107137" lon="8.8971315"><ele>240.71428571428572</ele><time>2026-04-06T14:22:09.771Z</time></trkpt><trkpt lat="44.7107416" lon="8.897213"><ele>241.42857142857142</ele><time>2026-04-06T14:22:11.771Z</time></trkpt><trkpt lat="44.7107741" lon="8.897332"><ele>242.14285714285714</ele><time>2026-04-06T14:22:14.77Z</time></trkpt><trkpt lat="44.7108047" lon="8.8974162"><ele>242.85714285714286</ele><time>2026-04-06T14:22:16.77Z</time></trkpt><trkpt lat="44.7108317" lon="8.8975136"><ele>243.57142857142856</ele><time>2026-04-06T14:22:18.771Z</time></trkpt><trkpt lat="44.7108587" lon="8.8976036"><ele>244.28571428571428</ele><time>2026-04-06T14:22:20.77Z</time></trkpt><trkpt lat="44.7108845" lon="8.8977009"><ele>245.0</ele><time>2026-04-06T14:22:22.772Z</time></trkpt><trkpt lat="44.7109025" lon="8.8978083"><ele>245.42857142857144</ele><time>2026-04-06T14:22:24.771Z</time></trkpt><trkpt lat="44.710922" lon="8.8979076"><ele>245.85714285714286</ele><time>2026-04-06T14:22:26.771Z</time></trkpt><trkpt lat="44.7109395" lon="8.8979956"><ele>246.28571428571428</ele><time>2026-04-06T14:22:28.771Z</time></trkpt><trkpt lat="44.7109611" lon="8.8981051"><ele>246.71428571428572</ele><time>2026-04-06T14:22:31.771Z</time></trkpt><trkpt lat="44.7109833" lon="8.8982339"><ele>247.14285714285717</ele><time>2026-04-06T14:22:34.772Z</time></trkpt><trkpt lat="44.710998" lon="8.8983221"><ele>247.57142857142858</ele><time>2026-04-06T14:22:36.77Z</time></trkpt><trkpt lat="44.7110142" lon="8.8984164"><ele>248.0</ele><time>2026-04-06T14:22:38.771Z</time></trkpt><trkpt lat="44.7110316" lon="8.8985109"><ele>248.14285714285717</ele><time>2026-04-06T14:22:40.772Z</time></trkpt><trkpt lat="44.7110517" lon="8.8986029"><ele>248.2857142857143</ele><time>2026-04-06T14:22:42.771Z</time></trkpt><trkpt lat="44.7110751" lon="8.8986932"><ele>248.42857142857144</ele><time>2026-04-06T14:22:44.771Z</time></trkpt><trkpt lat="44.7111049" lon="8.8987893"><ele>248.57142857142856</ele><time>2026-04-06T14:22:46.772Z</time></trkpt><trkpt lat="44.711137" lon="8.898884"><ele>248.7142857142857</ele><time>2026-04-06T14:22:48.771Z</time></trkpt><trkpt lat="44.711164" lon="8.8989731"><ele>248.85714285714283</ele><time>2026-04-06T14:22:50.771Z</time></trkpt><trkpt lat="44.7111879" lon="8.8990627"><ele>249.0</ele><time>2026-04-06T14:22:52.771Z</time></trkpt><trkpt lat="44.7112213" lon="8.8991585"><ele>249.0</ele><time>2026-04-06T14:22:54.771Z</time></trkpt><trkpt lat="44.7112553" lon="8.8992438"><ele>249.0</ele><time>2026-04-06T14:22:56.772Z</time></trkpt><trkpt lat="44.71129" lon="8.8993243"><ele>249.0</ele><time>2026-04-06T14:22:58.772Z</time></trkpt><trkpt lat="44.7113346" lon="8.8994367"><ele>249.0</ele><time>2026-04-06T14:23:01.771Z</time></trkpt><trkpt lat="44.7113719" lon="8.8995223"><ele>249.0</ele><time>2026-04-06T14:23:03.772Z</time></trkpt><trkpt lat="44.7114116" lon="8.8996151"><ele>249.0</ele><time>2026-04-06T14:23:05.771Z</time></trkpt><trkpt lat="44.7114499" lon="8.8997151"><ele>249.16666666666666</ele><time>2026-04-06T14:23:07.773Z</time></trkpt><trkpt lat="44.7114919" lon="8.8998011"><ele>249.33333333333331</ele><time>2026-04-06T14:23:09.771Z</time></trkpt><trkpt lat="44.7115372" lon="8.8998837"><ele>249.5</ele><time>2026-04-06T14:23:11.77Z</time></trkpt><trkpt lat="44.7115729" lon="8.8999779"><ele>249.66666666666666</ele><time>2026-04-06T14:23:13.771Z</time></trkpt><trkpt lat="44.7116131" lon="8.9000682"><ele>249.83333333333331</ele><time>2026-04-06T14:23:15.772Z</time></trkpt><trkpt lat="44.7116609" lon="8.9001545"><ele>250.0</ele><time>2026-04-06T14:23:17.772Z</time></trkpt><trkpt lat="44.7117068" lon="8.9002431"><ele>250.14285714285714</ele><time>2026-04-06T14:23:19.771Z</time></trkpt><trkpt lat="44.7117487" lon="8.9003224"><ele>250.28571428571428</ele><time>2026-04-06T14:23:21.772Z</time></trkpt><trkpt lat="44.7117845" lon="8.9003956"><ele>250.42857142857142</ele><time>2026-04-06T14:23:23.771Z</time></trkpt><trkpt lat="44.7118242" lon="8.9004709"><ele>250.57142857142856</ele><time>2026-04-06T14:23:25.771Z</time></trkpt><trkpt lat="44.7118637" lon="8.9005552"><ele>250.71428571428572</ele><time>2026-04-06T14:23:27.77Z</time></trkpt><trkpt lat="44.7119126" lon="8.9006404"><ele>250.85714285714283</ele><time>2026-04-06T14:23:29.772Z</time></trkpt><trkpt lat="44.7119677" lon="8.9007282"><ele>250.99999999999997</ele><time>2026-04-06T14:23:31.77Z</time></trkpt><trkpt lat="44.7120143" lon="8.9008154"><ele>251.33333333333334</ele><time>2026-04-06T14:23:33.771Z</time></trkpt><trkpt lat="44.7120519" lon="8.9008938"><ele>251.66666666666669</ele><time>2026-04-06T14:23:35.771Z</time></trkpt><trkpt lat="44.7120919" lon="8.9010174"><ele>252.0</ele><time>2026-04-06T14:23:38.771Z</time></trkpt><trkpt lat="44.7121238" lon="8.901111"><ele>252.33333333333331</ele><time>2026-04-06T14:23:40.77Z</time></trkpt><trkpt lat="44.7121436" lon="8.9012001"><ele>252.66666666666666</ele><time>2026-04-06T14:23:42.772Z</time></trkpt><trkpt lat="44.7121592" lon="8.9012866"><ele>253.0</ele><time>2026-04-06T14:23:44.771Z</time></trkpt><trkpt lat="44.7121868" lon="8.9014052"><ele>253.00000000000003</ele><time>2026-04-06T14:23:47.771Z</time></trkpt><trkpt lat="44.7122089" lon="8.9015101"><ele>253.0</ele><time>2026-04-06T14:23:50.771Z</time></trkpt><trkpt lat="44.712182" lon="8.9016152"><ele>253.00000000000003</ele><time>2026-04-06T14:23:53.77Z</time></trkpt><trkpt lat="44.712128" lon="8.9016633"><ele>253.00000000000003</ele><time>2026-04-06T14:23:55.77Z</time></trkpt><trkpt lat="44.7120776" lon="8.9017291"><ele>253.0</ele><time>2026-04-06T14:23:57.771Z</time></trkpt><trkpt lat="44.7120281" lon="8.9017854"><ele>253.00000000000003</ele><time>2026-04-06T14:23:59.771Z</time></trkpt><trkpt lat="44.7119806" lon="8.9018456"><ele>253.00000000000003</ele><time>2026-04-06T14:24:01.77Z</time></trkpt><trkpt lat="44.7119305" lon="8.901907"><ele>253.00000000000003</ele><time>2026-04-06T14:24:03.771Z</time></trkpt><trkpt lat="44.7118824" lon="8.9019683"><ele>253.0</ele><time>2026-04-06T14:24:05.77Z</time></trkpt><trkpt lat="44.7118323" lon="8.9020319"><ele>253.00000000000003</ele><time>2026-04-06T14:24:07.77Z</time></trkpt><trkpt lat="44.7117789" lon="8.9021016"><ele>253.00000000000003</ele><time>2026-04-06T14:24:09.77Z</time></trkpt><trkpt lat="44.7117267" lon="8.9021694"><ele>253.0</ele><time>2026-04-06T14:24:11.77Z</time></trkpt><trkpt lat="44.7116764" lon="8.9022281"><ele>253.00000000000003</ele><time>2026-04-06T14:24:13.771Z</time></trkpt><trkpt lat="44.7116202" lon="8.902287"><ele>253.00000000000003</ele><time>2026-04-06T14:24:15.77Z</time></trkpt><trkpt lat="44.7115653" lon="8.9023489"><ele>253.00000000000003</ele><time>2026-04-06T14:24:17.772Z</time></trkpt><trkpt lat="44.7115128" lon="8.9024123"><ele>253.0</ele><time>2026-04-06T14:24:19.771Z</time></trkpt><trkpt lat="44.7114641" lon="8.9024765"><ele>253.00000000000003</ele><time>2026-04-06T14:24:21.77Z</time></trkpt><trkpt lat="44.7114123" lon="8.9025443"><ele>253.00000000000003</ele><time>2026-04-06T14:24:23.772Z</time></trkpt><trkpt lat="44.7113637" lon="8.9026069"><ele>253.0</ele><time>2026-04-06T14:24:25.77Z</time></trkpt><trkpt lat="44.7113345" lon="8.90269"><ele>253.00000000000003</ele><time>2026-04-06T14:24:27.771Z</time></trkpt><trkpt lat="44.7113354" lon="8.9028067"><ele>253.00000000000003</ele><time>2026-04-06T14:24:30.77Z</time></trkpt><trkpt lat="44.7113668" lon="8.9028954"><ele>252.99999999999997</ele><time>2026-04-06T14:24:34.772Z</time></trkpt><trkpt lat="44.711367" lon="8.9029842"><ele>253.0</ele><time>2026-04-06T14:24:51.77Z</time></trkpt><trkpt lat="44.7113413" lon="8.9031055"><ele>253.0</ele><time>2026-04-06T14:24:54.772Z</time></trkpt><trkpt lat="44.7113375" lon="8.9032359"><ele>253.0</ele><time>2026-04-06T14:24:57.77Z</time></trkpt><trkpt lat="44.711297" lon="8.9033507"><ele>252.99999999999997</ele><time>2026-04-06T14:25:00.771Z</time></trkpt><trkpt lat="44.7112458" lon="8.903409"><ele>253.0</ele><time>2026-04-06T14:25:02.771Z</time></trkpt><trkpt lat="44.7111883" lon="8.9034668"><ele>253.00000000000003</ele><time>2026-04-06T14:25:04.771Z</time></trkpt><trkpt lat="44.711138" lon="8.9035235"><ele>253.0</ele><time>2026-04-06T14:25:06.771Z</time></trkpt><trkpt lat="44.7110802" lon="8.9035693"><ele>253.00000000000003</ele><time>2026-04-06T14:25:08.772Z</time></trkpt><trkpt lat="44.71102" lon="8.903623"><ele>253.00000000000003</ele><time>2026-04-06T14:25:10.77Z</time></trkpt><trkpt lat="44.7109675" lon="8.9036751"><ele>253.0</ele><time>2026-04-06T14:25:12.77Z</time></trkpt><trkpt lat="44.7109168" lon="8.903728"><ele>253.00000000000003</ele><time>2026-04-06T14:25:14.77Z</time></trkpt><trkpt lat="44.7108422" lon="8.9037866"><ele>253.00000000000003</ele><time>2026-04-06T14:25:17.77Z</time></trkpt><trkpt lat="44.7107842" lon="8.9038349"><ele>253.14285714285717</ele><time>2026-04-06T14:25:19.77Z</time></trkpt><trkpt lat="44.7107244" lon="8.9038904"><ele>253.28571428571428</ele><time>2026-04-06T14:25:21.77Z</time></trkpt><trkpt lat="44.7106655" lon="8.9039345"><ele>253.42857142857144</ele><time>2026-04-06T14:25:23.771Z</time></trkpt><trkpt lat="44.7106019" lon="8.9039836"><ele>253.57142857142858</ele><time>2026-04-06T14:25:25.772Z</time></trkpt><trkpt lat="44.7105357" lon="8.9040359"><ele>253.71428571428572</ele><time>2026-04-06T14:25:27.771Z</time></trkpt><trkpt lat="44.7104624" lon="8.9040871"><ele>253.85714285714286</ele><time>2026-04-06T14:25:29.77Z</time></trkpt><trkpt lat="44.7103975" lon="8.904143"><ele>254.0</ele><time>2026-04-06T14:25:31.771Z</time></trkpt><trkpt lat="44.7103376" lon="8.9042029"><ele>254.0</ele><time>2026-04-06T14:25:33.771Z</time></trkpt><trkpt lat="44.7102676" lon="8.9042557"><ele>254.0</ele><time>2026-04-06T14:25:35.771Z</time></trkpt><trkpt lat="44.7102025" lon="8.9043018"><ele>254.0</ele><time>2026-04-06T14:25:37.77Z</time></trkpt><trkpt lat="44.7101475" lon="8.904348"><ele>254.0</ele><time>2026-04-06T14:25:39.77Z</time></trkpt><trkpt lat="44.7100844" lon="8.9044005"><ele>254.0</ele><time>2026-04-06T14:25:41.771Z</time></trkpt><trkpt lat="44.7100235" lon="8.9044399"><ele>254.0</ele><time>2026-04-06T14:25:43.77Z</time></trkpt><trkpt lat="44.7099675" lon="8.904493"><ele>254.0</ele><time>2026-04-06T14:25:45.77Z</time></trkpt><trkpt lat="44.7099049" lon="8.9045461"><ele>254.0</ele><time>2026-04-06T14:25:47.771Z</time></trkpt><trkpt lat="44.7098482" lon="8.9046022"><ele>254.0</ele><time>2026-04-06T14:25:49.77Z</time></trkpt><trkpt lat="44.7097989" lon="8.9046753"><ele>254.0</ele><time>2026-04-06T14:25:51.77Z</time></trkpt><trkpt lat="44.7097554" lon="8.904792"><ele>254.0</ele><time>2026-04-06T14:25:54.771Z</time></trkpt><trkpt lat="44.7097474" lon="8.9048837"><ele>254.0</ele><time>2026-04-06T14:25:56.772Z</time></trkpt><trkpt lat="44.709746" lon="8.9049729"><ele>254.0</ele><time>2026-04-06T14:25:58.772Z</time></trkpt><trkpt lat="44.7097475" lon="8.9050692"><ele>254.0</ele><time>2026-04-06T14:26:00.771Z</time></trkpt><trkpt lat="44.7097572" lon="8.9051628"><ele>254.14285714285717</ele><time>2026-04-06T14:26:02.77Z</time></trkpt><trkpt lat="44.7097691" lon="8.9052509"><ele>254.28571428571428</ele><time>2026-04-06T14:26:04.772Z</time></trkpt><trkpt lat="44.7097824" lon="8.9053422"><ele>254.42857142857144</ele><time>2026-04-06T14:26:06.771Z</time></trkpt><trkpt lat="44.7097925" lon="8.905439"><ele>254.57142857142858</ele><time>2026-04-06T14:26:08.771Z</time></trkpt><trkpt lat="44.7097935" lon="8.9055564"><ele>254.71428571428572</ele><time>2026-04-06T14:26:11.771Z</time></trkpt><trkpt lat="44.7097304" lon="8.9054798"><ele>254.85714285714286</ele><time>2026-04-06T14:26:15.769Z</time></trkpt><trkpt lat="44.7097254" lon="8.9053833"><ele>255.0</ele><time>2026-04-06T14:26:17.77Z</time></trkpt><trkpt lat="44.7097189" lon="8.9052813"><ele>255.0</ele><time>2026-04-06T14:26:19.771Z</time></trkpt><trkpt lat="44.7096984" lon="8.9051768"><ele>255.00000000000003</ele><time>2026-04-06T14:26:21.771Z</time></trkpt><trkpt lat="44.7096482" lon="8.90509"><ele>255.0</ele><time>2026-04-06T14:26:23.77Z</time></trkpt><trkpt lat="44.7095792" lon="8.9050333"><ele>255.0</ele><time>2026-04-06T14:26:25.771Z</time></trkpt><trkpt lat="44.7095128" lon="8.9049907"><ele>255.00000000000003</ele><time>2026-04-06T14:26:27.772Z</time></trkpt><trkpt lat="44.7094496" lon="8.9049555"><ele>255.0</ele><time>2026-04-06T14:26:29.771Z</time></trkpt><trkpt lat="44.7093905" lon="8.9049222"><ele>255.0</ele><time>2026-04-06T14:26:31.771Z</time></trkpt><trkpt lat="44.7093122" lon="8.9048876"><ele>254.66666666666666</ele><time>2026-04-06T14:26:34.771Z</time></trkpt><trkpt lat="44.7092495" lon="8.9048559"><ele>254.33333333333331</ele><time>2026-04-06T14:26:37.772Z</time></trkpt><trkpt lat="44.709184" lon="8.9048073"><ele>254.0</ele><time>2026-04-06T14:26:41.77Z</time></trkpt><trkpt lat="44.7091006" lon="8.9047369"><ele>253.66666666666666</ele><time>2026-04-06T14:26:44.769Z</time></trkpt><trkpt lat="44.7090469" lon="8.9046516"><ele>253.33333333333331</ele><time>2026-04-06T14:26:46.771Z</time></trkpt><trkpt lat="44.7090051" lon="8.9045648"><ele>253.0</ele><time>2026-04-06T14:26:48.77Z</time></trkpt><trkpt lat="44.708962" lon="8.9044774"><ele>253.00000000000003</ele><time>2026-04-06T14:26:50.772Z</time></trkpt><trkpt lat="44.7089243" lon="8.9043934"><ele>253.0</ele><time>2026-04-06T14:26:52.77Z</time></trkpt><trkpt lat="44.7088925" lon="8.9043138"><ele>253.00000000000003</ele><time>2026-04-06T14:26:54.772Z</time></trkpt><trkpt lat="44.708859" lon="8.9042378"><ele>253.00000000000003</ele><time>2026-04-06T14:26:56.772Z</time></trkpt><trkpt lat="44.7088083" lon="8.904136"><ele>253.0</ele><time>2026-04-06T14:26:59.77Z</time></trkpt><trkpt lat="44.7087595" lon="8.9040485"><ele>253.00000000000003</ele><time>2026-04-06T14:27:02.77Z</time></trkpt><trkpt lat="44.7087245" lon="8.9039673"><ele>253.00000000000003</ele><time>2026-04-06T14:27:05.77Z</time></trkpt><trkpt lat="44.7086789" lon="8.9038493"><ele>252.99999999999997</ele><time>2026-04-06T14:27:08.771Z</time></trkpt><trkpt lat="44.7086342" lon="8.9037602"><ele>253.0</ele><time>2026-04-06T14:27:10.772Z</time></trkpt><trkpt lat="44.7085906" lon="8.9036668"><ele>253.0</ele><time>2026-04-06T14:27:12.771Z</time></trkpt><trkpt lat="44.7085499" lon="8.9035762"><ele>253.0</ele><time>2026-04-06T14:27:14.771Z</time></trkpt><trkpt lat="44.7085059" lon="8.9034752"><ele>252.99999999999997</ele><time>2026-04-06T14:27:16.771Z</time></trkpt><trkpt lat="44.7084618" lon="8.9033765"><ele>253.0</ele><time>2026-04-06T14:27:18.77Z</time></trkpt><trkpt lat="44.7084161" lon="8.9032822"><ele>252.99999999999997</ele><time>2026-04-06T14:27:20.772Z</time></trkpt><trkpt lat="44.7083739" lon="8.9031883"><ele>253.0</ele><time>2026-04-06T14:27:22.771Z</time></trkpt><trkpt lat="44.7083318" lon="8.9030925"><ele>253.0</ele><time>2026-04-06T14:27:24.77Z</time></trkpt><trkpt lat="44.7082896" lon="8.9029937"><ele>253.0</ele><time>2026-04-06T14:27:26.771Z</time></trkpt><trkpt lat="44.7082439" lon="8.9028972"><ele>252.99999999999997</ele><time>2026-04-06T14:27:28.772Z</time></trkpt><trkpt lat="44.7081967" lon="8.9027967"><ele>253.0</ele><time>2026-04-06T14:27:30.77Z</time></trkpt><trkpt lat="44.7081488" lon="8.9026909"><ele>252.99999999999997</ele><time>2026-04-06T14:27:32.771Z</time></trkpt><trkpt lat="44.7081044" lon="8.902585"><ele>253.0</ele><time>2026-04-06T14:27:34.77Z</time></trkpt><trkpt lat="44.7080523" lon="8.9024876"><ele>253.0</ele><time>2026-04-06T14:27:36.771Z</time></trkpt><trkpt lat="44.7080058" lon="8.9023797"><ele>253.0</ele><time>2026-04-06T14:27:38.771Z</time></trkpt><trkpt lat="44.7079545" lon="8.9022726"><ele>252.99999999999997</ele><time>2026-04-06T14:27:40.771Z</time></trkpt><trkpt lat="44.7079066" lon="8.9021628"><ele>253.0</ele><time>2026-04-06T14:27:42.77Z</time></trkpt><trkpt lat="44.7078591" lon="8.9020572"><ele>252.99999999999997</ele><time>2026-04-06T14:27:44.77Z</time></trkpt><trkpt lat="44.7078136" lon="8.901956"><ele>253.0</ele><time>2026-04-06T14:27:46.771Z</time></trkpt><trkpt lat="44.7077654" lon="8.9018535"><ele>253.0</ele><time>2026-04-06T14:27:48.772Z</time></trkpt><trkpt lat="44.7077215" lon="8.9017499"><ele>253.0</ele><time>2026-04-06T14:27:50.77Z</time></trkpt><trkpt lat="44.7076746" lon="8.901653"><ele>252.99999999999997</ele><time>2026-04-06T14:27:52.772Z</time></trkpt><trkpt lat="44.7076315" lon="8.9015576"><ele>253.0</ele><time>2026-04-06T14:27:54.77Z</time></trkpt><trkpt lat="44.7075879" lon="8.901463"><ele>252.83333333333331</ele><time>2026-04-06T14:27:56.771Z</time></trkpt><trkpt lat="44.7075472" lon="8.901368"><ele>252.66666666666666</ele><time>2026-04-06T14:27:58.771Z</time></trkpt><trkpt lat="44.7075014" lon="8.9012799"><ele>252.5</ele><time>2026-04-06T14:28:00.772Z</time></trkpt><trkpt lat="44.7074514" lon="8.9011781"><ele>252.33333333333331</ele><time>2026-04-06T14:28:02.771Z</time></trkpt><trkpt lat="44.7073976" lon="8.9010708"><ele>252.16666666666666</ele><time>2026-04-06T14:28:04.772Z</time></trkpt><trkpt lat="44.7073622" lon="8.9009672"><ele>252.0</ele><time>2026-04-06T14:28:06.772Z</time></trkpt><trkpt lat="44.7073143" lon="8.9008602"><ele>251.5</ele><time>2026-04-06T14:28:08.771Z</time></trkpt><trkpt lat="44.7072607" lon="8.9007526"><ele>251.0</ele><time>2026-04-06T14:28:10.77Z</time></trkpt><trkpt lat="44.7072132" lon="8.9006453"><ele>250.5</ele><time>2026-04-06T14:28:12.771Z</time></trkpt><trkpt lat="44.7071677" lon="8.9005461"><ele>250.0</ele><time>2026-04-06T14:28:14.771Z</time></trkpt><trkpt lat="44.7071259" lon="8.9004477"><ele>249.5</ele><time>2026-04-06T14:28:16.771Z</time></trkpt><trkpt lat="44.7070826" lon="8.9003461"><ele>249.0</ele><time>2026-04-06T14:28:18.77Z</time></trkpt><trkpt lat="44.7070336" lon="8.900245"><ele>249.0</ele><time>2026-04-06T14:28:20.772Z</time></trkpt><trkpt lat="44.7069934" lon="8.9001492"><ele>249.0</ele><time>2026-04-06T14:28:22.771Z</time></trkpt><trkpt lat="44.7069567" lon="8.9000574"><ele>249.0</ele><time>2026-04-06T14:28:24.771Z</time></trkpt><trkpt lat="44.7069197" lon="8.8999753"><ele>249.0</ele><time>2026-04-06T14:28:26.769Z</time></trkpt><trkpt lat="44.7068796" lon="8.8998845"><ele>249.0</ele><time>2026-04-06T14:28:28.771Z</time></trkpt><trkpt lat="44.706836" lon="8.8997953"><ele>249.0</ele><time>2026-04-06T14:28:30.769Z</time></trkpt><trkpt lat="44.706797" lon="8.899706"><ele>249.0</ele><time>2026-04-06T14:28:32.771Z</time></trkpt><trkpt lat="44.7067543" lon="8.8996126"><ele>249.0</ele><time>2026-04-06T14:28:34.77Z</time></trkpt><trkpt lat="44.7067089" lon="8.8995163"><ele>249.0</ele><time>2026-04-06T14:28:36.77Z</time></trkpt><trkpt lat="44.7066661" lon="8.8994172"><ele>249.0</ele><time>2026-04-06T14:28:38.771Z</time></trkpt><trkpt lat="44.7066205" lon="8.8993186"><ele>249.0</ele><time>2026-04-06T14:28:40.77Z</time></trkpt><trkpt lat="44.7065781" lon="8.8992213"><ele>249.0</ele><time>2026-04-06T14:28:42.77Z</time></trkpt><trkpt lat="44.7065359" lon="8.8991265"><ele>249.0</ele><time>2026-04-06T14:28:44.772Z</time></trkpt><trkpt lat="44.7064888" lon="8.899033"><ele>249.0</ele><time>2026-04-06T14:28:46.77Z</time></trkpt><trkpt lat="44.7064286" lon="8.8989443"><ele>249.0</ele><time>2026-04-06T14:28:48.771Z</time></trkpt><trkpt lat="44.7063688" lon="8.8988585"><ele>249.0</ele><time>2026-04-06T14:28:50.769Z</time></trkpt><trkpt lat="44.7063092" lon="8.8987741"><ele>249.0</ele><time>2026-04-06T14:28:52.77Z</time></trkpt><trkpt lat="44.7062508" lon="8.898694"><ele>249.0</ele><time>2026-04-06T14:28:54.771Z</time></trkpt><trkpt lat="44.7061983" lon="8.8986124"><ele>249.0</ele><time>2026-04-06T14:28:56.77Z</time></trkpt><trkpt lat="44.7061427" lon="8.8985392"><ele>249.0</ele><time>2026-04-06T14:28:58.77Z</time></trkpt><trkpt lat="44.7061015" lon="8.8984582"><ele>249.0</ele><time>2026-04-06T14:29:00.77Z</time></trkpt><trkpt lat="44.706071" lon="8.8983603"><ele>249.0</ele><time>2026-04-06T14:29:02.771Z</time></trkpt><trkpt lat="44.7060398" lon="8.8982407"><ele>249.0</ele><time>2026-04-06T14:29:04.77Z</time></trkpt><trkpt lat="44.7059987" lon="8.8981254"><ele>249.0</ele><time>2026-04-06T14:29:06.771Z</time></trkpt><trkpt lat="44.7059563" lon="8.8980122"><ele>248.79999999999998</ele><time>2026-04-06T14:29:08.77Z</time></trkpt><trkpt lat="44.7059104" lon="8.8979035"><ele>248.59999999999997</ele><time>2026-04-06T14:29:10.769Z</time></trkpt><trkpt lat="44.7058716" lon="8.8977893"><ele>248.4</ele><time>2026-04-06T14:29:12.771Z</time></trkpt><trkpt lat="44.7058235" lon="8.8976611"><ele>248.2</ele><time>2026-04-06T14:29:14.772Z</time></trkpt><trkpt lat="44.7057689" lon="8.8975351"><ele>248.0</ele><time>2026-04-06T14:29:16.771Z</time></trkpt><trkpt lat="44.7057175" lon="8.8974186"><ele>247.2</ele><time>2026-04-06T14:29:18.771Z</time></trkpt><trkpt lat="44.7056729" lon="8.8972988"><ele>246.4</ele><time>2026-04-06T14:29:20.769Z</time></trkpt><trkpt lat="44.7056238" lon="8.8971896"><ele>245.59999999999997</ele><time>2026-04-06T14:29:22.771Z</time></trkpt><trkpt lat="44.7055688" lon="8.8970713"><ele>244.79999999999998</ele><time>2026-04-06T14:29:24.77Z</time></trkpt><trkpt lat="44.705507" lon="8.8969562"><ele>244.0</ele><time>2026-04-06T14:29:26.77Z</time></trkpt><trkpt lat="44.7054474" lon="8.8968458"><ele>244.0</ele><time>2026-04-06T14:29:28.771Z</time></trkpt><trkpt lat="44.7053919" lon="8.8967391"><ele>243.99999999999997</ele><time>2026-04-06T14:29:30.77Z</time></trkpt><trkpt lat="44.7053344" lon="8.8966267"><ele>243.99999999999997</ele><time>2026-04-06T14:29:32.77Z</time></trkpt><trkpt lat="44.7052824" lon="8.8965101"><ele>244.0</ele><time>2026-04-06T14:29:34.77Z</time></trkpt><trkpt lat="44.7052251" lon="8.896395"><ele>244.0</ele><time>2026-04-06T14:29:36.769Z</time></trkpt><trkpt lat="44.7051745" lon="8.896295"><ele>244.49999999999997</ele><time>2026-04-06T14:29:38.77Z</time></trkpt><trkpt lat="44.7051317" lon="8.896228"><ele>245.0</ele><time>2026-04-06T14:29:40.772Z</time></trkpt><trkpt lat="44.7050731" lon="8.8961325"><ele>245.5</ele><time>2026-04-06T14:29:43.771Z</time></trkpt><trkpt lat="44.7050145" lon="8.8960271"><ele>246.0</ele><time>2026-04-06T14:29:46.771Z</time></trkpt><trkpt lat="44.7049765" lon="8.8959484"><ele>246.49999999999997</ele><time>2026-04-06T14:29:48.771Z</time></trkpt><trkpt lat="44.7049323" lon="8.8958723"><ele>247.0</ele><time>2026-04-06T14:29:50.771Z</time></trkpt><trkpt lat="44.7048738" lon="8.8958052"><ele>247.0</ele><time>2026-04-06T14:29:52.772Z</time></trkpt><trkpt lat="44.7048201" lon="8.8957211"><ele>247.0</ele><time>2026-04-06T14:29:54.771Z</time></trkpt><trkpt lat="44.7047676" lon="8.8956446"><ele>247.0</ele><time>2026-04-06T14:29:56.769Z</time></trkpt><trkpt lat="44.7047145" lon="8.8955757"><ele>247.0</ele><time>2026-04-06T14:29:58.772Z</time></trkpt><trkpt lat="44.7046613" lon="8.8955066"><ele>247.0</ele><time>2026-04-06T14:30:00.77Z</time></trkpt><trkpt lat="44.7046109" lon="8.8954417"><ele>247.0</ele><time>2026-04-06T14:30:02.77Z</time></trkpt><trkpt lat="44.7045599" lon="8.8953745"><ele>247.0</ele><time>2026-04-06T14:30:04.77Z</time></trkpt><trkpt lat="44.7045093" lon="8.8953121"><ele>246.99999999999997</ele><time>2026-04-06T14:30:06.771Z</time></trkpt><trkpt lat="44.7044403" lon="8.8952299"><ele>247.0</ele><time>2026-04-06T14:30:09.77Z</time></trkpt><trkpt lat="44.704383" lon="8.8951513"><ele>247.0</ele><time>2026-04-06T14:30:12.77Z</time></trkpt><trkpt lat="44.7043253" lon="8.8950678"><ele>247.0</ele><time>2026-04-06T14:30:15.77Z</time></trkpt><trkpt lat="44.7042739" lon="8.8949897"><ele>246.99999999999997</ele><time>2026-04-06T14:30:18.771Z</time></trkpt><trkpt lat="44.7042434" lon="8.8949119"><ele>247.0</ele><time>2026-04-06T14:30:21.771Z</time></trkpt><trkpt lat="44.7042026" lon="8.8948203"><ele>246.66666666666666</ele><time>2026-04-06T14:30:24.771Z</time></trkpt><trkpt lat="44.7041597" lon="8.8947194"><ele>246.33333333333331</ele><time>2026-04-06T14:30:27.771Z</time></trkpt><trkpt lat="44.7041186" lon="8.8946286"><ele>246.0</ele><time>2026-04-06T14:30:30.77Z</time></trkpt><trkpt lat="44.7040698" lon="8.8945395"><ele>245.66666666666669</ele><time>2026-04-06T14:30:34.771Z</time></trkpt><trkpt lat="44.7039924" lon="8.8944803"><ele>245.33333333333334</ele><time>2026-04-06T14:30:38.771Z</time></trkpt><trkpt lat="44.7039107" lon="8.8944499"><ele>245.0</ele><time>2026-04-06T14:30:41.772Z</time></trkpt><trkpt lat="44.7038361" lon="8.8943968"><ele>245.00000000000003</ele><time>2026-04-06T14:30:44.771Z</time></trkpt><trkpt lat="44.7037757" lon="8.894313"><ele>245.0</ele><time>2026-04-06T14:30:47.77Z</time></trkpt><trkpt lat="44.7037325" lon="8.8942185"><ele>245.0</ele><time>2026-04-06T14:30:50.77Z</time></trkpt><trkpt lat="44.7036982" lon="8.8941212"><ele>245.0</ele><time>2026-04-06T14:30:53.772Z</time></trkpt><trkpt lat="44.7036689" lon="8.89403"><ele>245.00000000000003</ele><time>2026-04-06T14:30:56.771Z</time></trkpt><trkpt lat="44.7036379" lon="8.8939333"><ele>245.0</ele><time>2026-04-06T14:30:59.77Z</time></trkpt><trkpt lat="44.7036074" lon="8.8938348"><ele>244.83333333333334</ele><time>2026-04-06T14:31:02.771Z</time></trkpt><trkpt lat="44.7035667" lon="8.8937236"><ele>244.66666666666669</ele><time>2026-04-06T14:31:05.77Z</time></trkpt><trkpt lat="44.703518" lon="8.8936135"><ele>244.5</ele><time>2026-04-06T14:31:08.77Z</time></trkpt><trkpt lat="44.7034678" lon="8.8935055"><ele>244.33333333333331</ele><time>2026-04-06T14:31:11.771Z</time></trkpt><trkpt lat="44.7034297" lon="8.8934173"><ele>244.16666666666666</ele><time>2026-04-06T14:31:13.771Z</time></trkpt><trkpt lat="44.7033928" lon="8.8933342"><ele>244.0</ele><time>2026-04-06T14:31:15.77Z</time></trkpt><trkpt lat="44.703356" lon="8.893251"><ele>243.99999999999997</ele><time>2026-04-06T14:31:17.77Z</time></trkpt><trkpt lat="44.7033249" lon="8.8931645"><ele>244.0</ele><time>2026-04-06T14:31:19.769Z</time></trkpt><trkpt lat="44.7032929" lon="8.8930832"><ele>244.0</ele><time>2026-04-06T14:31:21.77Z</time></trkpt><trkpt lat="44.7032599" lon="8.8930054"><ele>244.0</ele><time>2026-04-06T14:31:23.77Z</time></trkpt><trkpt lat="44.7032154" lon="8.8928915"><ele>243.99999999999997</ele><time>2026-04-06T14:31:26.771Z</time></trkpt><trkpt lat="44.7031894" lon="8.8928015"><ele>244.0</ele><time>2026-04-06T14:31:28.77Z</time></trkpt><trkpt lat="44.7031545" lon="8.8926802"><ele>243.83333333333331</ele><time>2026-04-06T14:31:31.77Z</time></trkpt><trkpt lat="44.7031099" lon="8.8925651"><ele>243.66666666666666</ele><time>2026-04-06T14:31:34.771Z</time></trkpt><trkpt lat="44.7030756" lon="8.8924887"><ele>243.5</ele><time>2026-04-06T14:31:36.77Z</time></trkpt><trkpt lat="44.7030174" lon="8.8923956"><ele>243.33333333333331</ele><time>2026-04-06T14:31:39.769Z</time></trkpt><trkpt lat="44.7029593" lon="8.8922995"><ele>243.16666666666666</ele><time>2026-04-06T14:31:42.771Z</time></trkpt><trkpt lat="44.7029096" lon="8.8922286"><ele>243.0</ele><time>2026-04-06T14:31:44.771Z</time></trkpt><trkpt lat="44.7028579" lon="8.8921622"><ele>243.0</ele><time>2026-04-06T14:31:46.769Z</time></trkpt><trkpt lat="44.7028076" lon="8.8920966"><ele>243.0</ele><time>2026-04-06T14:31:48.77Z</time></trkpt><trkpt lat="44.7027549" lon="8.8920395"><ele>243.0</ele><time>2026-04-06T14:31:50.77Z</time></trkpt><trkpt lat="44.7027071" lon="8.8919777"><ele>243.0</ele><time>2026-04-06T14:31:52.77Z</time></trkpt><trkpt lat="44.7026571" lon="8.8919089"><ele>243.0</ele><time>2026-04-06T14:31:54.772Z</time></trkpt><trkpt lat="44.7025968" lon="8.8918356"><ele>243.0</ele><time>2026-04-06T14:31:56.77Z</time></trkpt><trkpt lat="44.7025251" lon="8.8917519"><ele>243.0</ele><time>2026-04-06T14:31:58.77Z</time></trkpt><trkpt lat="44.7024523" lon="8.891669"><ele>242.25</ele><time>2026-04-06T14:32:00.771Z</time></trkpt><trkpt lat="44.7023755" lon="8.8915651"><ele>241.5</ele><time>2026-04-06T14:32:02.77Z</time></trkpt><trkpt lat="44.7022946" lon="8.8914676"><ele>240.75</ele><time>2026-04-06T14:32:04.769Z</time></trkpt><trkpt lat="44.7022086" lon="8.8913499"><ele>240.0</ele><time>2026-04-06T14:32:06.77Z</time></trkpt><trkpt lat="44.7021233" lon="8.8912329"><ele>240.0</ele><time>2026-04-06T14:32:08.769Z</time></trkpt><trkpt lat="44.7020341" lon="8.891118"><ele>240.0</ele><time>2026-04-06T14:32:10.769Z</time></trkpt><trkpt lat="44.7019414" lon="8.8910039"><ele>240.0</ele><time>2026-04-06T14:32:12.771Z</time></trkpt><trkpt lat="44.7018851" lon="8.8909574"><ele>240.0</ele><time>2026-04-06T14:32:13.771Z</time></trkpt><trkpt lat="44.7018267" lon="8.8909193"><ele>240.0</ele><time>2026-04-06T14:32:14.769Z</time></trkpt><trkpt lat="44.7017671" lon="8.8908877"><ele>240.0</ele><time>2026-04-06T14:32:15.77Z</time></trkpt><trkpt lat="44.7016503" lon="8.8908526"><ele>240.66666666666666</ele><time>2026-04-06T14:32:17.769Z</time></trkpt><trkpt lat="44.7015515" lon="8.8909035"><ele>241.33333333333331</ele><time>2026-04-06T14:32:19.77Z</time></trkpt><trkpt lat="44.7014792" lon="8.8909704"><ele>242.0</ele><time>2026-04-06T14:32:21.77Z</time></trkpt><trkpt lat="44.7014219" lon="8.8910462"><ele>242.66666666666666</ele><time>2026-04-06T14:32:23.772Z</time></trkpt><trkpt lat="44.7013762" lon="8.8911212"><ele>243.33333333333331</ele><time>2026-04-06T14:32:25.77Z</time></trkpt><trkpt lat="44.7013305" lon="8.8911967"><ele>244.0</ele><time>2026-04-06T14:32:27.77Z</time></trkpt><trkpt lat="44.7012836" lon="8.8912675"><ele>243.99999999999997</ele><time>2026-04-06T14:32:29.77Z</time></trkpt><trkpt lat="44.7012348" lon="8.8913415"><ele>244.0</ele><time>2026-04-06T14:32:31.769Z</time></trkpt><trkpt lat="44.7011796" lon="8.8914077"><ele>243.99999999999997</ele><time>2026-04-06T14:32:33.77Z</time></trkpt><trkpt lat="44.7011242" lon="8.8914772"><ele>243.99999999999997</ele><time>2026-04-06T14:32:35.772Z</time></trkpt><trkpt lat="44.7010649" lon="8.8915418"><ele>244.0</ele><time>2026-04-06T14:32:37.772Z</time></trkpt><trkpt lat="44.701016" lon="8.8916186"><ele>243.99999999999997</ele><time>2026-04-06T14:32:39.771Z</time></trkpt><trkpt lat="44.7009776" lon="8.8917043"><ele>243.99999999999997</ele><time>2026-04-06T14:32:41.771Z</time></trkpt><trkpt lat="44.7009432" lon="8.8917982"><ele>244.99999999999997</ele><time>2026-04-06T14:32:43.77Z</time></trkpt><trkpt lat="44.7009038" lon="8.8918918"><ele>246.0</ele><time>2026-04-06T14:32:45.77Z</time></trkpt><trkpt lat="44.7008748" lon="8.8919867"><ele>246.99999999999997</ele><time>2026-04-06T14:32:47.77Z</time></trkpt><trkpt lat="44.7008399" lon="8.8920715"><ele>247.99999999999997</ele><time>2026-04-06T14:32:49.771Z</time></trkpt><trkpt lat="44.7007947" lon="8.8921508"><ele>249.0</ele><time>2026-04-06T14:32:51.769Z</time></trkpt><trkpt lat="44.7007446" lon="8.8922306"><ele>249.99999999999997</ele><time>2026-04-06T14:32:53.771Z</time></trkpt><trkpt lat="44.7006932" lon="8.892317"><ele>250.99999999999997</ele><time>2026-04-06T14:32:55.769Z</time></trkpt><trkpt lat="44.7006446" lon="8.8923997"><ele>251.00000000000003</ele><time>2026-04-06T14:32:57.771Z</time></trkpt><trkpt lat="44.7005945" lon="8.8924747"><ele>251.0</ele><time>2026-04-06T14:32:59.771Z</time></trkpt><trkpt lat="44.7005401" lon="8.8925531"><ele>251.0</ele><time>2026-04-06T14:33:01.77Z</time></trkpt><trkpt lat="44.7004859" lon="8.8926358"><ele>251.0</ele><time>2026-04-06T14:33:03.769Z</time></trkpt><trkpt lat="44.7004274" lon="8.8927163"><ele>251.00000000000003</ele><time>2026-04-06T14:33:05.77Z</time></trkpt><trkpt lat="44.700373" lon="8.8928036"><ele>251.0</ele><time>2026-04-06T14:33:07.772Z</time></trkpt><trkpt lat="44.7003184" lon="8.8928922"><ele>252.4</ele><time>2026-04-06T14:33:09.77Z</time></trkpt><trkpt lat="44.7002653" lon="8.8929831"><ele>253.8</ele><time>2026-04-06T14:33:11.77Z</time></trkpt><trkpt lat="44.7001965" lon="8.8930704"><ele>255.20000000000002</ele><time>2026-04-06T14:33:13.771Z</time></trkpt><trkpt lat="44.7001147" lon="8.8931422"><ele>256.6</ele><time>2026-04-06T14:33:15.77Z</time></trkpt><trkpt lat="44.7000145" lon="8.8931928"><ele>258.0</ele><time>2026-04-06T14:33:17.769Z</time></trkpt><trkpt lat="44.6999153" lon="8.893224"><ele>253.60000000000002</ele><time>2026-04-06T14:33:19.769Z</time></trkpt><trkpt lat="44.6998121" lon="8.8932439"><ele>249.20000000000002</ele><time>2026-04-06T14:33:21.77Z</time></trkpt><trkpt lat="44.6997212" lon="8.893314"><ele>244.8</ele><time>2026-04-06T14:33:23.772Z</time></trkpt><trkpt lat="44.6996346" lon="8.8933895"><ele>240.4</ele><time>2026-04-06T14:33:25.771Z</time></trkpt><trkpt lat="44.6995395" lon="8.8934025"><ele>236.0</ele><time>2026-04-06T14:33:27.77Z</time></trkpt><trkpt lat="44.6993868" lon="8.893413"><ele>234.20000000000002</ele><time>2026-04-06T14:33:30.769Z</time></trkpt><trkpt lat="44.6993198" lon="8.8933955"><ele>232.40000000000003</ele><time>2026-04-06T14:33:31.769Z</time></trkpt><trkpt lat="44.6992539" lon="8.8933726"><ele>230.6</ele><time>2026-04-06T14:33:32.771Z</time></trkpt><trkpt lat="44.6990843" lon="8.8933139"><ele>228.8</ele><time>2026-04-06T14:33:34.77Z</time></trkpt><trkpt lat="44.6989833" lon="8.8932823"><ele>227.0</ele><time>2026-04-06T14:33:35.77Z</time></trkpt><trkpt lat="44.6988957" lon="8.893289"><ele>227.00000000000003</ele><time>2026-04-06T14:33:36.769Z</time></trkpt><trkpt lat="44.6988231" lon="8.8933185"><ele>227.0</ele><time>2026-04-06T14:33:37.769Z</time></trkpt><trkpt lat="44.6987483" lon="8.8933391"><ele>227.0</ele><time>2026-04-06T14:33:38.77Z</time></trkpt><trkpt lat="44.6986755" lon="8.8933923"><ele>227.0</ele><time>2026-04-06T14:33:39.77Z</time></trkpt><trkpt lat="44.698605" lon="8.8934472"><ele>227.00000000000003</ele><time>2026-04-06T14:33:40.771Z</time></trkpt><trkpt lat="44.6985334" lon="8.8935102"><ele>227.0</ele><time>2026-04-06T14:33:41.771Z</time></trkpt><trkpt lat="44.698461" lon="8.8935632"><ele>227.00000000000003</ele><time>2026-04-06T14:33:42.771Z</time></trkpt><trkpt lat="44.6983934" lon="8.8936185"><ele>227.0</ele><time>2026-04-06T14:33:43.77Z</time></trkpt><trkpt lat="44.6983261" lon="8.8936734"><ele>227.0</ele><time>2026-04-06T14:33:44.77Z</time></trkpt><trkpt lat="44.6982643" lon="8.8937129"><ele>227.0</ele><time>2026-04-06T14:33:45.769Z</time></trkpt><trkpt lat="44.6982054" lon="8.8937578"><ele>227.00000000000003</ele><time>2026-04-06T14:33:46.772Z</time></trkpt><trkpt lat="44.6981493" lon="8.8937997"><ele>227.0</ele><time>2026-04-06T14:33:47.771Z</time></trkpt><trkpt lat="44.6980525" lon="8.8938755"><ele>227.00000000000003</ele><time>2026-04-06T14:33:49.769Z</time></trkpt><trkpt lat="44.6979677" lon="8.89392"><ele>227.0</ele><time>2026-04-06T14:33:51.77Z</time></trkpt><trkpt lat="44.6978958" lon="8.893949"><ele>227.0</ele><time>2026-04-06T14:33:53.769Z</time></trkpt><trkpt lat="44.6978256" lon="8.8939738"><ele>227.0</ele><time>2026-04-06T14:33:55.771Z</time></trkpt><trkpt lat="44.697764" lon="8.893995"><ele>227.00000000000003</ele><time>2026-04-06T14:33:57.77Z</time></trkpt><trkpt lat="44.6977038" lon="8.8940345"><ele>227.0</ele><time>2026-04-06T14:33:59.769Z</time></trkpt><trkpt lat="44.6976213" lon="8.8940888"><ele>226.66666666666669</ele><time>2026-04-06T14:34:02.77Z</time></trkpt><trkpt lat="44.697564" lon="8.8941285"><ele>226.33333333333334</ele><time>2026-04-06T14:34:04.769Z</time></trkpt><trkpt lat="44.6974823" lon="8.8941754"><ele>226.0</ele><time>2026-04-06T14:34:07.771Z</time></trkpt><trkpt lat="44.6973996" lon="8.894215"><ele>225.66666666666669</ele><time>2026-04-06T14:34:10.771Z</time></trkpt><trkpt lat="44.6973144" lon="8.8942584"><ele>225.33333333333334</ele><time>2026-04-06T14:34:13.771Z</time></trkpt><trkpt lat="44.6972282" lon="8.8943062"><ele>225.0</ele><time>2026-04-06T14:34:16.771Z</time></trkpt><trkpt lat="44.6971364" lon="8.8943474"><ele>226.0</ele><time>2026-04-06T14:34:19.77Z</time></trkpt><trkpt lat="44.6970762" lon="8.894376"><ele>227.0</ele><time>2026-04-06T14:34:21.771Z</time></trkpt><trkpt lat="44.6969921" lon="8.894419"><ele>228.0</ele><time>2026-04-06T14:34:24.771Z</time></trkpt><trkpt lat="44.6969121" lon="8.8944706"><ele>229.0</ele><time>2026-04-06T14:34:27.771Z</time></trkpt><trkpt lat="44.6968303" lon="8.8945306"><ele>230.0</ele><time>2026-04-06T14:34:30.769Z</time></trkpt><trkpt lat="44.6967744" lon="8.8945715"><ele>231.0</ele><time>2026-04-06T14:34:32.769Z</time></trkpt><trkpt lat="44.6966927" lon="8.8946182"><ele>231.0</ele><time>2026-04-06T14:34:35.771Z</time></trkpt><trkpt lat="44.6966159" lon="8.8946741"><ele>231.0</ele><time>2026-04-06T14:34:38.77Z</time></trkpt><trkpt lat="44.696538" lon="8.8947361"><ele>231.0</ele><time>2026-04-06T14:34:41.769Z</time></trkpt><trkpt lat="44.6964586" lon="8.8947997"><ele>231.0</ele><time>2026-04-06T14:34:44.771Z</time></trkpt><trkpt lat="44.6963809" lon="8.8948552"><ele>231.0</ele><time>2026-04-06T14:34:47.771Z</time></trkpt><trkpt lat="44.6963065" lon="8.8949147"><ele>231.0</ele><time>2026-04-06T14:34:50.77Z</time></trkpt><trkpt lat="44.69623" lon="8.8949779"><ele>231.0</ele><time>2026-04-06T14:34:53.771Z</time></trkpt><trkpt lat="44.6961759" lon="8.8950246"><ele>231.0</ele><time>2026-04-06T14:34:55.77Z</time></trkpt><trkpt lat="44.696093" lon="8.8950879"><ele>231.0</ele><time>2026-04-06T14:34:58.771Z</time></trkpt><trkpt lat="44.6960337" lon="8.8951326"><ele>231.0</ele><time>2026-04-06T14:35:00.771Z</time></trkpt><trkpt lat="44.6959776" lon="8.895183"><ele>231.0</ele><time>2026-04-06T14:35:02.77Z</time></trkpt><trkpt lat="44.695921" lon="8.8952322"><ele>231.0</ele><time>2026-04-06T14:35:04.77Z</time></trkpt><trkpt lat="44.6958656" lon="8.8952756"><ele>231.0</ele><time>2026-04-06T14:35:06.769Z</time></trkpt><trkpt lat="44.6957874" lon="8.8953454"><ele>231.33333333333334</ele><time>2026-04-06T14:35:09.771Z</time></trkpt><trkpt lat="44.6957057" lon="8.8954147"><ele>231.66666666666669</ele><time>2026-04-06T14:35:12.77Z</time></trkpt><trkpt lat="44.6956465" lon="8.8954635"><ele>232.0</ele><time>2026-04-06T14:35:14.77Z</time></trkpt><trkpt lat="44.695587" lon="8.8955106"><ele>232.33333333333334</ele><time>2026-04-06T14:35:16.77Z</time></trkpt><trkpt lat="44.6955132" lon="8.8955717"><ele>232.66666666666669</ele><time>2026-04-06T14:35:19.771Z</time></trkpt><trkpt lat="44.6954378" lon="8.8956344"><ele>233.0</ele><time>2026-04-06T14:35:22.77Z</time></trkpt><trkpt lat="44.6953755" lon="8.8956874"><ele>233.0</ele><time>2026-04-06T14:35:24.769Z</time></trkpt><trkpt lat="44.6953209" lon="8.8957358"><ele>233.0</ele><time>2026-04-06T14:35:26.77Z</time></trkpt><trkpt lat="44.6952601" lon="8.8957801"><ele>233.0</ele><time>2026-04-06T14:35:28.769Z</time></trkpt><trkpt lat="44.6951972" lon="8.895831"><ele>233.0</ele><time>2026-04-06T14:35:30.77Z</time></trkpt><trkpt lat="44.695139" lon="8.8958889"><ele>233.0</ele><time>2026-04-06T14:35:32.77Z</time></trkpt><trkpt lat="44.6950837" lon="8.8959584"><ele>233.0</ele><time>2026-04-06T14:35:34.77Z</time></trkpt><trkpt lat="44.6950218" lon="8.8960183"><ele>233.0</ele><time>2026-04-06T14:35:36.77Z</time></trkpt><trkpt lat="44.6949567" lon="8.8960763"><ele>233.00000000000003</ele><time>2026-04-06T14:35:38.77Z</time></trkpt><trkpt lat="44.6948937" lon="8.8961389"><ele>233.0</ele><time>2026-04-06T14:35:40.771Z</time></trkpt><trkpt lat="44.694828" lon="8.8961986"><ele>233.0</ele><time>2026-04-06T14:35:42.769Z</time></trkpt><trkpt lat="44.6947603" lon="8.8962592"><ele>233.0</ele><time>2026-04-06T14:35:44.77Z</time></trkpt><trkpt lat="44.6946953" lon="8.8963209"><ele>233.00000000000003</ele><time>2026-04-06T14:35:46.77Z</time></trkpt><trkpt lat="44.6946298" lon="8.8963765"><ele>233.0</ele><time>2026-04-06T14:35:48.769Z</time></trkpt><trkpt lat="44.6945704" lon="8.8964307"><ele>233.0</ele><time>2026-04-06T14:35:50.77Z</time></trkpt><trkpt lat="44.6945122" lon="8.896485"><ele>233.0</ele><time>2026-04-06T14:35:52.77Z</time></trkpt><trkpt lat="44.6944487" lon="8.8965434"><ele>233.0</ele><time>2026-04-06T14:35:54.771Z</time></trkpt><trkpt lat="44.6943862" lon="8.8965927"><ele>233.0</ele><time>2026-04-06T14:35:56.769Z</time></trkpt><trkpt lat="44.6943315" lon="8.896647"><ele>233.0</ele><time>2026-04-06T14:35:58.769Z</time></trkpt><trkpt lat="44.6942744" lon="8.8966937"><ele>233.0</ele><time>2026-04-06T14:36:00.771Z</time></trkpt><trkpt lat="44.6942175" lon="8.8967431"><ele>233.0</ele><time>2026-04-06T14:36:02.769Z</time></trkpt><trkpt lat="44.6941627" lon="8.8967928"><ele>234.00000000000003</ele><time>2026-04-06T14:36:04.769Z</time></trkpt><trkpt lat="44.6941087" lon="8.8968404"><ele>235.0</ele><time>2026-04-06T14:36:06.77Z</time></trkpt><trkpt lat="44.6940543" lon="8.8969017"><ele>236.0</ele><time>2026-04-06T14:36:08.77Z</time></trkpt><trkpt lat="44.6939927" lon="8.8969582"><ele>237.0</ele><time>2026-04-06T14:36:10.769Z</time></trkpt><trkpt lat="44.6939257" lon="8.8970157"><ele>238.00000000000003</ele><time>2026-04-06T14:36:12.771Z</time></trkpt><trkpt lat="44.6938528" lon="8.8970799"><ele>239.0</ele><time>2026-04-06T14:36:14.77Z</time></trkpt><trkpt lat="44.6937568" lon="8.8971414"><ele>239.00000000000003</ele><time>2026-04-06T14:36:16.77Z</time></trkpt><trkpt lat="44.6936444" lon="8.8971988"><ele>239.0</ele><time>2026-04-06T14:36:18.771Z</time></trkpt><trkpt lat="44.6935804" lon="8.8972327"><ele>239.0</ele><time>2026-04-06T14:36:19.771Z</time></trkpt><trkpt lat="44.6935123" lon="8.8972759"><ele>239.0</ele><time>2026-04-06T14:36:20.769Z</time></trkpt><trkpt lat="44.6934479" lon="8.8973281"><ele>239.00000000000003</ele><time>2026-04-06T14:36:21.77Z</time></trkpt><trkpt lat="44.6933673" lon="8.8973785"><ele>239.0</ele><time>2026-04-06T14:36:22.77Z</time></trkpt><trkpt lat="44.6932927" lon="8.8974245"><ele>236.8571428571429</ele><time>2026-04-06T14:36:23.77Z</time></trkpt><trkpt lat="44.6932127" lon="8.8974653"><ele>234.71428571428572</ele><time>2026-04-06T14:36:24.769Z</time></trkpt><trkpt lat="44.6931373" lon="8.8975026"><ele>232.57142857142858</ele><time>2026-04-06T14:36:25.77Z</time></trkpt><trkpt lat="44.6930653" lon="8.8975375"><ele>230.42857142857144</ele><time>2026-04-06T14:36:26.77Z</time></trkpt><trkpt lat="44.6929987" lon="8.8975735"><ele>228.28571428571428</ele><time>2026-04-06T14:36:27.771Z</time></trkpt><trkpt lat="44.692942" lon="8.8976229"><ele>226.14285714285714</ele><time>2026-04-06T14:36:28.769Z</time></trkpt><trkpt lat="44.6928864" lon="8.897674"><ele>224.0</ele><time>2026-04-06T14:36:29.77Z</time></trkpt><trkpt lat="44.6927956" lon="8.8977584"><ele>223.0</ele><time>2026-04-06T14:36:31.77Z</time></trkpt><trkpt lat="44.6927042" lon="8.8978284"><ele>221.99999999999997</ele><time>2026-04-06T14:36:33.77Z</time></trkpt><trkpt lat="44.6926208" lon="8.8978974"><ele>220.99999999999997</ele><time>2026-04-06T14:36:35.771Z</time></trkpt><trkpt lat="44.6925446" lon="8.897963"><ele>220.0</ele><time>2026-04-06T14:36:37.77Z</time></trkpt><trkpt lat="44.6924731" lon="8.8980142"><ele>219.0</ele><time>2026-04-06T14:36:39.769Z</time></trkpt><trkpt lat="44.6924019" lon="8.8980878"><ele>219.0</ele><time>2026-04-06T14:36:41.77Z</time></trkpt><trkpt lat="44.692347" lon="8.8981826"><ele>218.99999999999997</ele><time>2026-04-06T14:36:43.771Z</time></trkpt><trkpt lat="44.6922903" lon="8.8982981"><ele>218.99999999999997</ele><time>2026-04-06T14:36:45.77Z</time></trkpt><trkpt lat="44.6922088" lon="8.8984016"><ele>219.0</ele><time>2026-04-06T14:36:47.769Z</time></trkpt><trkpt lat="44.6921081" lon="8.8984906"><ele>219.0</ele><time>2026-04-06T14:36:49.77Z</time></trkpt><trkpt lat="44.692015" lon="8.8985643"><ele>219.6</ele><time>2026-04-06T14:36:51.769Z</time></trkpt><trkpt lat="44.6919195" lon="8.8986425"><ele>220.2</ele><time>2026-04-06T14:36:53.77Z</time></trkpt><trkpt lat="44.6918314" lon="8.8987158"><ele>220.79999999999998</ele><time>2026-04-06T14:36:55.77Z</time></trkpt><trkpt lat="44.6917548" lon="8.8987885"><ele>221.39999999999998</ele><time>2026-04-06T14:36:57.77Z</time></trkpt><trkpt lat="44.6916802" lon="8.898853"><ele>222.0</ele><time>2026-04-06T14:36:59.769Z</time></trkpt><trkpt lat="44.6916112" lon="8.8989116"><ele>222.0</ele><time>2026-04-06T14:37:01.77Z</time></trkpt><trkpt lat="44.691548" lon="8.8989748"><ele>222.0</ele><time>2026-04-06T14:37:03.77Z</time></trkpt><trkpt lat="44.6914787" lon="8.8990289"><ele>222.0</ele><time>2026-04-06T14:37:05.771Z</time></trkpt><trkpt lat="44.6914084" lon="8.8990894"><ele>222.0</ele><time>2026-04-06T14:37:07.768Z</time></trkpt><trkpt lat="44.6913416" lon="8.8991559"><ele>222.0</ele><time>2026-04-06T14:37:09.771Z</time></trkpt><trkpt lat="44.6912712" lon="8.8991927"><ele>222.0</ele><time>2026-04-06T14:37:11.77Z</time></trkpt><trkpt lat="44.6912141" lon="8.8991282"><ele>222.0</ele><time>2026-04-06T14:37:13.771Z</time></trkpt><trkpt lat="44.6911748" lon="8.8990357"><ele>222.0</ele><time>2026-04-06T14:37:15.769Z</time></trkpt><trkpt lat="44.6911328" lon="8.8989285"><ele>222.0</ele><time>2026-04-06T14:37:17.769Z</time></trkpt><trkpt lat="44.6910898" lon="8.8988212"><ele>222.0</ele><time>2026-04-06T14:37:19.77Z</time></trkpt><trkpt lat="44.691024" lon="8.8987532"><ele>222.0</ele><time>2026-04-06T14:37:21.77Z</time></trkpt><trkpt lat="44.6909439" lon="8.8988024"><ele>222.0</ele><time>2026-04-06T14:37:24.769Z</time></trkpt><trkpt lat="44.6909003" lon="8.8988752"><ele>221.7142857142857</ele><time>2026-04-06T14:37:26.77Z</time></trkpt><trkpt lat="44.6908525" lon="8.898951"><ele>221.42857142857144</ele><time>2026-04-06T14:37:28.77Z</time></trkpt><trkpt lat="44.6907975" lon="8.8990165"><ele>221.14285714285714</ele><time>2026-04-06T14:37:30.771Z</time></trkpt><trkpt lat="44.6907458" lon="8.8990743"><ele>220.85714285714283</ele><time>2026-04-06T14:37:32.77Z</time></trkpt><trkpt lat="44.6906936" lon="8.8991338"><ele>220.57142857142856</ele><time>2026-04-06T14:37:34.77Z</time></trkpt><trkpt lat="44.690637" lon="8.8992039"><ele>220.28571428571428</ele><time>2026-04-06T14:37:36.769Z</time></trkpt><trkpt lat="44.6905795" lon="8.8992682"><ele>220.0</ele><time>2026-04-06T14:37:38.77Z</time></trkpt><trkpt lat="44.6905117" lon="8.8993364"><ele>220.49999999999997</ele><time>2026-04-06T14:37:40.771Z</time></trkpt><trkpt lat="44.6904482" lon="8.8993847"><ele>221.0</ele><time>2026-04-06T14:37:42.768Z</time></trkpt><trkpt lat="44.6903855" lon="8.8994398"><ele>221.5</ele><time>2026-04-06T14:37:44.771Z</time></trkpt><trkpt lat="44.6903135" lon="8.8994918"><ele>222.0</ele><time>2026-04-06T14:37:46.771Z</time></trkpt><trkpt lat="44.6902435" lon="8.8995188"><ele>222.49999999999997</ele><time>2026-04-06T14:37:48.77Z</time></trkpt><trkpt lat="44.6901742" lon="8.8995468"><ele>223.0</ele><time>2026-04-06T14:37:50.77Z</time></trkpt><trkpt lat="44.6900955" lon="8.8995751"><ele>223.0</ele><time>2026-04-06T14:37:52.771Z</time></trkpt><trkpt lat="44.6900234" lon="8.899599"><ele>223.0</ele><time>2026-04-06T14:37:54.77Z</time></trkpt><trkpt lat="44.6899556" lon="8.8996083"><ele>223.0</ele><time>2026-04-06T14:37:56.771Z</time></trkpt><trkpt lat="44.6898893" lon="8.8996261"><ele>223.0</ele><time>2026-04-06T14:37:58.771Z</time></trkpt><trkpt lat="44.689805" lon="8.8996691"><ele>223.0</ele><time>2026-04-06T14:38:01.769Z</time></trkpt><trkpt lat="44.6897439" lon="8.8997013"><ele>223.0</ele><time>2026-04-06T14:38:03.769Z</time></trkpt><trkpt lat="44.6896797" lon="8.8997282"><ele>223.0</ele><time>2026-04-06T14:38:05.77Z</time></trkpt><trkpt lat="44.6896129" lon="8.8997611"><ele>223.0</ele><time>2026-04-06T14:38:07.769Z</time></trkpt><trkpt lat="44.6895548" lon="8.8997995"><ele>223.0</ele><time>2026-04-06T14:38:09.769Z</time></trkpt><trkpt lat="44.6894911" lon="8.8998413"><ele>223.0</ele><time>2026-04-06T14:38:11.77Z</time></trkpt><trkpt lat="44.6894299" lon="8.8998877"><ele>223.0</ele><time>2026-04-06T14:38:13.77Z</time></trkpt><trkpt lat="44.6893716" lon="8.899935"><ele>223.0</ele><time>2026-04-06T14:38:15.77Z</time></trkpt><trkpt lat="44.6893183" lon="8.8999917"><ele>223.0</ele><time>2026-04-06T14:38:17.771Z</time></trkpt><trkpt lat="44.6892618" lon="8.9000438"><ele>223.0</ele><time>2026-04-06T14:38:19.77Z</time></trkpt><trkpt lat="44.6892095" lon="8.900094"><ele>224.83333333333331</ele><time>2026-04-06T14:38:21.769Z</time></trkpt><trkpt lat="44.6891331" lon="8.9001699"><ele>226.66666666666666</ele><time>2026-04-06T14:38:24.769Z</time></trkpt><trkpt lat="44.6890782" lon="8.9002227"><ele>228.5</ele><time>2026-04-06T14:38:26.769Z</time></trkpt><trkpt lat="44.6890298" lon="8.9002833"><ele>230.33333333333331</ele><time>2026-04-06T14:38:28.769Z</time></trkpt><trkpt lat="44.6889589" lon="8.9003477"><ele>232.16666666666666</ele><time>2026-04-06T14:38:31.769Z</time></trkpt><trkpt lat="44.6888945" lon="8.9002875"><ele>234.0</ele><time>2026-04-06T14:38:36.768Z</time></trkpt><trkpt lat="44.6888349" lon="8.9002154"><ele>234.0</ele><time>2026-04-06T14:38:39.769Z</time></trkpt><trkpt lat="44.6887888" lon="8.9001002"><ele>234.00000000000003</ele><time>2026-04-06T14:38:42.768Z</time></trkpt><trkpt lat="44.6887561" lon="8.9000227"><ele>234.0</ele><time>2026-04-06T14:38:44.77Z</time></trkpt><trkpt lat="44.6887205" lon="8.8999461"><ele>234.0</ele><time>2026-04-06T14:38:46.77Z</time></trkpt><trkpt lat="44.6886885" lon="8.8998518"><ele>234.00000000000003</ele><time>2026-04-06T14:38:48.768Z</time></trkpt><trkpt lat="44.688652" lon="8.8997569"><ele>234.0</ele><time>2026-04-06T14:38:50.77Z</time></trkpt><trkpt lat="44.6886182" lon="8.8996653"><ele>234.0</ele><time>2026-04-06T14:38:52.77Z</time></trkpt><trkpt lat="44.6885807" lon="8.8995644"><ele>232.42857142857144</ele><time>2026-04-06T14:38:54.77Z</time></trkpt><trkpt lat="44.6885423" lon="8.8994688"><ele>230.8571428571429</ele><time>2026-04-06T14:38:56.769Z</time></trkpt><trkpt lat="44.6885075" lon="8.8993781"><ele>229.28571428571428</ele><time>2026-04-06T14:38:58.769Z</time></trkpt><trkpt lat="44.6884688" lon="8.8992836"><ele>227.71428571428572</ele><time>2026-04-06T14:39:00.771Z</time></trkpt><trkpt lat="44.6884331" lon="8.8991921"><ele>226.14285714285714</ele><time>2026-04-06T14:39:02.77Z</time></trkpt><trkpt lat="44.6883992" lon="8.8991008"><ele>224.57142857142856</ele><time>2026-04-06T14:39:04.769Z</time></trkpt><trkpt lat="44.6883629" lon="8.8990132"><ele>223.0</ele><time>2026-04-06T14:39:06.771Z</time></trkpt><trkpt lat="44.6883311" lon="8.8989331"><ele>222.99999999999997</ele><time>2026-04-06T14:39:08.768Z</time></trkpt><trkpt lat="44.688286" lon="8.8988133"><ele>223.0</ele><time>2026-04-06T14:39:11.77Z</time></trkpt><trkpt lat="44.6882513" lon="8.8987179"><ele>223.0</ele><time>2026-04-06T14:39:13.77Z</time></trkpt><trkpt lat="44.6882122" lon="8.8986095"><ele>223.0</ele><time>2026-04-06T14:39:15.771Z</time></trkpt><trkpt lat="44.6881701" lon="8.8985063"><ele>222.99999999999997</ele><time>2026-04-06T14:39:17.77Z</time></trkpt><trkpt lat="44.6881293" lon="8.8983971"><ele>223.0</ele><time>2026-04-06T14:39:19.77Z</time></trkpt><trkpt lat="44.6880842" lon="8.8982926"><ele>224.66666666666666</ele><time>2026-04-06T14:39:21.77Z</time></trkpt><trkpt lat="44.688049" lon="8.8981892"><ele>226.33333333333331</ele><time>2026-04-06T14:39:23.77Z</time></trkpt><trkpt lat="44.6880164" lon="8.8980943"><ele>228.0</ele><time>2026-04-06T14:39:25.769Z</time></trkpt><trkpt lat="44.6879745" lon="8.8979997"><ele>229.66666666666669</ele><time>2026-04-06T14:39:27.771Z</time></trkpt><trkpt lat="44.6879368" lon="8.8978971"><ele>231.33333333333334</ele><time>2026-04-06T14:39:29.77Z</time></trkpt><trkpt lat="44.6879" lon="8.8977892"><ele>233.0</ele><time>2026-04-06T14:39:31.77Z</time></trkpt><trkpt lat="44.6878593" lon="8.8976831"><ele>234.00000000000003</ele><time>2026-04-06T14:39:33.769Z</time></trkpt><trkpt lat="44.6878161" lon="8.897582"><ele>235.0</ele><time>2026-04-06T14:39:35.77Z</time></trkpt><trkpt lat="44.6877814" lon="8.8974817"><ele>236.0</ele><time>2026-04-06T14:39:37.77Z</time></trkpt><trkpt lat="44.6877454" lon="8.8973885"><ele>237.0</ele><time>2026-04-06T14:39:39.77Z</time></trkpt><trkpt lat="44.6877062" lon="8.897295"><ele>238.00000000000003</ele><time>2026-04-06T14:39:41.769Z</time></trkpt><trkpt lat="44.6876673" lon="8.8971944"><ele>239.0</ele><time>2026-04-06T14:39:43.769Z</time></trkpt><trkpt lat="44.6876285" lon="8.897094"><ele>239.33333333333334</ele><time>2026-04-06T14:39:45.77Z</time></trkpt><trkpt lat="44.6875892" lon="8.8969934"><ele>239.66666666666669</ele><time>2026-04-06T14:39:47.77Z</time></trkpt><trkpt lat="44.6875491" lon="8.8968926"><ele>240.0</ele><time>2026-04-06T14:39:49.769Z</time></trkpt><trkpt lat="44.6875103" lon="8.8967951"><ele>240.33333333333331</ele><time>2026-04-06T14:39:51.77Z</time></trkpt><trkpt lat="44.6874734" lon="8.8966944"><ele>240.66666666666666</ele><time>2026-04-06T14:39:53.771Z</time></trkpt><trkpt lat="44.6874359" lon="8.8965972"><ele>241.0</ele><time>2026-04-06T14:39:55.768Z</time></trkpt><trkpt lat="44.6873975" lon="8.8964994"><ele>240.99999999999997</ele><time>2026-04-06T14:39:57.77Z</time></trkpt><trkpt lat="44.6873547" lon="8.8964083"><ele>241.0</ele><time>2026-04-06T14:39:59.77Z</time></trkpt><trkpt lat="44.6873162" lon="8.8963073"><ele>241.0</ele><time>2026-04-06T14:40:01.77Z</time></trkpt><trkpt lat="44.6872715" lon="8.8962194"><ele>241.0</ele><time>2026-04-06T14:40:03.77Z</time></trkpt><trkpt lat="44.6872294" lon="8.8961181"><ele>240.99999999999997</ele><time>2026-04-06T14:40:05.769Z</time></trkpt><trkpt lat="44.6871882" lon="8.8960122"><ele>241.0</ele><time>2026-04-06T14:40:07.77Z</time></trkpt><trkpt lat="44.6871538" lon="8.8958956"><ele>240.99999999999997</ele><time>2026-04-06T14:40:09.769Z</time></trkpt><trkpt lat="44.6871139" lon="8.8957849"><ele>241.0</ele><time>2026-04-06T14:40:11.769Z</time></trkpt><trkpt lat="44.6870688" lon="8.8956759"><ele>241.0</ele><time>2026-04-06T14:40:13.771Z</time></trkpt><trkpt lat="44.687028" lon="8.8955656"><ele>241.0</ele><time>2026-04-06T14:40:15.771Z</time></trkpt><trkpt lat="44.6869824" lon="8.8954613"><ele>240.99999999999997</ele><time>2026-04-06T14:40:17.77Z</time></trkpt><trkpt lat="44.6869459" lon="8.8953535"><ele>241.0</ele><time>2026-04-06T14:40:19.77Z</time></trkpt><trkpt lat="44.6869075" lon="8.895247"><ele>240.99999999999997</ele><time>2026-04-06T14:40:21.769Z</time></trkpt><trkpt lat="44.6868697" lon="8.8951419"><ele>241.0</ele><time>2026-04-06T14:40:23.771Z</time></trkpt><trkpt lat="44.6868372" lon="8.8950388"><ele>241.0</ele><time>2026-04-06T14:40:25.769Z</time></trkpt><trkpt lat="44.6868003" lon="8.8949363"><ele>241.0</ele><time>2026-04-06T14:40:27.77Z</time></trkpt><trkpt lat="44.6867737" lon="8.8948216"><ele>240.99999999999997</ele><time>2026-04-06T14:40:29.771Z</time></trkpt><trkpt lat="44.6867645" lon="8.8947076"><ele>241.0</ele><time>2026-04-06T14:40:31.769Z</time></trkpt><trkpt lat="44.6867822" lon="8.8945938"><ele>240.99999999999997</ele><time>2026-04-06T14:40:33.769Z</time></trkpt><trkpt lat="44.6868299" lon="8.8944968"><ele>241.0</ele><time>2026-04-06T14:40:35.77Z</time></trkpt><trkpt lat="44.6868908" lon="8.8944153"><ele>241.0</ele><time>2026-04-06T14:40:37.769Z</time></trkpt><trkpt lat="44.6869558" lon="8.8943424"><ele>241.0</ele><time>2026-04-06T14:40:39.77Z</time></trkpt><trkpt lat="44.6870184" lon="8.8942572"><ele>240.99999999999997</ele><time>2026-04-06T14:40:41.77Z</time></trkpt><trkpt lat="44.6870781" lon="8.8941752"><ele>241.0</ele><time>2026-04-06T14:40:43.768Z</time></trkpt><trkpt lat="44.6871207" lon="8.8940977"><ele>240.99999999999997</ele><time>2026-04-06T14:40:45.77Z</time></trkpt><trkpt lat="44.6871547" lon="8.8940095"><ele>241.0</ele><time>2026-04-06T14:40:47.77Z</time></trkpt><trkpt lat="44.6871916" lon="8.893904"><ele>241.0</ele><time>2026-04-06T14:40:49.77Z</time></trkpt><trkpt lat="44.6872165" lon="8.8937984"><ele>241.0</ele><time>2026-04-06T14:40:51.77Z</time></trkpt><trkpt lat="44.6872355" lon="8.8936824"><ele>240.99999999999997</ele><time>2026-04-06T14:40:53.77Z</time></trkpt><trkpt lat="44.6872404" lon="8.893557"><ele>241.0</ele><time>2026-04-06T14:40:55.771Z</time></trkpt><trkpt lat="44.6872351" lon="8.8934377"><ele>241.16666666666666</ele><time>2026-04-06T14:40:57.771Z</time></trkpt><trkpt lat="44.6872122" lon="8.8933194"><ele>241.33333333333331</ele><time>2026-04-06T14:40:59.769Z</time></trkpt><trkpt lat="44.687179" lon="8.8932053"><ele>241.5</ele><time>2026-04-06T14:41:01.771Z</time></trkpt><trkpt lat="44.6871374" lon="8.8931052"><ele>241.66666666666669</ele><time>2026-04-06T14:41:03.77Z</time></trkpt><trkpt lat="44.6870963" lon="8.8930139"><ele>241.83333333333334</ele><time>2026-04-06T14:41:05.77Z</time></trkpt><trkpt lat="44.6870544" lon="8.8929286"><ele>242.0</ele><time>2026-04-06T14:41:07.771Z</time></trkpt><trkpt lat="44.6870122" lon="8.8928412"><ele>242.0</ele><time>2026-04-06T14:41:09.771Z</time></trkpt><trkpt lat="44.6869705" lon="8.8927433"><ele>242.0</ele><time>2026-04-06T14:41:11.768Z</time></trkpt><trkpt lat="44.6869197" lon="8.8926457"><ele>242.0</ele><time>2026-04-06T14:41:13.769Z</time></trkpt><trkpt lat="44.6868688" lon="8.8925371"><ele>242.0</ele><time>2026-04-06T14:41:15.768Z</time></trkpt><trkpt lat="44.6868148" lon="8.8924243"><ele>242.0</ele><time>2026-04-06T14:41:17.77Z</time></trkpt><trkpt lat="44.6867517" lon="8.8923131"><ele>242.39999999999998</ele><time>2026-04-06T14:41:19.768Z</time></trkpt><trkpt lat="44.6866957" lon="8.8921773"><ele>242.79999999999998</ele><time>2026-04-06T14:41:21.768Z</time></trkpt><trkpt lat="44.686627" lon="8.8920316"><ele>243.2</ele><time>2026-04-06T14:41:23.77Z</time></trkpt><trkpt lat="44.6865655" lon="8.8918787"><ele>243.6</ele><time>2026-04-06T14:41:25.769Z</time></trkpt><trkpt lat="44.6865333" lon="8.8917994"><ele>244.0</ele><time>2026-04-06T14:41:26.769Z</time></trkpt><trkpt lat="44.6864985" lon="8.8917218"><ele>244.2</ele><time>2026-04-06T14:41:27.768Z</time></trkpt><trkpt lat="44.6864659" lon="8.8916442"><ele>244.39999999999998</ele><time>2026-04-06T14:41:28.771Z</time></trkpt><trkpt lat="44.6864096" lon="8.8914973"><ele>244.6</ele><time>2026-04-06T14:41:30.771Z</time></trkpt><trkpt lat="44.6863453" lon="8.8913636"><ele>244.8</ele><time>2026-04-06T14:41:32.769Z</time></trkpt><trkpt lat="44.6862954" lon="8.8912348"><ele>245.0</ele><time>2026-04-06T14:41:34.768Z</time></trkpt><trkpt lat="44.6862475" lon="8.891122"><ele>245.0</ele><time>2026-04-06T14:41:36.77Z</time></trkpt><trkpt lat="44.6861986" lon="8.8910087"><ele>245.0</ele><time>2026-04-06T14:41:38.768Z</time></trkpt><trkpt lat="44.6861384" lon="8.8908941"><ele>245.0</ele><time>2026-04-06T14:41:40.77Z</time></trkpt><trkpt lat="44.6860901" lon="8.8907761"><ele>245.0</ele><time>2026-04-06T14:41:42.77Z</time></trkpt><trkpt lat="44.6860442" lon="8.8906578"><ele>245.0</ele><time>2026-04-06T14:41:44.77Z</time></trkpt><trkpt lat="44.6860007" lon="8.8905776"><ele>245.6</ele><time>2026-04-06T14:41:46.771Z</time></trkpt><trkpt lat="44.6859529" lon="8.8904596"><ele>246.2</ele><time>2026-04-06T14:41:48.769Z</time></trkpt><trkpt lat="44.685903" lon="8.8903451"><ele>246.8</ele><time>2026-04-06T14:41:50.769Z</time></trkpt><trkpt lat="44.6858551" lon="8.8902215"><ele>247.4</ele><time>2026-04-06T14:41:52.77Z</time></trkpt><trkpt lat="44.6858103" lon="8.8901049"><ele>248.0</ele><time>2026-04-06T14:41:54.77Z</time></trkpt><trkpt lat="44.6857735" lon="8.8899997"><ele>248.14285714285717</ele><time>2026-04-06T14:41:56.768Z</time></trkpt><trkpt lat="44.6857605" lon="8.8899125"><ele>248.2857142857143</ele><time>2026-04-06T14:41:58.769Z</time></trkpt><trkpt lat="44.6858276" lon="8.8898303"><ele>248.42857142857144</ele><time>2026-04-06T14:42:01.77Z</time></trkpt><trkpt lat="44.6858835" lon="8.8897785"><ele>248.57142857142856</ele><time>2026-04-06T14:42:03.77Z</time></trkpt><trkpt lat="44.6859389" lon="8.8897325"><ele>248.7142857142857</ele><time>2026-04-06T14:42:05.768Z</time></trkpt><trkpt lat="44.6859929" lon="8.8896728"><ele>248.85714285714283</ele><time>2026-04-06T14:42:07.771Z</time></trkpt><trkpt lat="44.6860682" lon="8.8896026"><ele>249.0</ele><time>2026-04-06T14:42:10.769Z</time></trkpt><trkpt lat="44.6861416" lon="8.8895348"><ele>249.14285714285714</ele><time>2026-04-06T14:42:13.769Z</time></trkpt><trkpt lat="44.6861979" lon="8.8894936"><ele>249.28571428571428</ele><time>2026-04-06T14:42:15.77Z</time></trkpt><trkpt lat="44.6862527" lon="8.889449"><ele>249.42857142857142</ele><time>2026-04-06T14:42:17.769Z</time></trkpt><trkpt lat="44.686321" lon="8.8893877"><ele>249.57142857142856</ele><time>2026-04-06T14:42:20.771Z</time></trkpt><trkpt lat="44.6863731" lon="8.8893251"><ele>249.71428571428572</ele><time>2026-04-06T14:42:23.77Z</time></trkpt><trkpt lat="44.6864213" lon="8.8892565"><ele>249.85714285714283</ele><time>2026-04-06T14:42:26.77Z</time></trkpt><trkpt lat="44.6864751" lon="8.889183"><ele>250.0</ele><time>2026-04-06T14:42:29.769Z</time></trkpt><trkpt lat="44.686552" lon="8.8891147"><ele>249.99999999999997</ele><time>2026-04-06T14:42:32.768Z</time></trkpt><trkpt lat="44.6866238" lon="8.8890576"><ele>250.0</ele><time>2026-04-06T14:42:34.768Z</time></trkpt><trkpt lat="44.6866922" lon="8.8889958"><ele>250.0</ele><time>2026-04-06T14:42:36.769Z</time></trkpt><trkpt lat="44.6867606" lon="8.8889408"><ele>250.0</ele><time>2026-04-06T14:42:38.768Z</time></trkpt><trkpt lat="44.6868309" lon="8.8888776"><ele>249.99999999999997</ele><time>2026-04-06T14:42:40.769Z</time></trkpt><trkpt lat="44.686898" lon="8.888816"><ele>250.0</ele><time>2026-04-06T14:42:42.769Z</time></trkpt><trkpt lat="44.6869635" lon="8.8887461"><ele>249.4</ele><time>2026-04-06T14:42:44.769Z</time></trkpt><trkpt lat="44.6870436" lon="8.8886668"><ele>248.8</ele><time>2026-04-06T14:42:46.77Z</time></trkpt><trkpt lat="44.6871199" lon="8.8885766"><ele>248.2</ele><time>2026-04-06T14:42:48.769Z</time></trkpt><trkpt lat="44.6871938" lon="8.8885021"><ele>247.6</ele><time>2026-04-06T14:42:50.77Z</time></trkpt><trkpt lat="44.6872584" lon="8.8884246"><ele>247.0</ele><time>2026-04-06T14:42:52.77Z</time></trkpt><trkpt lat="44.6873379" lon="8.8883549"><ele>246.99999999999997</ele><time>2026-04-06T14:42:54.77Z</time></trkpt><trkpt lat="44.6874091" lon="8.8882834"><ele>247.0</ele><time>2026-04-06T14:42:56.769Z</time></trkpt><trkpt lat="44.6874861" lon="8.8882142"><ele>247.0</ele><time>2026-04-06T14:42:58.769Z</time></trkpt><trkpt lat="44.6875534" lon="8.8881525"><ele>247.0</ele><time>2026-04-06T14:43:00.769Z</time></trkpt><trkpt lat="44.687619" lon="8.8880905"><ele>246.99999999999997</ele><time>2026-04-06T14:43:02.77Z</time></trkpt><trkpt lat="44.6876931" lon="8.8880225"><ele>247.0</ele><time>2026-04-06T14:43:04.769Z</time></trkpt><trkpt lat="44.6877645" lon="8.8879528"><ele>246.8</ele><time>2026-04-06T14:43:06.77Z</time></trkpt><trkpt lat="44.6878183" lon="8.8879001"><ele>246.6</ele><time>2026-04-06T14:43:07.771Z</time></trkpt><trkpt lat="44.6879017" lon="8.8877952"><ele>246.40000000000003</ele><time>2026-04-06T14:43:09.77Z</time></trkpt><trkpt lat="44.6879878" lon="8.8876922"><ele>246.20000000000002</ele><time>2026-04-06T14:43:11.768Z</time></trkpt><trkpt lat="44.6880691" lon="8.8875815"><ele>246.0</ele><time>2026-04-06T14:43:13.769Z</time></trkpt><trkpt lat="44.6881521" lon="8.887477"><ele>246.0</ele><time>2026-04-06T14:43:15.77Z</time></trkpt><trkpt lat="44.6882372" lon="8.8873758"><ele>246.00000000000003</ele><time>2026-04-06T14:43:17.77Z</time></trkpt><trkpt lat="44.6883274" lon="8.88728"><ele>246.00000000000003</ele><time>2026-04-06T14:43:19.769Z</time></trkpt><trkpt lat="44.6884112" lon="8.8871866"><ele>246.0</ele><time>2026-04-06T14:43:21.77Z</time></trkpt><trkpt lat="44.6884834" lon="8.8871035"><ele>246.0</ele><time>2026-04-06T14:43:23.77Z</time></trkpt><trkpt lat="44.6885792" lon="8.8870529"><ele>245.60000000000002</ele><time>2026-04-06T14:43:25.769Z</time></trkpt><trkpt lat="44.6886465" lon="8.8870334"><ele>245.20000000000002</ele><time>2026-04-06T14:43:26.771Z</time></trkpt><trkpt lat="44.6887257" lon="8.8869368"><ele>244.79999999999998</ele><time>2026-04-06T14:43:28.768Z</time></trkpt><trkpt lat="44.6887697" lon="8.8867906"><ele>244.39999999999998</ele><time>2026-04-06T14:43:30.771Z</time></trkpt><trkpt lat="44.6888414" lon="8.8866595"><ele>244.0</ele><time>2026-04-06T14:43:32.77Z</time></trkpt><trkpt lat="44.6889288" lon="8.8865435"><ele>244.0</ele><time>2026-04-06T14:43:34.769Z</time></trkpt><trkpt lat="44.6889769" lon="8.8864805"><ele>243.99999999999997</ele><time>2026-04-06T14:43:35.768Z</time></trkpt><trkpt lat="44.6890726" lon="8.8863696"><ele>243.99999999999997</ele><time>2026-04-06T14:43:37.771Z</time></trkpt><trkpt lat="44.6891537" lon="8.8862551"><ele>244.0</ele><time>2026-04-06T14:43:39.768Z</time></trkpt><trkpt lat="44.6891986" lon="8.8861923"><ele>244.0</ele><time>2026-04-06T14:43:40.771Z</time></trkpt><trkpt lat="44.6892891" lon="8.8860937"><ele>244.0</ele><time>2026-04-06T14:43:42.77Z</time></trkpt><trkpt lat="44.6893663" lon="8.8859873"><ele>243.99999999999997</ele><time>2026-04-06T14:43:44.771Z</time></trkpt><trkpt lat="44.6894432" lon="8.8858762"><ele>243.99999999999997</ele><time>2026-04-06T14:43:46.769Z</time></trkpt><trkpt lat="44.689524" lon="8.8857691"><ele>244.0</ele><time>2026-04-06T14:43:48.77Z</time></trkpt><trkpt lat="44.6895967" lon="8.8856496"><ele>244.0</ele><time>2026-04-06T14:43:50.771Z</time></trkpt><trkpt lat="44.6896787" lon="8.8855321"><ele>244.0</ele><time>2026-04-06T14:43:52.769Z</time></trkpt><trkpt lat="44.6897581" lon="8.8854173"><ele>244.0</ele><time>2026-04-06T14:43:54.771Z</time></trkpt><trkpt lat="44.6898272" lon="8.8852868"><ele>244.0</ele><time>2026-04-06T14:43:56.769Z</time></trkpt><trkpt lat="44.6898771" lon="8.8851456"><ele>244.0</ele><time>2026-04-06T14:43:58.77Z</time></trkpt><trkpt lat="44.6899342" lon="8.8850149"><ele>244.0</ele><time>2026-04-06T14:44:00.77Z</time></trkpt><trkpt lat="44.6900045" lon="8.8848906"><ele>243.99999999999997</ele><time>2026-04-06T14:44:02.769Z</time></trkpt><trkpt lat="44.6900675" lon="8.884781"><ele>243.99999999999997</ele><time>2026-04-06T14:44:04.769Z</time></trkpt><trkpt lat="44.6901191" lon="8.8847014"><ele>244.0</ele><time>2026-04-06T14:44:06.769Z</time></trkpt><trkpt lat="44.6901956" lon="8.8846148"><ele>244.0</ele><time>2026-04-06T14:44:09.77Z</time></trkpt><trkpt lat="44.6902527" lon="8.8845401"><ele>244.16666666666666</ele><time>2026-04-06T14:44:11.77Z</time></trkpt><trkpt lat="44.690313" lon="8.8844564"><ele>244.33333333333331</ele><time>2026-04-06T14:44:13.769Z</time></trkpt><trkpt lat="44.6903815" lon="8.8843728"><ele>244.5</ele><time>2026-04-06T14:44:15.769Z</time></trkpt><trkpt lat="44.6904365" lon="8.8842961"><ele>244.66666666666669</ele><time>2026-04-06T14:44:17.769Z</time></trkpt><trkpt lat="44.6904942" lon="8.884216"><ele>244.83333333333334</ele><time>2026-04-06T14:44:19.771Z</time></trkpt><trkpt lat="44.6905552" lon="8.8841325"><ele>245.0</ele><time>2026-04-06T14:44:21.769Z</time></trkpt><trkpt lat="44.6906116" lon="8.8840517"><ele>245.00000000000003</ele><time>2026-04-06T14:44:23.77Z</time></trkpt><trkpt lat="44.6906803" lon="8.8839696"><ele>245.0</ele><time>2026-04-06T14:44:25.77Z</time></trkpt><trkpt lat="44.6907439" lon="8.8838743"><ele>245.0</ele><time>2026-04-06T14:44:27.769Z</time></trkpt><trkpt lat="44.6907943" lon="8.8837899"><ele>245.0</ele><time>2026-04-06T14:44:29.769Z</time></trkpt><trkpt lat="44.6908461" lon="8.883713"><ele>245.00000000000003</ele><time>2026-04-06T14:44:31.769Z</time></trkpt><trkpt lat="44.6908814" lon="8.8836187"><ele>245.0</ele><time>2026-04-06T14:44:33.768Z</time></trkpt><trkpt lat="44.6908878" lon="8.8835152"><ele>244.83333333333334</ele><time>2026-04-06T14:44:35.77Z</time></trkpt><trkpt lat="44.6908685" lon="8.8833827"><ele>244.66666666666669</ele><time>2026-04-06T14:44:38.769Z</time></trkpt><trkpt lat="44.6908488" lon="8.8832843"><ele>244.5</ele><time>2026-04-06T14:44:40.768Z</time></trkpt><trkpt lat="44.6908026" lon="8.8831816"><ele>244.33333333333331</ele><time>2026-04-06T14:44:42.769Z</time></trkpt><trkpt lat="44.6907362" lon="8.8830732"><ele>244.16666666666666</ele><time>2026-04-06T14:44:44.768Z</time></trkpt><trkpt lat="44.6906718" lon="8.8829839"><ele>244.0</ele><time>2026-04-06T14:44:46.769Z</time></trkpt><trkpt lat="44.6906085" lon="8.882909"><ele>243.99999999999997</ele><time>2026-04-06T14:44:48.77Z</time></trkpt><trkpt lat="44.6905517" lon="8.8828279"><ele>244.0</ele><time>2026-04-06T14:44:50.769Z</time></trkpt><trkpt lat="44.6905091" lon="8.882728"><ele>244.0</ele><time>2026-04-06T14:44:52.768Z</time></trkpt><trkpt lat="44.6905054" lon="8.8826151"><ele>244.0</ele><time>2026-04-06T14:44:54.769Z</time></trkpt><trkpt lat="44.6905251" lon="8.8825241"><ele>243.99999999999997</ele><time>2026-04-06T14:44:56.771Z</time></trkpt><trkpt lat="44.6905789" lon="8.8824295"><ele>244.0</ele><time>2026-04-06T14:44:58.77Z</time></trkpt><trkpt lat="44.6906401" lon="8.8823323"><ele>243.66666666666666</ele><time>2026-04-06T14:45:00.769Z</time></trkpt><trkpt lat="44.6906977" lon="8.8822349"><ele>243.33333333333331</ele><time>2026-04-06T14:45:02.769Z</time></trkpt><trkpt lat="44.6907417" lon="8.8821308"><ele>243.0</ele><time>2026-04-06T14:45:04.768Z</time></trkpt><trkpt lat="44.6907944" lon="8.8820355"><ele>242.66666666666669</ele><time>2026-04-06T14:45:06.769Z</time></trkpt><trkpt lat="44.6908637" lon="8.8819512"><ele>242.33333333333334</ele><time>2026-04-06T14:45:08.77Z</time></trkpt><trkpt lat="44.6909187" lon="8.8818678"><ele>242.0</ele><time>2026-04-06T14:45:10.768Z</time></trkpt><trkpt lat="44.6909788" lon="8.8817862"><ele>242.00000000000003</ele><time>2026-04-06T14:45:12.77Z</time></trkpt><trkpt lat="44.6910383" lon="8.8817037"><ele>242.0</ele><time>2026-04-06T14:45:14.77Z</time></trkpt><trkpt lat="44.6910974" lon="8.8816137"><ele>242.0</ele><time>2026-04-06T14:45:16.77Z</time></trkpt><trkpt lat="44.691159" lon="8.881538"><ele>242.0</ele><time>2026-04-06T14:45:18.769Z</time></trkpt><trkpt lat="44.6912161" lon="8.8814498"><ele>242.00000000000003</ele><time>2026-04-06T14:45:21.77Z</time></trkpt><trkpt lat="44.6912071" lon="8.881338"><ele>242.0</ele><time>2026-04-06T14:45:24.768Z</time></trkpt><trkpt lat="44.6911594" lon="8.8812206"><ele>242.00000000000003</ele><time>2026-04-06T14:45:27.771Z</time></trkpt><trkpt lat="44.6911068" lon="8.8811529"><ele>242.0</ele><time>2026-04-06T14:45:29.77Z</time></trkpt><trkpt lat="44.6910579" lon="8.8810807"><ele>242.0</ele><time>2026-04-06T14:45:31.77Z</time></trkpt><trkpt lat="44.6910107" lon="8.8810053"><ele>242.0</ele><time>2026-04-06T14:45:33.769Z</time></trkpt><trkpt lat="44.6909564" lon="8.8809261"><ele>242.00000000000003</ele><time>2026-04-06T14:45:35.769Z</time></trkpt><trkpt lat="44.6909076" lon="8.8808372"><ele>242.0</ele><time>2026-04-06T14:45:37.77Z</time></trkpt><trkpt lat="44.6908516" lon="8.8807604"><ele>242.16666666666669</ele><time>2026-04-06T14:45:39.77Z</time></trkpt><trkpt lat="44.6907992" lon="8.8806777"><ele>242.33333333333334</ele><time>2026-04-06T14:45:41.768Z</time></trkpt><trkpt lat="44.6907493" lon="8.8805894"><ele>242.5</ele><time>2026-04-06T14:45:43.769Z</time></trkpt><trkpt lat="44.6906938" lon="8.8805119"><ele>242.66666666666669</ele><time>2026-04-06T14:45:45.771Z</time></trkpt><trkpt lat="44.6906398" lon="8.8804269"><ele>242.83333333333334</ele><time>2026-04-06T14:45:47.768Z</time></trkpt><trkpt lat="44.6905844" lon="8.8803415"><ele>243.0</ele><time>2026-04-06T14:45:49.768Z</time></trkpt><trkpt lat="44.6905228" lon="8.8802614"><ele>243.0</ele><time>2026-04-06T14:45:51.77Z</time></trkpt><trkpt lat="44.6904692" lon="8.8801771"><ele>243.0</ele><time>2026-04-06T14:45:53.769Z</time></trkpt><trkpt lat="44.6904137" lon="8.8800972"><ele>243.0</ele><time>2026-04-06T14:45:55.771Z</time></trkpt><trkpt lat="44.690358" lon="8.8800254"><ele>243.0</ele><time>2026-04-06T14:45:57.768Z</time></trkpt><trkpt lat="44.6902993" lon="8.8799456"><ele>243.0</ele><time>2026-04-06T14:46:00.77Z</time></trkpt><trkpt lat="44.6902556" lon="8.8798708"><ele>243.0</ele><time>2026-04-06T14:46:03.768Z</time></trkpt><trkpt lat="44.6902041" lon="8.879777"><ele>243.71428571428572</ele><time>2026-04-06T14:46:06.768Z</time></trkpt><trkpt lat="44.6901565" lon="8.8797024"><ele>244.42857142857144</ele><time>2026-04-06T14:46:08.77Z</time></trkpt><trkpt lat="44.690107" lon="8.8796345"><ele>245.14285714285717</ele><time>2026-04-06T14:46:10.769Z</time></trkpt><trkpt lat="44.690063" lon="8.8795672"><ele>245.85714285714286</ele><time>2026-04-06T14:46:12.769Z</time></trkpt><trkpt lat="44.6900172" lon="8.8794944"><ele>246.5714285714286</ele><time>2026-04-06T14:46:14.768Z</time></trkpt><trkpt lat="44.689966" lon="8.8794195"><ele>247.2857142857143</ele><time>2026-04-06T14:46:16.768Z</time></trkpt><trkpt lat="44.6899139" lon="8.8793446"><ele>248.0</ele><time>2026-04-06T14:46:18.768Z</time></trkpt><trkpt lat="44.6898617" lon="8.8792634"><ele>248.00000000000003</ele><time>2026-04-06T14:46:20.769Z</time></trkpt><trkpt lat="44.6898082" lon="8.879174"><ele>248.0</ele><time>2026-04-06T14:46:22.769Z</time></trkpt><trkpt lat="44.6897458" lon="8.8790965"><ele>248.0</ele><time>2026-04-06T14:46:24.768Z</time></trkpt><trkpt lat="44.6896712" lon="8.8790451"><ele>248.0</ele><time>2026-04-06T14:46:26.769Z</time></trkpt><trkpt lat="44.6895926" lon="8.879012"><ele>248.00000000000003</ele><time>2026-04-06T14:46:28.768Z</time></trkpt><trkpt lat="44.6895127" lon="8.878991"><ele>248.0</ele><time>2026-04-06T14:46:30.77Z</time></trkpt><trkpt lat="44.6894322" lon="8.8789685"><ele>249.66666666666669</ele><time>2026-04-06T14:46:32.768Z</time></trkpt><trkpt lat="44.689349" lon="8.8789487"><ele>251.33333333333334</ele><time>2026-04-06T14:46:34.77Z</time></trkpt><trkpt lat="44.689267" lon="8.8789303"><ele>253.0</ele><time>2026-04-06T14:46:36.769Z</time></trkpt><trkpt lat="44.6891857" lon="8.8789081"><ele>254.66666666666669</ele><time>2026-04-06T14:46:38.769Z</time></trkpt><trkpt lat="44.6891077" lon="8.878886"><ele>256.3333333333333</ele><time>2026-04-06T14:46:40.769Z</time></trkpt><trkpt lat="44.6890302" lon="8.8788639"><ele>258.0</ele><time>2026-04-06T14:46:42.771Z</time></trkpt><trkpt lat="44.6889536" lon="8.8788436"><ele>258.0</ele><time>2026-04-06T14:46:44.768Z</time></trkpt><trkpt lat="44.6888769" lon="8.8788226"><ele>258.0</ele><time>2026-04-06T14:46:46.77Z</time></trkpt><trkpt lat="44.6888008" lon="8.8787968"><ele>258.0</ele><time>2026-04-06T14:46:48.769Z</time></trkpt><trkpt lat="44.6887246" lon="8.8787564"><ele>258.0</ele><time>2026-04-06T14:46:50.769Z</time></trkpt><trkpt lat="44.6886457" lon="8.8787181"><ele>258.0</ele><time>2026-04-06T14:46:52.769Z</time></trkpt><trkpt lat="44.6885671" lon="8.8786864"><ele>258.0</ele><time>2026-04-06T14:46:54.771Z</time></trkpt><trkpt lat="44.6884912" lon="8.8786506"><ele>259.4285714285714</ele><time>2026-04-06T14:46:56.769Z</time></trkpt><trkpt lat="44.688422" lon="8.8786087"><ele>260.85714285714283</ele><time>2026-04-06T14:46:58.768Z</time></trkpt><trkpt lat="44.6883583" lon="8.8785703"><ele>262.2857142857143</ele><time>2026-04-06T14:47:00.77Z</time></trkpt><trkpt lat="44.6882922" lon="8.8785316"><ele>263.71428571428567</ele><time>2026-04-06T14:47:02.771Z</time></trkpt><trkpt lat="44.6882235" lon="8.8784972"><ele>265.1428571428571</ele><time>2026-04-06T14:47:04.769Z</time></trkpt><trkpt lat="44.6881566" lon="8.8784585"><ele>266.57142857142856</ele><time>2026-04-06T14:47:06.77Z</time></trkpt><trkpt lat="44.688088" lon="8.8784315"><ele>268.0</ele><time>2026-04-06T14:47:08.769Z</time></trkpt><trkpt lat="44.6880173" lon="8.8783933"><ele>268.5</ele><time>2026-04-06T14:47:10.77Z</time></trkpt><trkpt lat="44.687945" lon="8.8783559"><ele>269.0</ele><time>2026-04-06T14:47:12.769Z</time></trkpt><trkpt lat="44.68787" lon="8.8783238"><ele>269.5</ele><time>2026-04-06T14:47:14.769Z</time></trkpt><trkpt lat="44.687797" lon="8.8782857"><ele>270.0</ele><time>2026-04-06T14:47:16.77Z</time></trkpt><trkpt lat="44.6877279" lon="8.8782535"><ele>270.5</ele><time>2026-04-06T14:47:18.77Z</time></trkpt><trkpt lat="44.6876608" lon="8.8782122"><ele>271.0</ele><time>2026-04-06T14:47:20.77Z</time></trkpt><trkpt lat="44.6875907" lon="8.878176"><ele>272.42857142857144</ele><time>2026-04-06T14:47:22.769Z</time></trkpt><trkpt lat="44.6875174" lon="8.8781409"><ele>273.8571428571429</ele><time>2026-04-06T14:47:24.77Z</time></trkpt><trkpt lat="44.6874466" lon="8.8781055"><ele>275.28571428571433</ele><time>2026-04-06T14:47:26.769Z</time></trkpt><trkpt lat="44.6873863" lon="8.8780745"><ele>276.7142857142857</ele><time>2026-04-06T14:47:28.769Z</time></trkpt><trkpt lat="44.6873177" lon="8.8780407"><ele>278.14285714285717</ele><time>2026-04-06T14:47:30.768Z</time></trkpt><trkpt lat="44.6872459" lon="8.8780135"><ele>279.5714285714286</ele><time>2026-04-06T14:47:32.769Z</time></trkpt><trkpt lat="44.687175" lon="8.8779889"><ele>281.0</ele><time>2026-04-06T14:47:34.769Z</time></trkpt><trkpt lat="44.6870965" lon="8.8779826"><ele>281.00000000000006</ele><time>2026-04-06T14:47:36.769Z</time></trkpt><trkpt lat="44.6870202" lon="8.8779743"><ele>281.0</ele><time>2026-04-06T14:47:38.77Z</time></trkpt><trkpt lat="44.6869455" lon="8.8779614"><ele>281.0</ele><time>2026-04-06T14:47:40.77Z</time></trkpt><trkpt lat="44.6868808" lon="8.8779549"><ele>281.0</ele><time>2026-04-06T14:47:42.77Z</time></trkpt><trkpt lat="44.6867984" lon="8.8779375"><ele>281.0</ele><time>2026-04-06T14:47:45.769Z</time></trkpt><trkpt lat="44.6867244" lon="8.8779016"><ele>281.00000000000006</ele><time>2026-04-06T14:47:48.768Z</time></trkpt><trkpt lat="44.6866557" lon="8.8778798"><ele>281.0</ele><time>2026-04-06T14:47:51.77Z</time></trkpt><trkpt lat="44.6865872" lon="8.8778337"><ele>281.5</ele><time>2026-04-06T14:47:55.768Z</time></trkpt><trkpt lat="44.6865105" lon="8.8777883"><ele>282.0</ele><time>2026-04-06T14:48:00.77Z</time></trkpt><trkpt lat="44.6864371" lon="8.8777519"><ele>282.5</ele><time>2026-04-06T14:48:03.769Z</time></trkpt><trkpt lat="44.6863502" lon="8.8777302"><ele>283.0</ele><time>2026-04-06T14:48:06.769Z</time></trkpt><trkpt lat="44.686279" lon="8.8777145"><ele>283.5</ele><time>2026-04-06T14:48:08.77Z</time></trkpt><trkpt lat="44.6862151" lon="8.8776985"><ele>284.0</ele><time>2026-04-06T14:48:10.769Z</time></trkpt><trkpt lat="44.6861478" lon="8.8776898"><ele>283.6666666666667</ele><time>2026-04-06T14:48:12.768Z</time></trkpt><trkpt lat="44.6860789" lon="8.8776695"><ele>283.33333333333337</ele><time>2026-04-06T14:48:14.77Z</time></trkpt><trkpt lat="44.6860039" lon="8.8776523"><ele>283.0</ele><time>2026-04-06T14:48:16.769Z</time></trkpt><trkpt lat="44.6859276" lon="8.8776299"><ele>282.6666666666667</ele><time>2026-04-06T14:48:18.769Z</time></trkpt><trkpt lat="44.6858523" lon="8.8776081"><ele>282.3333333333333</ele><time>2026-04-06T14:48:20.77Z</time></trkpt><trkpt lat="44.6857765" lon="8.8776005"><ele>282.0</ele><time>2026-04-06T14:48:22.769Z</time></trkpt><trkpt lat="44.6857005" lon="8.8776148"><ele>282.0</ele><time>2026-04-06T14:48:24.77Z</time></trkpt><trkpt lat="44.6856245" lon="8.877644"><ele>282.0</ele><time>2026-04-06T14:48:26.769Z</time></trkpt><trkpt lat="44.6855519" lon="8.8776735"><ele>282.0</ele><time>2026-04-06T14:48:28.768Z</time></trkpt><trkpt lat="44.6854834" lon="8.8776932"><ele>282.0</ele><time>2026-04-06T14:48:30.769Z</time></trkpt><trkpt lat="44.6853982" lon="8.8777096"><ele>282.0</ele><time>2026-04-06T14:48:33.769Z</time></trkpt><trkpt lat="44.6853103" lon="8.8777198"><ele>282.0</ele><time>2026-04-06T14:48:36.769Z</time></trkpt><trkpt lat="44.6852266" lon="8.8777377"><ele>282.1666666666667</ele><time>2026-04-06T14:48:39.768Z</time></trkpt><trkpt lat="44.6851631" lon="8.8777602"><ele>282.3333333333333</ele><time>2026-04-06T14:48:41.768Z</time></trkpt><trkpt lat="44.6850986" lon="8.8777888"><ele>282.5</ele><time>2026-04-06T14:48:43.769Z</time></trkpt><trkpt lat="44.6850135" lon="8.8778384"><ele>282.66666666666663</ele><time>2026-04-06T14:48:46.769Z</time></trkpt><trkpt lat="44.6849302" lon="8.8778815"><ele>282.8333333333333</ele><time>2026-04-06T14:48:49.768Z</time></trkpt><trkpt lat="44.6848666" lon="8.8779069"><ele>283.0</ele><time>2026-04-06T14:48:51.768Z</time></trkpt><trkpt lat="44.6847758" lon="8.8779385"><ele>283.0</ele><time>2026-04-06T14:48:54.769Z</time></trkpt><trkpt lat="44.6847127" lon="8.8779617"><ele>283.0</ele><time>2026-04-06T14:48:56.769Z</time></trkpt><trkpt lat="44.6846478" lon="8.8779868"><ele>283.0</ele><time>2026-04-06T14:48:58.769Z</time></trkpt><trkpt lat="44.6845794" lon="8.8780034"><ele>283.0</ele><time>2026-04-06T14:49:00.768Z</time></trkpt><trkpt lat="44.6845028" lon="8.8780089"><ele>283.0</ele><time>2026-04-06T14:49:02.768Z</time></trkpt><trkpt lat="44.684432" lon="8.8780135"><ele>283.0</ele><time>2026-04-06T14:49:04.77Z</time></trkpt><trkpt lat="44.6843491" lon="8.8780169"><ele>283.0</ele><time>2026-04-06T14:49:06.768Z</time></trkpt><trkpt lat="44.6842748" lon="8.8780181"><ele>282.7142857142857</ele><time>2026-04-06T14:49:08.769Z</time></trkpt><trkpt lat="44.6842032" lon="8.8780248"><ele>282.42857142857144</ele><time>2026-04-06T14:49:10.77Z</time></trkpt><trkpt lat="44.6841365" lon="8.8780381"><ele>282.14285714285717</ele><time>2026-04-06T14:49:12.77Z</time></trkpt><trkpt lat="44.6840636" lon="8.878058"><ele>281.8571428571429</ele><time>2026-04-06T14:49:14.768Z</time></trkpt><trkpt lat="44.6840017" lon="8.878079"><ele>281.57142857142856</ele><time>2026-04-06T14:49:16.769Z</time></trkpt><trkpt lat="44.6839343" lon="8.8780935"><ele>281.28571428571433</ele><time>2026-04-06T14:49:18.769Z</time></trkpt><trkpt lat="44.6838662" lon="8.8780974"><ele>281.0</ele><time>2026-04-06T14:49:20.77Z</time></trkpt><trkpt lat="44.6837988" lon="8.878107"><ele>281.0</ele><time>2026-04-06T14:49:22.769Z</time></trkpt><trkpt lat="44.6837357" lon="8.8781164"><ele>281.0</ele><time>2026-04-06T14:49:24.77Z</time></trkpt><trkpt lat="44.6836453" lon="8.8781291"><ele>281.0</ele><time>2026-04-06T14:49:27.769Z</time></trkpt><trkpt lat="44.6835546" lon="8.8781413"><ele>281.0</ele><time>2026-04-06T14:49:30.769Z</time></trkpt><trkpt lat="44.6834728" lon="8.878162"><ele>281.0</ele><time>2026-04-06T14:49:33.768Z</time></trkpt><trkpt lat="44.6833795" lon="8.8781783"><ele>281.0</ele><time>2026-04-06T14:49:36.769Z</time></trkpt><trkpt lat="44.6833134" lon="8.8781916"><ele>281.5714285714286</ele><time>2026-04-06T14:49:38.768Z</time></trkpt><trkpt lat="44.683245" lon="8.8781989"><ele>282.14285714285717</ele><time>2026-04-06T14:49:40.77Z</time></trkpt><trkpt lat="44.6831818" lon="8.8781932"><ele>282.7142857142857</ele><time>2026-04-06T14:49:42.768Z</time></trkpt><trkpt lat="44.6831239" lon="8.8781513"><ele>283.28571428571433</ele><time>2026-04-06T14:49:44.768Z</time></trkpt><trkpt lat="44.6830673" lon="8.8780805"><ele>283.8571428571429</ele><time>2026-04-06T14:49:46.769Z</time></trkpt><trkpt lat="44.6830073" lon="8.8780155"><ele>284.42857142857144</ele><time>2026-04-06T14:49:48.77Z</time></trkpt><trkpt lat="44.6829561" lon="8.8779542"><ele>285.0</ele><time>2026-04-06T14:49:50.769Z</time></trkpt><trkpt lat="44.6829021" lon="8.8778869"><ele>285.0</ele><time>2026-04-06T14:49:52.769Z</time></trkpt><trkpt lat="44.6828328" lon="8.8778157"><ele>285.0</ele><time>2026-04-06T14:49:54.768Z</time></trkpt><trkpt lat="44.682761" lon="8.8777467"><ele>285.0</ele><time>2026-04-06T14:49:56.768Z</time></trkpt><trkpt lat="44.6826925" lon="8.8776783"><ele>285.0</ele><time>2026-04-06T14:49:58.77Z</time></trkpt><trkpt lat="44.6826408" lon="8.877604"><ele>285.0</ele><time>2026-04-06T14:50:00.769Z</time></trkpt><trkpt lat="44.6825968" lon="8.8775297"><ele>285.0</ele><time>2026-04-06T14:50:02.769Z</time></trkpt><trkpt lat="44.6825458" lon="8.8774517"><ele>284.8333333333333</ele><time>2026-04-06T14:50:04.768Z</time></trkpt><trkpt lat="44.6824854" lon="8.8773804"><ele>284.6666666666667</ele><time>2026-04-06T14:50:06.77Z</time></trkpt><trkpt lat="44.6824317" lon="8.8773043"><ele>284.5</ele><time>2026-04-06T14:50:08.769Z</time></trkpt><trkpt lat="44.6823746" lon="8.8772252"><ele>284.33333333333337</ele><time>2026-04-06T14:50:10.768Z</time></trkpt><trkpt lat="44.682324" lon="8.8771502"><ele>284.1666666666667</ele><time>2026-04-06T14:50:12.768Z</time></trkpt><trkpt lat="44.6822717" lon="8.8770739"><ele>284.0</ele><time>2026-04-06T14:50:14.77Z</time></trkpt><trkpt lat="44.6822172" lon="8.8770039"><ele>284.0</ele><time>2026-04-06T14:50:16.77Z</time></trkpt><trkpt lat="44.6821661" lon="8.8769393"><ele>284.0</ele><time>2026-04-06T14:50:18.767Z</time></trkpt><trkpt lat="44.6821088" lon="8.8768694"><ele>284.0</ele><time>2026-04-06T14:50:20.769Z</time></trkpt><trkpt lat="44.6820513" lon="8.8767936"><ele>284.0</ele><time>2026-04-06T14:50:22.769Z</time></trkpt><trkpt lat="44.6819892" lon="8.8767174"><ele>284.0</ele><time>2026-04-06T14:50:24.769Z</time></trkpt><trkpt lat="44.6819284" lon="8.8766356"><ele>284.0</ele><time>2026-04-06T14:50:26.769Z</time></trkpt><trkpt lat="44.6818648" lon="8.8765526"><ele>284.6666666666667</ele><time>2026-04-06T14:50:28.768Z</time></trkpt><trkpt lat="44.6818137" lon="8.876447"><ele>285.33333333333337</ele><time>2026-04-06T14:50:30.77Z</time></trkpt><trkpt lat="44.6818017" lon="8.8763239"><ele>286.0</ele><time>2026-04-06T14:50:32.769Z</time></trkpt><trkpt lat="44.6818256" lon="8.8761917"><ele>286.6666666666667</ele><time>2026-04-06T14:50:34.769Z</time></trkpt><trkpt lat="44.6818482" lon="8.8760743"><ele>287.3333333333333</ele><time>2026-04-06T14:50:36.769Z</time></trkpt><trkpt lat="44.6818589" lon="8.8759657"><ele>288.0</ele><time>2026-04-06T14:50:38.769Z</time></trkpt><trkpt lat="44.6818766" lon="8.8758755"><ele>288.42857142857144</ele><time>2026-04-06T14:50:40.768Z</time></trkpt><trkpt lat="44.6818983" lon="8.8757756"><ele>288.8571428571429</ele><time>2026-04-06T14:50:42.768Z</time></trkpt><trkpt lat="44.6819142" lon="8.8756768"><ele>289.2857142857143</ele><time>2026-04-06T14:50:44.768Z</time></trkpt><trkpt lat="44.6819235" lon="8.8755797"><ele>289.7142857142857</ele><time>2026-04-06T14:50:46.768Z</time></trkpt><trkpt lat="44.6819323" lon="8.87548"><ele>290.1428571428571</ele><time>2026-04-06T14:50:48.767Z</time></trkpt><trkpt lat="44.6819438" lon="8.8753777"><ele>290.57142857142856</ele><time>2026-04-06T14:50:50.769Z</time></trkpt><trkpt lat="44.6819434" lon="8.8752768"><ele>291.0</ele><time>2026-04-06T14:50:52.769Z</time></trkpt><trkpt lat="44.6819406" lon="8.8751818"><ele>291.2857142857143</ele><time>2026-04-06T14:50:54.768Z</time></trkpt><trkpt lat="44.6819409" lon="8.8750505"><ele>291.57142857142856</ele><time>2026-04-06T14:50:57.77Z</time></trkpt><trkpt lat="44.6819403" lon="8.8749594"><ele>291.85714285714283</ele><time>2026-04-06T14:50:59.769Z</time></trkpt><trkpt lat="44.6819313" lon="8.8748669"><ele>292.1428571428571</ele><time>2026-04-06T14:51:01.769Z</time></trkpt><trkpt lat="44.6819251" lon="8.8747773"><ele>292.42857142857144</ele><time>2026-04-06T14:51:03.768Z</time></trkpt><trkpt lat="44.6819079" lon="8.8746469"><ele>292.71428571428567</ele><time>2026-04-06T14:51:06.768Z</time></trkpt><trkpt lat="44.6818896" lon="8.8745604"><ele>293.0</ele><time>2026-04-06T14:51:08.77Z</time></trkpt><trkpt lat="44.6818686" lon="8.8744739"><ele>292.99999999999994</ele><time>2026-04-06T14:51:10.77Z</time></trkpt><trkpt lat="44.6818435" lon="8.8743781"><ele>293.0</ele><time>2026-04-06T14:51:12.768Z</time></trkpt><trkpt lat="44.6818261" lon="8.8742813"><ele>293.0</ele><time>2026-04-06T14:51:14.769Z</time></trkpt><trkpt lat="44.6818115" lon="8.8741847"><ele>293.0</ele><time>2026-04-06T14:51:16.768Z</time></trkpt><trkpt lat="44.681801" lon="8.874093"><ele>293.0</ele><time>2026-04-06T14:51:18.769Z</time></trkpt><trkpt lat="44.6817756" lon="8.8739747"><ele>292.99999999999994</ele><time>2026-04-06T14:51:21.768Z</time></trkpt><trkpt lat="44.681745" lon="8.873891"><ele>293.0</ele><time>2026-04-06T14:51:23.769Z</time></trkpt><trkpt lat="44.6817072" lon="8.8738142"><ele>293.5</ele><time>2026-04-06T14:51:25.769Z</time></trkpt><trkpt lat="44.6816605" lon="8.8737479"><ele>294.0</ele><time>2026-04-06T14:51:27.769Z</time></trkpt><trkpt lat="44.6815947" lon="8.8737317"><ele>294.5</ele><time>2026-04-06T14:51:29.768Z</time></trkpt><trkpt lat="44.6815084" lon="8.873713"><ele>295.0</ele><time>2026-04-06T14:51:32.769Z</time></trkpt><trkpt lat="44.6814331" lon="8.8736725"><ele>295.5</ele><time>2026-04-06T14:51:35.769Z</time></trkpt><trkpt lat="44.6813402" lon="8.8736519"><ele>296.0</ele><time>2026-04-06T14:51:38.768Z</time></trkpt><trkpt lat="44.6812523" lon="8.873622"><ele>296.0</ele><time>2026-04-06T14:51:41.77Z</time></trkpt><trkpt lat="44.6811664" lon="8.873591"><ele>296.0</ele><time>2026-04-06T14:51:44.77Z</time></trkpt><trkpt lat="44.6810842" lon="8.8735771"><ele>296.0</ele><time>2026-04-06T14:51:47.769Z</time></trkpt><trkpt lat="44.6810009" lon="8.8735799"><ele>296.0</ele><time>2026-04-06T14:51:50.767Z</time></trkpt><trkpt lat="44.6809139" lon="8.8735899"><ele>296.0</ele><time>2026-04-06T14:51:53.769Z</time></trkpt><trkpt lat="44.680825" lon="8.8736028"><ele>296.0</ele><time>2026-04-06T14:51:56.77Z</time></trkpt><trkpt lat="44.6807548" lon="8.8736195"><ele>296.42857142857144</ele><time>2026-04-06T14:51:59.77Z</time></trkpt><trkpt lat="44.680677" lon="8.8736335"><ele>296.85714285714283</ele><time>2026-04-06T14:52:02.767Z</time></trkpt><trkpt lat="44.680606" lon="8.873632"><ele>297.2857142857143</ele><time>2026-04-06T14:52:05.768Z</time></trkpt><trkpt lat="44.6805233" lon="8.8736255"><ele>297.7142857142857</ele><time>2026-04-06T14:52:08.769Z</time></trkpt><trkpt lat="44.6804465" lon="8.8736164"><ele>298.14285714285717</ele><time>2026-04-06T14:52:11.769Z</time></trkpt><trkpt lat="44.680382" lon="8.8735929"><ele>298.57142857142856</ele><time>2026-04-06T14:52:14.769Z</time></trkpt><trkpt lat="44.6803116" lon="8.8735782"><ele>299.0</ele><time>2026-04-06T14:52:17.769Z</time></trkpt><trkpt lat="44.6802426" lon="8.8735743"><ele>300.0</ele><time>2026-04-06T14:52:20.769Z</time></trkpt><trkpt lat="44.6801839" lon="8.8735388"><ele>301.0</ele><time>2026-04-06T14:52:23.77Z</time></trkpt><trkpt lat="44.6801234" lon="8.8734578"><ele>302.0</ele><time>2026-04-06T14:52:27.768Z</time></trkpt><trkpt lat="44.6800819" lon="8.8733663"><ele>303.0</ele><time>2026-04-06T14:52:30.768Z</time></trkpt><trkpt lat="44.6800778" lon="8.8732639"><ele>304.0</ele><time>2026-04-06T14:52:33.769Z</time></trkpt><trkpt lat="44.6800463" lon="8.8731547"><ele>305.0</ele><time>2026-04-06T14:52:37.768Z</time></trkpt><trkpt lat="44.6799954" lon="8.8730912"><ele>306.0</ele><time>2026-04-06T14:52:40.768Z</time></trkpt><trkpt lat="44.679947" lon="8.8730292"><ele>307.42857142857144</ele><time>2026-04-06T14:52:43.77Z</time></trkpt><trkpt lat="44.6798735" lon="8.8729942"><ele>308.8571428571429</ele><time>2026-04-06T14:52:47.768Z</time></trkpt><trkpt lat="44.6798076" lon="8.8729931"><ele>310.28571428571433</ele><time>2026-04-06T14:52:51.768Z</time></trkpt><trkpt lat="44.6797553" lon="8.873065"><ele>311.7142857142857</ele><time>2026-04-06T14:52:55.768Z</time></trkpt><trkpt lat="44.6797283" lon="8.8731481"><ele>313.14285714285717</ele><time>2026-04-06T14:52:58.77Z</time></trkpt><trkpt lat="44.6797037" lon="8.8732384"><ele>314.5714285714286</ele><time>2026-04-06T14:53:02.769Z</time></trkpt><trkpt lat="44.6796649" lon="8.8733195"><ele>316.0</ele><time>2026-04-06T14:53:06.769Z</time></trkpt><trkpt lat="44.6796068" lon="8.8733582"><ele>316.00000000000006</ele><time>2026-04-06T14:53:10.769Z</time></trkpt><trkpt lat="44.6795437" lon="8.8733506"><ele>316.0</ele><time>2026-04-06T14:53:13.77Z</time></trkpt><trkpt lat="44.6794648" lon="8.8733221"><ele>316.0</ele><time>2026-04-06T14:53:17.769Z</time></trkpt><trkpt lat="44.6793981" lon="8.8733053"><ele>316.0</ele><time>2026-04-06T14:53:21.769Z</time></trkpt><trkpt lat="44.6793706" lon="8.8732146"><ele>316.0</ele><time>2026-04-06T14:53:25.77Z</time></trkpt><trkpt lat="44.6793755" lon="8.8731255"><ele>316.00000000000006</ele><time>2026-04-06T14:53:29.769Z</time></trkpt><trkpt lat="44.6793788" lon="8.8730221"><ele>316.0</ele><time>2026-04-06T14:53:34.768Z</time></trkpt><trkpt lat="44.6793896" lon="8.8729337"><ele>316.00000000000006</ele><time>2026-04-06T14:53:38.769Z</time></trkpt><trkpt lat="44.6794" lon="8.8728302"><ele>316.0</ele><time>2026-04-06T14:53:43.769Z</time></trkpt><trkpt lat="44.679445" lon="8.8727363"><ele>316.0</ele><time>2026-04-06T14:53:47.769Z</time></trkpt><trkpt lat="44.6794799" lon="8.87265"><ele>316.0</ele><time>2026-04-06T14:53:51.769Z</time></trkpt><trkpt lat="44.6795121" lon="8.8725707"><ele>316.0</ele><time>2026-04-06T14:53:55.769Z</time></trkpt><trkpt lat="44.6795642" lon="8.8725081"><ele>316.00000000000006</ele><time>2026-04-06T14:53:59.77Z</time></trkpt><trkpt lat="44.6796237" lon="8.872444"><ele>316.0</ele><time>2026-04-06T14:54:03.768Z</time></trkpt><trkpt lat="44.6796953" lon="8.8724032"><ele>319.0</ele><time>2026-04-06T14:54:06.77Z</time></trkpt><trkpt lat="44.6797588" lon="8.8723565"><ele>322.0</ele><time>2026-04-06T14:54:10.769Z</time></trkpt><trkpt lat="44.6798388" lon="8.8723612"><ele>325.0</ele><time>2026-04-06T14:54:14.768Z</time></trkpt><trkpt lat="44.6799024" lon="8.8723811"><ele>328.0</ele><time>2026-04-06T14:54:17.769Z</time></trkpt><trkpt lat="44.6799809" lon="8.8724223"><ele>331.0</ele><time>2026-04-06T14:54:21.768Z</time></trkpt><trkpt lat="44.6800476" lon="8.8724546"><ele>334.0</ele><time>2026-04-06T14:54:24.768Z</time></trkpt><trkpt lat="44.6801206" lon="8.8725052"><ele>334.0</ele><time>2026-04-06T14:54:28.768Z</time></trkpt><trkpt lat="44.6801875" lon="8.8724688"><ele>334.0</ele><time>2026-04-06T14:54:32.77Z</time></trkpt><trkpt lat="44.6801225" lon="8.8724012"><ele>334.0</ele><time>2026-04-06T14:54:37.769Z</time></trkpt><trkpt lat="44.680064" lon="8.8723281"><ele>334.0</ele><time>2026-04-06T14:54:41.77Z</time></trkpt><trkpt lat="44.6800254" lon="8.8722389"><ele>334.0</ele><time>2026-04-06T14:54:46.769Z</time></trkpt><trkpt lat="44.6799886" lon="8.872156"><ele>334.0</ele><time>2026-04-06T14:54:50.767Z</time></trkpt><trkpt lat="44.6799349" lon="8.8720899"><ele>334.0</ele><time>2026-04-06T14:54:54.767Z</time></trkpt><trkpt lat="44.6798872" lon="8.8720186"><ele>334.0</ele><time>2026-04-06T14:55:06.768Z</time></trkpt><trkpt lat="44.6798159" lon="8.8719973"><ele>334.0</ele><time>2026-04-06T15:12:07.767Z</time></trkpt><trkpt lat="44.6798713" lon="8.8720466"><ele>334.0</ele><time>2026-04-06T15:16:08.766Z</time></trkpt><trkpt lat="44.6799257" lon="8.8721059"><ele>334.0</ele><time>2026-04-06T15:16:14.767Z</time></trkpt><trkpt lat="44.6799749" lon="8.8721681"><ele>334.0</ele><time>2026-04-06T15:16:16.765Z</time></trkpt><trkpt lat="44.6800192" lon="8.8722519"><ele>334.0</ele><time>2026-04-06T15:16:18.765Z</time></trkpt><trkpt lat="44.6800703" lon="8.8723445"><ele>334.0</ele><time>2026-04-06T15:16:20.767Z</time></trkpt><trkpt lat="44.68014" lon="8.8724182"><ele>334.0</ele><time>2026-04-06T15:16:23.766Z</time></trkpt><trkpt lat="44.6801802" lon="8.8724918"><ele>334.0</ele><time>2026-04-06T15:16:26.766Z</time></trkpt><trkpt lat="44.6801177" lon="8.8725389"><ele>334.0</ele><time>2026-04-06T15:16:29.766Z</time></trkpt><trkpt lat="44.6800397" lon="8.8724774"><ele>334.0</ele><time>2026-04-06T15:16:32.766Z</time></trkpt><trkpt lat="44.6799677" lon="8.872419"><ele>334.0</ele><time>2026-04-06T15:16:34.766Z</time></trkpt><trkpt lat="44.6798871" lon="8.872382"><ele>334.0</ele><time>2026-04-06T15:16:36.766Z</time></trkpt><trkpt lat="44.6797921" lon="8.8723901"><ele>334.0</ele><time>2026-04-06T15:16:38.766Z</time></trkpt><trkpt lat="44.6796974" lon="8.8724212"><ele>334.0</ele><time>2026-04-06T15:16:40.766Z</time></trkpt><trkpt lat="44.6796219" lon="8.8724461"><ele>334.0</ele><time>2026-04-06T15:16:42.766Z</time></trkpt><trkpt lat="44.6795613" lon="8.8724886"><ele>334.0</ele><time>2026-04-06T15:16:45.768Z</time></trkpt><trkpt lat="44.6794977" lon="8.8725765"><ele>334.0</ele><time>2026-04-06T15:16:49.767Z</time></trkpt><trkpt lat="44.6794597" lon="8.8726618"><ele>334.0</ele><time>2026-04-06T15:16:51.765Z</time></trkpt><trkpt lat="44.6794182" lon="8.8727687"><ele>334.5</ele><time>2026-04-06T15:16:53.767Z</time></trkpt><trkpt lat="44.6793852" lon="8.8728809"><ele>335.0</ele><time>2026-04-06T15:16:55.765Z</time></trkpt><trkpt lat="44.6793678" lon="8.8729995"><ele>335.5</ele><time>2026-04-06T15:16:57.766Z</time></trkpt><trkpt lat="44.6793684" lon="8.8730957"><ele>336.0</ele><time>2026-04-06T15:16:58.765Z</time></trkpt><trkpt lat="44.679386" lon="8.8731972"><ele>336.5</ele><time>2026-04-06T15:17:00.766Z</time></trkpt><trkpt lat="44.6794054" lon="8.8733148"><ele>337.0</ele><time>2026-04-06T15:17:03.767Z</time></trkpt><trkpt lat="44.6794753" lon="8.8733416"><ele>333.5</ele><time>2026-04-06T15:17:07.765Z</time></trkpt><trkpt lat="44.6795505" lon="8.8733725"><ele>330.0</ele><time>2026-04-06T15:17:10.766Z</time></trkpt><trkpt lat="44.6796421" lon="8.8733523"><ele>326.5</ele><time>2026-04-06T15:17:13.766Z</time></trkpt><trkpt lat="44.6797014" lon="8.8732547"><ele>323.0</ele><time>2026-04-06T15:17:16.765Z</time></trkpt><trkpt lat="44.6797326" lon="8.8731613"><ele>319.5</ele><time>2026-04-06T15:17:18.767Z</time></trkpt><trkpt lat="44.6797792" lon="8.8730587"><ele>316.0</ele><time>2026-04-06T15:17:21.766Z</time></trkpt><trkpt lat="44.6798464" lon="8.872995"><ele>316.00000000000006</ele><time>2026-04-06T15:17:24.767Z</time></trkpt><trkpt lat="44.6799318" lon="8.8730223"><ele>316.0</ele><time>2026-04-06T15:17:27.767Z</time></trkpt><trkpt lat="44.6799887" lon="8.8730674"><ele>316.0</ele><time>2026-04-06T15:17:29.766Z</time></trkpt><trkpt lat="44.6800352" lon="8.8731449"><ele>316.0</ele><time>2026-04-06T15:17:31.768Z</time></trkpt><trkpt lat="44.6800668" lon="8.8732229"><ele>316.0</ele><time>2026-04-06T15:17:33.768Z</time></trkpt><trkpt lat="44.6800836" lon="8.8733279"><ele>316.00000000000006</ele><time>2026-04-06T15:17:35.766Z</time></trkpt><trkpt lat="44.6800983" lon="8.8734268"><ele>316.0</ele><time>2026-04-06T15:17:37.766Z</time></trkpt><trkpt lat="44.6801621" lon="8.8735182"><ele>314.3333333333333</ele><time>2026-04-06T15:17:40.766Z</time></trkpt><trkpt lat="44.6802616" lon="8.8735537"><ele>312.66666666666663</ele><time>2026-04-06T15:17:42.768Z</time></trkpt><trkpt lat="44.6803728" lon="8.8735749"><ele>311.0</ele><time>2026-04-06T15:17:44.767Z</time></trkpt><trkpt lat="44.6804378" lon="8.8735927"><ele>309.3333333333333</ele><time>2026-04-06T15:17:45.765Z</time></trkpt><trkpt lat="44.6805034" lon="8.8736078"><ele>307.6666666666667</ele><time>2026-04-06T15:17:46.765Z</time></trkpt><trkpt lat="44.6805744" lon="8.8736173"><ele>306.0</ele><time>2026-04-06T15:17:47.768Z</time></trkpt><trkpt lat="44.6806433" lon="8.8736169"><ele>305.0</ele><time>2026-04-06T15:17:48.766Z</time></trkpt><trkpt lat="44.6807156" lon="8.8736104"><ele>304.0</ele><time>2026-04-06T15:17:49.767Z</time></trkpt><trkpt lat="44.6807855" lon="8.8736063"><ele>303.0</ele><time>2026-04-06T15:17:50.767Z</time></trkpt><trkpt lat="44.6808516" lon="8.8735924"><ele>302.0</ele><time>2026-04-06T15:17:51.766Z</time></trkpt><trkpt lat="44.6809207" lon="8.8735787"><ele>301.0</ele><time>2026-04-06T15:17:52.767Z</time></trkpt><trkpt lat="44.6809888" lon="8.8735777"><ele>300.0</ele><time>2026-04-06T15:17:53.766Z</time></trkpt><trkpt lat="44.6810598" lon="8.8735617"><ele>299.0</ele><time>2026-04-06T15:17:54.765Z</time></trkpt><trkpt lat="44.6811342" lon="8.8735779"><ele>298.4</ele><time>2026-04-06T15:17:55.766Z</time></trkpt><trkpt lat="44.6812077" lon="8.8735968"><ele>297.79999999999995</ele><time>2026-04-06T15:17:56.767Z</time></trkpt><trkpt lat="44.6812698" lon="8.8736204"><ele>297.20000000000005</ele><time>2026-04-06T15:17:57.766Z</time></trkpt><trkpt lat="44.6813872" lon="8.8736698"><ele>296.6</ele><time>2026-04-06T15:17:59.766Z</time></trkpt><trkpt lat="44.681489" lon="8.8737171"><ele>296.0</ele><time>2026-04-06T15:18:01.767Z</time></trkpt><trkpt lat="44.6815718" lon="8.8737474"><ele>296.0</ele><time>2026-04-06T15:18:03.766Z</time></trkpt><trkpt lat="44.6816455" lon="8.8737816"><ele>296.0</ele><time>2026-04-06T15:18:05.766Z</time></trkpt><trkpt lat="44.6817111" lon="8.8738918"><ele>296.0</ele><time>2026-04-06T15:18:07.765Z</time></trkpt><trkpt lat="44.6817432" lon="8.8740259"><ele>296.0</ele><time>2026-04-06T15:18:09.767Z</time></trkpt><trkpt lat="44.6817686" lon="8.8741583"><ele>296.0</ele><time>2026-04-06T15:18:11.766Z</time></trkpt><trkpt lat="44.6817846" lon="8.874301"><ele>295.40000000000003</ele><time>2026-04-06T15:18:13.766Z</time></trkpt><trkpt lat="44.681811" lon="8.8744303"><ele>294.8</ele><time>2026-04-06T15:18:15.766Z</time></trkpt><trkpt lat="44.6818488" lon="8.874552"><ele>294.20000000000005</ele><time>2026-04-06T15:18:17.768Z</time></trkpt><trkpt lat="44.6818824" lon="8.8746738"><ele>293.6</ele><time>2026-04-06T15:18:19.766Z</time></trkpt><trkpt lat="44.6819045" lon="8.8748136"><ele>293.0</ele><time>2026-04-06T15:18:21.768Z</time></trkpt><trkpt lat="44.6819121" lon="8.8749754"><ele>293.0</ele><time>2026-04-06T15:18:23.766Z</time></trkpt><trkpt lat="44.6819138" lon="8.8750698"><ele>293.0</ele><time>2026-04-06T15:18:24.765Z</time></trkpt><trkpt lat="44.6819136" lon="8.8751738"><ele>293.0</ele><time>2026-04-06T15:18:25.765Z</time></trkpt><trkpt lat="44.681915" lon="8.8752813"><ele>293.0</ele><time>2026-04-06T15:18:26.766Z</time></trkpt><trkpt lat="44.681907" lon="8.8753977"><ele>293.0</ele><time>2026-04-06T15:18:27.768Z</time></trkpt><trkpt lat="44.6818935" lon="8.875513"><ele>293.0</ele><time>2026-04-06T15:18:28.766Z</time></trkpt><trkpt lat="44.6818822" lon="8.8756236"><ele>292.6666666666667</ele><time>2026-04-06T15:18:29.766Z</time></trkpt><trkpt lat="44.6818739" lon="8.8757447"><ele>292.33333333333337</ele><time>2026-04-06T15:18:30.767Z</time></trkpt><trkpt lat="44.6818643" lon="8.8758617"><ele>292.0</ele><time>2026-04-06T15:18:31.767Z</time></trkpt><trkpt lat="44.6818553" lon="8.8759806"><ele>291.6666666666667</ele><time>2026-04-06T15:18:32.766Z</time></trkpt><trkpt lat="44.6818452" lon="8.8760836"><ele>291.3333333333333</ele><time>2026-04-06T15:18:33.766Z</time></trkpt><trkpt lat="44.6818195" lon="8.8761815"><ele>291.0</ele><time>2026-04-06T15:18:34.765Z</time></trkpt><trkpt lat="44.681803" lon="8.8762827"><ele>290.40000000000003</ele><time>2026-04-06T15:18:35.766Z</time></trkpt><trkpt lat="44.6818031" lon="8.8764468"><ele>289.8</ele><time>2026-04-06T15:18:37.766Z</time></trkpt><trkpt lat="44.6818535" lon="8.8765686"><ele>289.20000000000005</ele><time>2026-04-06T15:18:39.766Z</time></trkpt><trkpt lat="44.6819092" lon="8.8766554"><ele>288.6</ele><time>2026-04-06T15:18:41.767Z</time></trkpt><trkpt lat="44.6819768" lon="8.876734"><ele>288.0</ele><time>2026-04-06T15:18:44.767Z</time></trkpt><trkpt lat="44.6820376" lon="8.8768225"><ele>287.3333333333333</ele><time>2026-04-06T15:18:47.766Z</time></trkpt><trkpt lat="44.6820995" lon="8.8769009"><ele>286.6666666666667</ele><time>2026-04-06T15:18:50.768Z</time></trkpt><trkpt lat="44.6821565" lon="8.8769742"><ele>286.0</ele><time>2026-04-06T15:18:53.766Z</time></trkpt><trkpt lat="44.6822202" lon="8.8770491"><ele>285.33333333333337</ele><time>2026-04-06T15:18:56.767Z</time></trkpt><trkpt lat="44.6822826" lon="8.877125"><ele>284.6666666666667</ele><time>2026-04-06T15:18:59.766Z</time></trkpt><trkpt lat="44.6823282" lon="8.8772181"><ele>284.0</ele><time>2026-04-06T15:19:02.766Z</time></trkpt><trkpt lat="44.6823921" lon="8.8772906"><ele>284.0</ele><time>2026-04-06T15:19:05.767Z</time></trkpt><trkpt lat="44.6824489" lon="8.8773359"><ele>284.0</ele><time>2026-04-06T15:19:07.765Z</time></trkpt><trkpt lat="44.6825046" lon="8.8774004"><ele>284.0</ele><time>2026-04-06T15:19:09.766Z</time></trkpt><trkpt lat="44.6825581" lon="8.8774753"><ele>284.0</ele><time>2026-04-06T15:19:11.765Z</time></trkpt><trkpt lat="44.6826086" lon="8.877541"><ele>284.0</ele><time>2026-04-06T15:19:13.766Z</time></trkpt><trkpt lat="44.6826607" lon="8.8776129"><ele>284.0</ele><time>2026-04-06T15:19:15.765Z</time></trkpt><trkpt lat="44.6827208" lon="8.8776853"><ele>284.0</ele><time>2026-04-06T15:19:17.768Z</time></trkpt><trkpt lat="44.6827691" lon="8.8777506"><ele>284.1428571428571</ele><time>2026-04-06T15:19:19.766Z</time></trkpt><trkpt lat="44.6828169" lon="8.87781"><ele>284.2857142857143</ele><time>2026-04-06T15:19:21.767Z</time></trkpt><trkpt lat="44.6828746" lon="8.8778781"><ele>284.42857142857144</ele><time>2026-04-06T15:19:23.767Z</time></trkpt><trkpt lat="44.6829322" lon="8.8779436"><ele>284.57142857142856</ele><time>2026-04-06T15:19:25.767Z</time></trkpt><trkpt lat="44.6829983" lon="8.8780129"><ele>284.7142857142857</ele><time>2026-04-06T15:19:27.767Z</time></trkpt><trkpt lat="44.6830568" lon="8.8780734"><ele>284.85714285714283</ele><time>2026-04-06T15:19:29.766Z</time></trkpt><trkpt lat="44.6831017" lon="8.8781374"><ele>285.0</ele><time>2026-04-06T15:19:31.767Z</time></trkpt><trkpt lat="44.683169" lon="8.8781996"><ele>285.0</ele><time>2026-04-06T15:19:34.767Z</time></trkpt><trkpt lat="44.6832423" lon="8.8782047"><ele>285.0</ele><time>2026-04-06T15:19:36.767Z</time></trkpt><trkpt lat="44.6833495" lon="8.8781822"><ele>285.0</ele><time>2026-04-06T15:19:38.766Z</time></trkpt><trkpt lat="44.6834727" lon="8.8781651"><ele>285.0</ele><time>2026-04-06T15:19:40.767Z</time></trkpt><trkpt lat="44.6835943" lon="8.8781425"><ele>285.0</ele><time>2026-04-06T15:19:42.766Z</time></trkpt><trkpt lat="44.6836569" lon="8.8781312"><ele>284.3333333333333</ele><time>2026-04-06T15:19:43.767Z</time></trkpt><trkpt lat="44.6837782" lon="8.8781138"><ele>283.6666666666667</ele><time>2026-04-06T15:19:45.768Z</time></trkpt><trkpt lat="44.6839017" lon="8.8781012"><ele>283.0</ele><time>2026-04-06T15:19:47.767Z</time></trkpt><trkpt lat="44.6839647" lon="8.8780881"><ele>282.33333333333337</ele><time>2026-04-06T15:19:48.767Z</time></trkpt><trkpt lat="44.6840277" lon="8.878077"><ele>281.6666666666667</ele><time>2026-04-06T15:19:49.767Z</time></trkpt><trkpt lat="44.6840891" lon="8.8780543"><ele>281.0</ele><time>2026-04-06T15:19:50.765Z</time></trkpt><trkpt lat="44.6842112" lon="8.8780323"><ele>281.0</ele><time>2026-04-06T15:19:52.766Z</time></trkpt><trkpt lat="44.6843306" lon="8.8780167"><ele>281.0</ele><time>2026-04-06T15:19:54.766Z</time></trkpt><trkpt lat="44.6844449" lon="8.8780109"><ele>281.0</ele><time>2026-04-06T15:19:56.766Z</time></trkpt><trkpt lat="44.6845527" lon="8.8780077"><ele>281.0</ele><time>2026-04-06T15:19:58.765Z</time></trkpt><trkpt lat="44.6846625" lon="8.8779804"><ele>281.40000000000003</ele><time>2026-04-06T15:20:00.766Z</time></trkpt><trkpt lat="44.6847608" lon="8.8779486"><ele>281.8</ele><time>2026-04-06T15:20:02.765Z</time></trkpt><trkpt lat="44.6848609" lon="8.8779078"><ele>282.20000000000005</ele><time>2026-04-06T15:20:04.765Z</time></trkpt><trkpt lat="44.6849627" lon="8.877878"><ele>282.6</ele><time>2026-04-06T15:20:06.765Z</time></trkpt><trkpt lat="44.6850667" lon="8.8778337"><ele>283.0</ele><time>2026-04-06T15:20:08.765Z</time></trkpt><trkpt lat="44.6851668" lon="8.877788"><ele>282.8</ele><time>2026-04-06T15:20:10.766Z</time></trkpt><trkpt lat="44.6852682" lon="8.8777412"><ele>282.6</ele><time>2026-04-06T15:20:12.766Z</time></trkpt><trkpt lat="44.6853744" lon="8.8777233"><ele>282.4</ele><time>2026-04-06T15:20:14.766Z</time></trkpt><trkpt lat="44.6854727" lon="8.8777047"><ele>282.2</ele><time>2026-04-06T15:20:16.766Z</time></trkpt><trkpt lat="44.6855601" lon="8.8776833"><ele>282.0</ele><time>2026-04-06T15:20:18.767Z</time></trkpt><trkpt lat="44.6856439" lon="8.87766"><ele>282.0</ele><time>2026-04-06T15:20:20.767Z</time></trkpt><trkpt lat="44.6857199" lon="8.8776335"><ele>282.0</ele><time>2026-04-06T15:20:22.766Z</time></trkpt><trkpt lat="44.6857981" lon="8.8776145"><ele>282.0</ele><time>2026-04-06T15:20:24.766Z</time></trkpt><trkpt lat="44.6858726" lon="8.8776131"><ele>282.0</ele><time>2026-04-06T15:20:26.765Z</time></trkpt><trkpt lat="44.6859372" lon="8.8776336"><ele>282.0</ele><time>2026-04-06T15:20:28.766Z</time></trkpt><trkpt lat="44.6860165" lon="8.8776586"><ele>282.0</ele><time>2026-04-06T15:20:31.766Z</time></trkpt><trkpt lat="44.6861005" lon="8.877673"><ele>282.3333333333333</ele><time>2026-04-06T15:20:34.765Z</time></trkpt><trkpt lat="44.6861892" lon="8.877697"><ele>282.6666666666667</ele><time>2026-04-06T15:20:37.766Z</time></trkpt><trkpt lat="44.6862767" lon="8.8777144"><ele>283.0</ele><time>2026-04-06T15:20:40.765Z</time></trkpt><trkpt lat="44.6863554" lon="8.8777455"><ele>283.33333333333337</ele><time>2026-04-06T15:20:43.767Z</time></trkpt><trkpt lat="44.6864378" lon="8.8777809"><ele>283.6666666666667</ele><time>2026-04-06T15:20:46.766Z</time></trkpt><trkpt lat="44.6865077" lon="8.8778287"><ele>284.0</ele><time>2026-04-06T15:20:49.766Z</time></trkpt><trkpt lat="44.6865869" lon="8.8778728"><ele>284.0</ele><time>2026-04-06T15:20:52.766Z</time></trkpt><trkpt lat="44.6866509" lon="8.8779015"><ele>284.0</ele><time>2026-04-06T15:20:54.767Z</time></trkpt><trkpt lat="44.6867122" lon="8.8779256"><ele>284.0</ele><time>2026-04-06T15:20:56.766Z</time></trkpt><trkpt lat="44.6867982" lon="8.8779576"><ele>284.0</ele><time>2026-04-06T15:20:59.766Z</time></trkpt><trkpt lat="44.6868608" lon="8.8779713"><ele>284.0</ele><time>2026-04-06T15:21:01.766Z</time></trkpt><trkpt lat="44.6869354" lon="8.8779552"><ele>284.0</ele><time>2026-04-06T15:21:03.766Z</time></trkpt><trkpt lat="44.6870208" lon="8.8779601"><ele>284.0</ele><time>2026-04-06T15:21:05.766Z</time></trkpt><trkpt lat="44.6871364" lon="8.8779957"><ele>283.4</ele><time>2026-04-06T15:21:07.766Z</time></trkpt><trkpt lat="44.6872024" lon="8.8780204"><ele>282.79999999999995</ele><time>2026-04-06T15:21:08.766Z</time></trkpt><trkpt lat="44.6873413" lon="8.8780781"><ele>282.20000000000005</ele><time>2026-04-06T15:21:10.765Z</time></trkpt><trkpt lat="44.6874304" lon="8.8781204"><ele>281.6</ele><time>2026-04-06T15:21:11.767Z</time></trkpt><trkpt lat="44.6875229" lon="8.8781691"><ele>281.0</ele><time>2026-04-06T15:21:12.766Z</time></trkpt><trkpt lat="44.6876257" lon="8.878221"><ele>281.0</ele><time>2026-04-06T15:21:13.766Z</time></trkpt><trkpt lat="44.6877312" lon="8.8782728"><ele>281.0</ele><time>2026-04-06T15:21:14.766Z</time></trkpt><trkpt lat="44.6878441" lon="8.8783346"><ele>281.0</ele><time>2026-04-06T15:21:15.766Z</time></trkpt><trkpt lat="44.6879609" lon="8.8783898"><ele>281.0</ele><time>2026-04-06T15:21:16.767Z</time></trkpt><trkpt lat="44.6880808" lon="8.8784388"><ele>278.40000000000003</ele><time>2026-04-06T15:21:17.766Z</time></trkpt><trkpt lat="44.6881881" lon="8.8784998"><ele>275.8</ele><time>2026-04-06T15:21:18.767Z</time></trkpt><trkpt lat="44.6882949" lon="8.8785597"><ele>273.20000000000005</ele><time>2026-04-06T15:21:19.766Z</time></trkpt><trkpt lat="44.6883971" lon="8.8786162"><ele>270.6</ele><time>2026-04-06T15:21:20.766Z</time></trkpt><trkpt lat="44.6884876" lon="8.8786706"><ele>268.0</ele><time>2026-04-06T15:21:21.766Z</time></trkpt><trkpt lat="44.6885923" lon="8.8787159"><ele>265.5</ele><time>2026-04-06T15:21:22.766Z</time></trkpt><trkpt lat="44.6886951" lon="8.8787695"><ele>263.0</ele><time>2026-04-06T15:21:23.767Z</time></trkpt><trkpt lat="44.6888069" lon="8.8788133"><ele>260.5</ele><time>2026-04-06T15:21:24.767Z</time></trkpt><trkpt lat="44.6889238" lon="8.8788505"><ele>258.0</ele><time>2026-04-06T15:21:25.767Z</time></trkpt><trkpt lat="44.6890413" lon="8.8788918"><ele>258.0</ele><time>2026-04-06T15:21:26.767Z</time></trkpt><trkpt lat="44.6891433" lon="8.8789259"><ele>258.0</ele><time>2026-04-06T15:21:27.766Z</time></trkpt><trkpt lat="44.6892314" lon="8.8789529"><ele>258.0</ele><time>2026-04-06T15:21:28.767Z</time></trkpt><trkpt lat="44.6893125" lon="8.8789804"><ele>258.0</ele><time>2026-04-06T15:21:29.766Z</time></trkpt><trkpt lat="44.6893862" lon="8.8790046"><ele>258.0</ele><time>2026-04-06T15:21:30.766Z</time></trkpt><trkpt lat="44.6894562" lon="8.8790199"><ele>258.0</ele><time>2026-04-06T15:21:31.766Z</time></trkpt><trkpt lat="44.689524" lon="8.8790424"><ele>256.3333333333333</ele><time>2026-04-06T15:21:32.766Z</time></trkpt><trkpt lat="44.6895905" lon="8.8790429"><ele>254.66666666666669</ele><time>2026-04-06T15:21:33.766Z</time></trkpt><trkpt lat="44.6896605" lon="8.8790079"><ele>253.0</ele><time>2026-04-06T15:21:34.767Z</time></trkpt><trkpt lat="44.6897187" lon="8.8789694"><ele>251.33333333333334</ele><time>2026-04-06T15:21:35.765Z</time></trkpt><trkpt lat="44.6897852" lon="8.8788214"><ele>249.66666666666669</ele><time>2026-04-06T15:21:37.766Z</time></trkpt><trkpt lat="44.6898416" lon="8.8786798"><ele>248.0</ele><time>2026-04-06T15:21:39.766Z</time></trkpt><trkpt lat="44.6898828" lon="8.8785485"><ele>248.00000000000003</ele><time>2026-04-06T15:21:41.767Z</time></trkpt><trkpt lat="44.6899611" lon="8.878475"><ele>248.0</ele><time>2026-04-06T15:21:43.767Z</time></trkpt><trkpt lat="44.6900471" lon="8.878497"><ele>248.0</ele><time>2026-04-06T15:21:45.766Z</time></trkpt><trkpt lat="44.6901359" lon="8.8785846"><ele>248.0</ele><time>2026-04-06T15:21:47.766Z</time></trkpt><trkpt lat="44.690203" lon="8.878616"><ele>248.00000000000003</ele><time>2026-04-06T15:21:48.765Z</time></trkpt><trkpt lat="44.6902743" lon="8.8786114"><ele>248.0</ele><time>2026-04-06T15:21:49.767Z</time></trkpt><trkpt lat="44.6903512" lon="8.8785724"><ele>247.16666666666669</ele><time>2026-04-06T15:21:50.766Z</time></trkpt><trkpt lat="44.6904338" lon="8.878502"><ele>246.33333333333334</ele><time>2026-04-06T15:21:51.766Z</time></trkpt><trkpt lat="44.6905017" lon="8.8784478"><ele>245.5</ele><time>2026-04-06T15:21:52.765Z</time></trkpt><trkpt lat="44.6905618" lon="8.8784089"><ele>244.66666666666669</ele><time>2026-04-06T15:21:53.767Z</time></trkpt><trkpt lat="44.6906756" lon="8.8783674"><ele>243.83333333333334</ele><time>2026-04-06T15:21:55.765Z</time></trkpt><trkpt lat="44.6907172" lon="8.8784369"><ele>243.0</ele><time>2026-04-06T15:21:56.766Z</time></trkpt><trkpt lat="44.6907856" lon="8.8785394"><ele>243.0</ele><time>2026-04-06T15:21:58.765Z</time></trkpt><trkpt lat="44.6908546" lon="8.8786418"><ele>243.0</ele><time>2026-04-06T15:22:00.767Z</time></trkpt><trkpt lat="44.6909088" lon="8.8787305"><ele>243.0</ele><time>2026-04-06T15:22:02.766Z</time></trkpt><trkpt lat="44.6909724" lon="8.8788087"><ele>243.0</ele><time>2026-04-06T15:22:04.765Z</time></trkpt><trkpt lat="44.6910317" lon="8.8789001"><ele>243.0</ele><time>2026-04-06T15:22:06.766Z</time></trkpt><trkpt lat="44.6910883" lon="8.8789981"><ele>243.0</ele><time>2026-04-06T15:22:08.766Z</time></trkpt><trkpt lat="44.6911492" lon="8.8790867"><ele>243.0</ele><time>2026-04-06T15:22:10.766Z</time></trkpt><trkpt lat="44.6912041" lon="8.879178"><ele>243.0</ele><time>2026-04-06T15:22:12.767Z</time></trkpt><trkpt lat="44.6912704" lon="8.8792732"><ele>243.0</ele><time>2026-04-06T15:22:14.767Z</time></trkpt><trkpt lat="44.6913406" lon="8.8793608"><ele>243.0</ele><time>2026-04-06T15:22:16.765Z</time></trkpt><trkpt lat="44.6914048" lon="8.8794595"><ele>243.0</ele><time>2026-04-06T15:22:18.767Z</time></trkpt><trkpt lat="44.6914621" lon="8.8795684"><ele>242.83333333333334</ele><time>2026-04-06T15:22:20.766Z</time></trkpt><trkpt lat="44.6915269" lon="8.8796675"><ele>242.66666666666669</ele><time>2026-04-06T15:22:22.766Z</time></trkpt><trkpt lat="44.6915862" lon="8.8797631"><ele>242.5</ele><time>2026-04-06T15:22:24.765Z</time></trkpt><trkpt lat="44.6916338" lon="8.8798586"><ele>242.33333333333334</ele><time>2026-04-06T15:22:26.766Z</time></trkpt><trkpt lat="44.6916814" lon="8.8799486"><ele>242.16666666666669</ele><time>2026-04-06T15:22:28.767Z</time></trkpt><trkpt lat="44.6917412" lon="8.8800284"><ele>242.0</ele><time>2026-04-06T15:22:30.766Z</time></trkpt><trkpt lat="44.6917885" lon="8.8801066"><ele>242.0</ele><time>2026-04-06T15:22:32.765Z</time></trkpt><trkpt lat="44.6918351" lon="8.880181"><ele>241.99999999999997</ele><time>2026-04-06T15:22:34.765Z</time></trkpt><trkpt lat="44.6918872" lon="8.8802453"><ele>242.0</ele><time>2026-04-06T15:22:36.767Z</time></trkpt><trkpt lat="44.6919358" lon="8.8803128"><ele>242.0</ele><time>2026-04-06T15:22:38.767Z</time></trkpt><trkpt lat="44.69198" lon="8.8803787"><ele>241.99999999999997</ele><time>2026-04-06T15:22:40.766Z</time></trkpt><trkpt lat="44.6920285" lon="8.8804541"><ele>242.0</ele><time>2026-04-06T15:22:43.767Z</time></trkpt><trkpt lat="44.6921023" lon="8.8804945"><ele>242.0</ele><time>2026-04-06T15:22:46.767Z</time></trkpt><trkpt lat="44.692164" lon="8.8804472"><ele>241.66666666666669</ele><time>2026-04-06T15:22:48.765Z</time></trkpt><trkpt lat="44.6922183" lon="8.8803679"><ele>241.33333333333334</ele><time>2026-04-06T15:22:50.766Z</time></trkpt><trkpt lat="44.6922688" lon="8.8803006"><ele>241.0</ele><time>2026-04-06T15:22:52.765Z</time></trkpt><trkpt lat="44.6923155" lon="8.8802372"><ele>240.66666666666669</ele><time>2026-04-06T15:22:54.765Z</time></trkpt><trkpt lat="44.6923665" lon="8.8801801"><ele>240.33333333333334</ele><time>2026-04-06T15:22:56.766Z</time></trkpt><trkpt lat="44.6924401" lon="8.880102"><ele>240.0</ele><time>2026-04-06T15:22:59.765Z</time></trkpt><trkpt lat="44.6925186" lon="8.8800446"><ele>240.0</ele><time>2026-04-06T15:23:02.766Z</time></trkpt><trkpt lat="44.6926102" lon="8.8800613"><ele>240.0</ele><time>2026-04-06T15:23:05.765Z</time></trkpt><trkpt lat="44.6926662" lon="8.8801242"><ele>240.0</ele><time>2026-04-06T15:23:07.766Z</time></trkpt><trkpt lat="44.6927175" lon="8.8802111"><ele>240.0</ele><time>2026-04-06T15:23:09.766Z</time></trkpt><trkpt lat="44.6927761" lon="8.8802946"><ele>240.0</ele><time>2026-04-06T15:23:11.767Z</time></trkpt><trkpt lat="44.6928256" lon="8.8803872"><ele>240.0</ele><time>2026-04-06T15:23:13.766Z</time></trkpt><trkpt lat="44.6928732" lon="8.8804823"><ele>239.6</ele><time>2026-04-06T15:23:15.767Z</time></trkpt><trkpt lat="44.6929042" lon="8.8806012"><ele>239.2</ele><time>2026-04-06T15:23:17.765Z</time></trkpt><trkpt lat="44.6928991" lon="8.8807462"><ele>238.8</ele><time>2026-04-06T15:23:19.765Z</time></trkpt><trkpt lat="44.6929159" lon="8.8808885"><ele>238.4</ele><time>2026-04-06T15:23:21.766Z</time></trkpt><trkpt lat="44.6929856" lon="8.8809855"><ele>238.0</ele><time>2026-04-06T15:23:23.766Z</time></trkpt><trkpt lat="44.6930831" lon="8.8810048"><ele>238.0</ele><time>2026-04-06T15:23:25.766Z</time></trkpt><trkpt lat="44.6931952" lon="8.8809369"><ele>238.0</ele><time>2026-04-06T15:23:27.767Z</time></trkpt><trkpt lat="44.6933206" lon="8.8809116"><ele>238.0</ele><time>2026-04-06T15:23:29.766Z</time></trkpt><trkpt lat="44.6933903" lon="8.8809366"><ele>238.0</ele><time>2026-04-06T15:23:30.766Z</time></trkpt><trkpt lat="44.6934579" lon="8.8809793"><ele>238.0</ele><time>2026-04-06T15:23:31.767Z</time></trkpt><trkpt lat="44.6935226" lon="8.881036"><ele>237.83333333333331</ele><time>2026-04-06T15:23:32.765Z</time></trkpt><trkpt lat="44.6935845" lon="8.8810951"><ele>237.66666666666666</ele><time>2026-04-06T15:23:33.766Z</time></trkpt><trkpt lat="44.6936543" lon="8.8811614"><ele>237.5</ele><time>2026-04-06T15:23:34.765Z</time></trkpt><trkpt lat="44.6937217" lon="8.8812355"><ele>237.33333333333331</ele><time>2026-04-06T15:23:35.766Z</time></trkpt><trkpt lat="44.6937926" lon="8.8813087"><ele>237.16666666666666</ele><time>2026-04-06T15:23:36.766Z</time></trkpt><trkpt lat="44.6938649" lon="8.8813826"><ele>237.0</ele><time>2026-04-06T15:23:37.765Z</time></trkpt><trkpt lat="44.6939389" lon="8.8814568"><ele>237.0</ele><time>2026-04-06T15:23:38.765Z</time></trkpt><trkpt lat="44.6940163" lon="8.8815342"><ele>237.0</ele><time>2026-04-06T15:23:39.765Z</time></trkpt><trkpt lat="44.6940971" lon="8.881613"><ele>237.0</ele><time>2026-04-06T15:23:40.766Z</time></trkpt><trkpt lat="44.6941721" lon="8.8816925"><ele>237.0</ele><time>2026-04-06T15:23:41.766Z</time></trkpt><trkpt lat="44.6942459" lon="8.8817744"><ele>237.0</ele><time>2026-04-06T15:23:42.767Z</time></trkpt><trkpt lat="44.6943188" lon="8.8818574"><ele>236.83333333333334</ele><time>2026-04-06T15:23:43.766Z</time></trkpt><trkpt lat="44.6943912" lon="8.8819391"><ele>236.66666666666669</ele><time>2026-04-06T15:23:44.766Z</time></trkpt><trkpt lat="44.6944642" lon="8.8820092"><ele>236.5</ele><time>2026-04-06T15:23:45.765Z</time></trkpt><trkpt lat="44.6945445" lon="8.8820711"><ele>236.33333333333334</ele><time>2026-04-06T15:23:46.767Z</time></trkpt><trkpt lat="44.6945526" lon="8.8821683"><ele>236.16666666666669</ele><time>2026-04-06T15:23:47.766Z</time></trkpt><trkpt lat="44.6946169" lon="8.8821586"><ele>236.0</ele><time>2026-04-06T15:23:59.766Z</time></trkpt><trkpt lat="44.694701" lon="8.8821504"><ele>234.25</ele><time>2026-04-06T15:24:01.766Z</time></trkpt><trkpt lat="44.6948001" lon="8.8821559"><ele>232.5</ele><time>2026-04-06T15:24:03.767Z</time></trkpt><trkpt lat="44.6949181" lon="8.8821735"><ele>230.75</ele><time>2026-04-06T15:24:05.766Z</time></trkpt><trkpt lat="44.6950377" lon="8.8822017"><ele>229.0</ele><time>2026-04-06T15:24:07.765Z</time></trkpt><trkpt lat="44.6951493" lon="8.8821913"><ele>229.0</ele><time>2026-04-06T15:24:09.765Z</time></trkpt><trkpt lat="44.6952533" lon="8.8820983"><ele>228.99999999999997</ele><time>2026-04-06T15:24:11.766Z</time></trkpt><trkpt lat="44.6952978" lon="8.8820346"><ele>228.99999999999997</ele><time>2026-04-06T15:24:12.766Z</time></trkpt><trkpt lat="44.6953709" lon="8.8818986"><ele>229.0</ele><time>2026-04-06T15:24:14.765Z</time></trkpt><trkpt lat="44.6954262" lon="8.8817526"><ele>229.0</ele><time>2026-04-06T15:24:16.766Z</time></trkpt><trkpt lat="44.6954762" lon="8.8816046"><ele>228.25</ele><time>2026-04-06T15:24:18.765Z</time></trkpt><trkpt lat="44.69553" lon="8.8814549"><ele>227.5</ele><time>2026-04-06T15:24:20.765Z</time></trkpt><trkpt lat="44.6955928" lon="8.881314"><ele>226.75</ele><time>2026-04-06T15:24:22.766Z</time></trkpt><trkpt lat="44.6956724" lon="8.8812105"><ele>226.0</ele><time>2026-04-06T15:24:24.764Z</time></trkpt><trkpt lat="44.6957685" lon="8.8811294"><ele>226.0</ele><time>2026-04-06T15:24:26.766Z</time></trkpt><trkpt lat="44.6958679" lon="8.881088"><ele>226.00000000000003</ele><time>2026-04-06T15:24:28.765Z</time></trkpt><trkpt lat="44.6959847" lon="8.8810252"><ele>226.00000000000003</ele><time>2026-04-06T15:24:30.766Z</time></trkpt><trkpt lat="44.6960453" lon="8.8809946"><ele>226.0</ele><time>2026-04-06T15:24:31.764Z</time></trkpt><trkpt lat="44.6961489" lon="8.8809117"><ele>226.0</ele><time>2026-04-06T15:24:33.766Z</time></trkpt><trkpt lat="44.6962435" lon="8.8808427"><ele>226.5</ele><time>2026-04-06T15:24:35.765Z</time></trkpt><trkpt lat="44.6963518" lon="8.8807626"><ele>227.0</ele><time>2026-04-06T15:24:37.765Z</time></trkpt><trkpt lat="44.69645" lon="8.8806833"><ele>227.5</ele><time>2026-04-06T15:24:39.767Z</time></trkpt><trkpt lat="44.6965459" lon="8.8806017"><ele>228.0</ele><time>2026-04-06T15:24:41.766Z</time></trkpt><trkpt lat="44.6966438" lon="8.8805223"><ele>228.0</ele><time>2026-04-06T15:24:43.765Z</time></trkpt><trkpt lat="44.6967526" lon="8.8804406"><ele>228.0</ele><time>2026-04-06T15:24:45.765Z</time></trkpt><trkpt lat="44.696869" lon="8.8803894"><ele>228.0</ele><time>2026-04-06T15:24:47.764Z</time></trkpt><trkpt lat="44.6969724" lon="8.8803466"><ele>228.0</ele><time>2026-04-06T15:24:49.767Z</time></trkpt><trkpt lat="44.697066" lon="8.8803088"><ele>228.0</ele><time>2026-04-06T15:24:51.766Z</time></trkpt><trkpt lat="44.6971544" lon="8.8802847"><ele>228.0</ele><time>2026-04-06T15:24:53.765Z</time></trkpt><trkpt lat="44.6972441" lon="8.8802509"><ele>228.0</ele><time>2026-04-06T15:24:55.766Z</time></trkpt><trkpt lat="44.6973292" lon="8.8802341"><ele>228.0</ele><time>2026-04-06T15:24:57.766Z</time></trkpt><trkpt lat="44.6974257" lon="8.8802539"><ele>228.0</ele><time>2026-04-06T15:24:59.766Z</time></trkpt><trkpt lat="44.6975254" lon="8.8802849"><ele>228.0</ele><time>2026-04-06T15:25:01.766Z</time></trkpt><trkpt lat="44.6976199" lon="8.8803155"><ele>228.0</ele><time>2026-04-06T15:25:03.766Z</time></trkpt><trkpt lat="44.6976888" lon="8.8803665"><ele>228.0</ele><time>2026-04-06T15:25:05.766Z</time></trkpt><trkpt lat="44.6977777" lon="8.8804208"><ele>228.0</ele><time>2026-04-06T15:25:07.767Z</time></trkpt><trkpt lat="44.6978499" lon="8.8804655"><ele>228.0</ele><time>2026-04-06T15:25:09.766Z</time></trkpt><trkpt lat="44.6979179" lon="8.8804994"><ele>228.0</ele><time>2026-04-06T15:25:11.765Z</time></trkpt><trkpt lat="44.6978794" lon="8.880585"><ele>229.0</ele><time>2026-04-06T15:26:04.766Z</time></trkpt><trkpt lat="44.6978794" lon="8.8806736"><ele>229.0</ele><time>2026-04-06T15:26:56.766Z</time></trkpt></trkseg></trk></gpx>